GFSWCAN_925_spd_054.txt.gz
Wind_Speed
26 30 31 23 22 20 21 24 28 31 29 36 47 49 52 58 61 54 30 39 21 5 6 3 7 7 12 15 14 11 7 6 1 9 13 8 6 10 7 12 10 10 8 5 7 5 13 7 8 18 9 10 6 9
25 26 18 17 16 14 17 17 23 30 26 33 38 38 47 60 55 43 19 37 26 3 2 2 6 2 13 15 9 10 18 9 8 7 6 6 4 5 9 6 7 7 7 5 6 4 11 6 7 6 6 7 7 6
22 18 12 10 10 9 10 5 2 17 31 35 35 34 47 54 54 27 21 32 17 4 4 4 6 9 8 19 16 11 10 13 5 8 4 5 5 6 4 5 6 2 12 10 10 11 12 13 13 7 7 8 10 8
19 13 7 6 5 8 7 8 14 22 23 32 41 41 48 53 52 31 26 26 16 3 0 1 3 5 10 14 7 1 10 12 11 15 6 4 3 7 5 4 8 6 7 14 12 12 10 13 13 8 5 6 7 4
13 12 9 5 8 12 13 17 19 29 34 43 45 44 44 45 35 30 26 27 17 3 3 1 7 12 10 3 7 3 9 9 2 3 3 6 6 4 3 5 6 10 11 8 5 5 1 5 4 2 13 14 12 5
16 18 16 11 15 15 18 24 31 34 38 43 45 48 47 40 40 30 4 15 18 8 3 5 1 5 14 10 7 11 8 4 3 6 6 6 5 3 2 4 9 11 11 13 11 8 9 2 4 4 5 10 11 8
22 16 23 17 20 22 24 28 31 37 39 43 43 42 35 37 22 5 4 14 22 12 2 1 1 2 11 10 2 5 8 1 3 3 4 7 7 7 3 6 7 5 6 4 4 8 3 2 4 6 7 11 7 6
27 24 29 37 30 24 27 32 42 48 46 46 44 40 35 31 20 9 9 27 19 1 3 1 1 2 7 3 3 4 5 3 4 2 4 6 6 1 3 6 10 13 14 10 10 2 4 7 6 6 6 6 7 6
31 32 27 34 43 43 49 48 51 44 47 46 41 32 24 10 3 4 11 10 3 4 3 2 2 2 2 2 3 5 4 1 3 5 3 5 4 1 8 11 13 15 11 12 10 7 7 5 5 5 4 4 5 7
28 34 38 39 42 45 45 46 47 45 40 31 18 6 3 5 21 18 4 3 3 3 1 2 1 2 1 2 4 4 3 1 3 4 2 2 3 6 13 12 11 13 16 12 9 9 10 9 6 0 2 3 5 5
27 30 33 33 35 37 40 38 34 26 12 2 3 3 21 11 4 2 3 2 3 2 3 3 6 3 3 3 2 1 4 2 3 3 4 4 4 8 11 11 11 12 12 12 10 12 13 10 6 7 10 13 15 15
26 30 29 29 32 33 23 13 8 8 6 6 15 13 4 1 1 2 2 2 5 2 2 3 3 4 4 4 2 3 3 4 6 2 2 3 5 12 10 10 12 12 12 12 13 12 13 15 14 15 14 13 16 21
24 24 25 27 24 18 14 14 14 13 8 6 3 3 1 1 1 3 4 2 2 4 4 3 3 2 2 1 2 1 4 2 3 3 3 5 11 10 9 8 12 12 12 12 14 15 18 18 22 20 14 21 25 25
27 27 25 20 14 9 9 11 12 8 8 3 3 5 4 4 5 5 5 4 2 2 4 3 2 2 1 2 3 3 2 1 4 3 4 6 11 9 8 8 10 12 13 14 14 14 15 16 17 23 23 23 25 23
27 24 21 16 10 8 8 13 12 10 6 6 6 6 6 4 6 6 6 3 3 4 3 1 1 2 3 3 4 3 4 6 7 4 3 8 10 10 11 12 12 12 12 13 14 14 16 22 22 24 26 27 28 28
16 13 11 10 11 12 14 12 15 8 4 4 7 5 9 5 8 7 7 5 6 6 3 1 1 3 6 4 5 9 4 6 4 4 6 8 11 11 11 12 12 13 15 17 21 23 24 24 24 26 29 28 27 26
5 3 8 9 15 10 8 5 7 6 5 5 4 7 7 4 7 7 7 6 6 4 3 3 6 7 3 4 4 5 4 5 6 6 7 10 12 12 12 13 15 18 19 21 23 24 24 24 25 25 20 22 24 24
4 9 10 11 5 6 12 7 5 5 7 5 3 6 6 6 8 6 6 8 5 2 3 4 4 7 6 5 3 4 5 7 7 7 8 10 11 16 18 14 20 22 23 24 23 23 21 20 19 17 18 17 18 18
13 10 6 4 3 3 3 5 5 5 4 2 5 4 3 5 8 8 6 7 8 7 4 4 7 4 4 4 5 6 6 6 7 7 9 17 17 16 17 20 22 22 23 22 22 20 22 25 22 19 18 18 17 15
14 8 5 5 5 3 4 3 4 4 3 3 4 8 9 9 8 11 12 9 7 4 6 5 5 6 5 6 6 7 6 6 7 8 9 9 16 19 20 18 17 18 20 22 23 20 19 20 21 21 21 19 17 16
11 6 7 6 5 10 4 3 4 3 4 3 5 6 6 8 12 13 12 10 11 5 6 7 7 8 13 14 15 15 16 16 9 8 8 8 15 16 17 19 19 19 18 17 16 17 19 17 16 16 16 17 17 16
4 6 5 7 3 4 5 10 4 3 3 4 5 5 4 7 8 8 9 9 7 8 8 9 8 9 10 12 15 18 18 19 18 17 17 16 8 11 14 16 16 15 16 16 16 15 16 15 15 15 16 13 14 15
4 4 4 5 4 5 2 3 3 3 3 3 2 4 4 4 4 4 4 6 5 8 12 12 15 17 16 18 20 20 19 18 15 15 16 15 16 16 16 17 16 14 13 15 14 14 14 13 14 14 14 13 12 11
6 5 5 4 5 4 2 4 3 3 3 4 3 4 4 3 3 4 5 4 5 9 7 8 9 8 13 15 10 15 14 14 15 16 14 13 12 14 14 15 15 15 14 12 12 13 13 13 13 12 13 13 13 11
4 7 4 6 3 4 4 3 3 4 4 5 3 4 3 3 3 4 4 3 5 5 5 9 10 10 7 7 11 13 14 13 12 12 15 14 11 8 11 13 14 15 13 12 12 11 11 11 11 10 9 10 10 9
6 8 5 4 3 3 3 3 3 4 3 3 4 2 2 3 4 4 3 5 6 5 6 6 5 6 7 11 8 10 11 9 10 12 12 12 12 10 8 8 8 12 12 10 9 10 9 9 8 8 8 8 9 9
5 5 5 4 4 5 5 5 5 5 5 4 3 2 2 4 4 3 4 7 5 7 8 10 10 11 10 10 10 10 10 12 11 10 10 11 12 12 11 9 8 5 8 8 8 8 8 8 8 8 8 8 8 8
5 5 5 4 7 6 4 4 4 4 4 3 2 4 3 4 3 3 3 9 9 9 9 10 12 12 12 10 8 7 6 4 6 5 7 9 10 10 9 6 8 7 6 7 7 7 8 7 8 8 8 8 7 7
4 4 4 6 6 7 8 5 4 4 5 3 2 3 3 3 4 10 10 9 8 8 9 9 8 8 8 8 9 8 8 8 6 3 3 3 3 8 7 6 6 7 6 6 6 7 7 7 6 6 6 7 8 8
3 2 4 7 5 6 5 5 6 4 6 7 6 9 9 8 9 8 7 5 6 9 8 7 4 4 4 4 6 6 7 7 7 7 5 4 5 4 5 6 7 7 7 7 7 7 6 8 7 5 6 7 8 9
3 3 5 5 5 6 6 8 11 12 8 8 8 8 7 4 4 7 7 7 7 6 7 6 5 4 3 3 5 2 6 5 5 4 4 3 3 3 5 6 6 7 7 7 8 7 8 9 9 9 9 10 11 10
4 4 5 5 4 3 4 2 3 4 3 5 5 4 4 4 3 4 4 3 3 5 5 3 4 6 5 4 4 4 4 3 2 3 2 2 3 4 5 5 6 7 7 8 8 8 8 9 10 11 12 13 14 14
7 8 8 5 4 4 2 2 3 3 3 2 3 3 4 4 3 3 3 1 4 6 6 5 6 5 5 4 3 2 3 1 3 3 3 3 4 7 6 5 6 7 7 8 8 9 10 10 11 12 14 15 16 16

GFSWCAN_925_spd_057.txt.gz
Wind_Speed
24 27 31 34 33 28 28 28 29 31 33 36 41 45 50 54 53 48 34 34 20 2 7 9 6 2 11 13 11 7 6 7 4 7 5 4 5 9 5 6 6 6 4 1 0 3 5 6 7 6 4 8 6 8
25 28 29 25 22 23 23 25 28 31 32 33 39 41 45 51 53 51 14 35 31 7 3 4 5 14 14 3 4 6 6 5 5 3 3 4 3 4 8 9 6 5 7 6 7 5 4 8 4 2 8 12 8 6
26 24 21 16 15 15 17 19 19 22 25 34 37 41 45 48 50 51 21 32 24 7 2 3 4 12 10 2 9 2 2 4 4 4 1 1 2 4 5 11 7 5 7 4 4 6 9 15 3 2 4 9 13 11
18 20 16 11 9 10 9 10 14 14 11 30 26 31 49 50 48 47 23 33 28 3 2 1 5 12 18 12 8 8 11 14 5 4 3 2 2 6 10 5 6 5 7 7 2 3 11 15 5 4 6 11 18 15
16 14 12 3 6 7 8 10 2 13 20 23 25 31 41 48 51 40 25 40 22 4 4 3 5 10 14 11 10 13 11 5 3 2 0 3 4 9 4 1 4 4 7 4 5 10 8 10 5 7 6 7 10 21
13 14 9 11 12 15 16 22 26 23 25 28 24 36 42 46 46 37 4 15 17 9 3 2 2 6 18 13 13 11 6 2 3 3 2 2 5 5 3 4 5 5 2 2 4 3 5 4 8 6 3 2 2 7
18 12 17 16 18 22 27 29 34 32 37 39 40 41 43 38 23 3 4 14 15 12 3 2 1 1 7 4 2 1 2 2 2 3 3 2 3 2 3 1 14 17 15 13 15 7 6 8 4 4 4 5 6 6
23 19 22 23 24 27 30 33 44 47 47 47 40 38 39 28 20 9 25 32 18 5 2 3 2 1 3 2 1 2 3 3 3 1 2 3 2 3 1 10 15 15 16 15 16 8 4 4 7 7 5 6 8 8
23 20 24 23 29 30 33 36 36 37 37 37 33 29 15 11 4 6 19 15 6 4 1 2 3 3 6 2 1 1 4 2 2 3 2 1 1 4 8 12 13 15 13 14 13 10 9 9 7 6 7 7 8 10
31 37 38 39 41 43 42 44 44 32 25 25 17 5 4 5 23 19 9 3 2 2 1 1 2 2 3 2 1 1 1 3 4 5 3 2 3 2 10 10 9 11 13 13 9 10 10 10 9 13 13 11 11 11
33 36 39 39 38 35 32 25 19 15 9 4 3 3 8 4 4 3 2 2 2 0 1 2 3 3 0 2 3 2 2 1 2 3 4 3 2 8 10 10 11 11 10 10 9 9 10 10 9 10 13 14 13 13
31 33 34 32 25 15 13 14 3 1 4 9 15 8 3 3 3 4 3 1 1 1 2 1 2 1 2 2 2 2 3 2 3 2 4 3 3 9 9 10 11 10 10 11 12 13 13 15 13 13 13 13 16 20
27 28 21 16 18 20 21 21 17 21 14 5 5 3 1 3 5 4 2 2 2 4 4 4 2 2 0 2 2 2 3 2 2 4 3 3 7 7 8 8 11 11 11 12 13 17 21 20 23 21 14 20 23 24
20 16 11 13 15 18 20 17 15 7 7 4 3 6 4 4 4 4 4 3 2 2 5 3 2 1 1 1 2 3 3 3 5 4 3 4 8 9 9 10 9 11 11 13 13 16 16 19 20 25 24 23 25 23
18 15 13 16 14 17 19 17 15 12 7 5 5 5 5 4 3 3 3 3 2 4 4 2 1 2 4 3 4 4 4 5 5 3 2 5 8 10 10 9 9 11 11 13 15 14 18 21 22 24 26 27 28 27
8 9 16 12 8 13 12 13 19 8 4 4 7 4 6 2 5 4 4 3 3 4 3 2 3 3 5 3 5 7 4 5 3 3 4 6 11 10 9 11 11 14 15 16 19 21 23 24 23 24 28 28 27 27
7 4 7 16 19 19 9 7 8 6 4 4 3 4 4 2 4 4 2 4 3 2 3 3 5 5 3 4 4 5 4 4 5 5 6 10 11 10 11 12 15 16 17 19 21 23 22 22 24 24 19 22 25 25
5 5 6 5 6 5 11 8 4 5 6 3 3 5 4 4 6 5 5 7 4 2 2 4 3 6 5 4 3 4 5 7 7 7 7 9 11 17 18 15 19 21 21 23 25 25 22 20 18 16 18 19 21 21
11 7 3 6 8 4 3 5 5 4 5 2 3 6 4 4 8 7 6 6 7 6 3 3 6 4 4 3 5 6 7 6 7 7 9 19 19 17 18 21 24 24 24 23 23 21 23 25 22 21 20 21 19 17
5 5 5 7 5 3 4 3 5 4 3 3 3 8 9 8 7 9 11 8 7 4 7 6 4 4 4 6 6 6 6 6 6 8 8 9 18 21 21 19 18 19 20 21 23 22 20 21 22 22 23 22 20 19
2 5 6 6 6 9 4 3 3 3 5 2 2 2 4 7 13 14 13 9 9 4 6 6 8 8 14 16 17 18 17 16 8 7 7 7 13 15 16 17 18 18 18 17 16 18 20 18 18 18 24 23 22 21
2 5 4 4 4 4 4 8 4 3 3 4 2 3 3 3 4 7 8 9 6 8 6 8 8 8 9 10 14 19 19 20 19 18 17 16 6 11 13 15 15 15 16 16 17 17 17 21 19 21 21 16 18 18
4 5 4 5 5 5 2 4 4 3 3 2 3 4 3 3 3 3 4 6 4 6 11 11 14 17 16 18 19 19 18 16 14 14 16 16 17 18 18 19 19 15 13 16 17 16 18 15 16 15 14 18 16 16
4 5 4 3 4 3 2 4 2 3 3 3 3 4 3 2 3 4 4 2 3 8 4 9 12 8 13 14 9 13 15 16 16 18 12 14 12 14 17 17 19 20 17 14 16 16 14 15 14 13 13 13 16 16
6 7 4 5 3 5 4 3 4 4 4 4 4 4 2 3 3 3 2 2 3 3 3 11 10 9 6 4 11 15 16 15 13 11 17 18 12 14 15 16 18 17 16 17 15 14 14 12 14 12 11 13 14 14
7 5 4 3 3 4 2 3 3 3 3 3 3 1 3 3 4 4 2 3 2 3 5 3 5 6 6 12 7 10 12 12 15 14 14 15 15 14 12 9 9 12 11 12 14 13 13 12 12 11 13 10 10 10
4 4 3 4 2 3 4 4 4 4 5 3 2 3 3 4 3 2 3 5 2 11 14 14 13 13 11 12 12 9 11 11 13 13 11 13 14 13 12 11 9 6 8 7 7 11 10 11 11 9 7 9 9 7
4 4 4 4 5 6 4 4 4 4 3 4 3 5 3 2 2 2 2 11 15 14 15 16 17 18 17 16 13 10 7 8 12 13 15 15 13 12 11 10 9 7 7 7 9 8 8 5 6 7 6 6 8 9
4 2 4 6 5 6 7 5 3 2 4 2 3 3 2 2 3 7 13 14 13 14 14 13 12 11 11 9 9 8 7 9 7 3 2 3 7 9 7 7 7 7 6 6 6 7 8 8 8 9 7 6 8 7
2 2 4 5 5 5 4 3 4 2 3 5 4 5 4 4 11 10 8 7 11 12 11 9 9 8 9 12 11 9 10 8 8 10 5 4 5 4 4 6 5 6 5 6 6 6 8 11 6 10 9 8 8 12
3 3 4 4 4 2 2 4 13 13 5 5 5 4 3 3 6 12 11 10 10 10 9 9 8 6 7 9 8 10 5 6 5 6 7 6 3 2 3 4 6 7 6 7 8 6 9 9 9 10 11 13 12 12
3 4 4 5 3 2 2 2 2 3 2 2 1 2 1 2 2 2 3 3 2 8 7 9 12 9 4 4 6 6 6 5 3 2 3 3 1 3 5 1 4 4 6 6 6 8 9 10 11 10 10 14 15 16
5 6 4 4 3 4 2 3 2 2 3 2 2 1 2 2 3 2 4 3 7 13 12 11 8 5 8 6 4 4 3 3 3 2 2 2 3 4 5 5 6 7 6 5 4 7 10 11 10 10 12 14 15 16

GFSWCAN_925_spd_060.txt.gz
Wind_Speed
29 29 28 28 30 32 33 33 35 35 36 37 40 42 44 45 43 41 29 35 20 3 5 5 7 6 9 12 9 3 3 2 4 7 4 5 4 7 2 5 8 7 6 4 2 2 8 4 7 3 2 5 7 8
25 27 31 30 29 29 27 25 27 28 30 31 34 37 41 46 50 44 15 32 28 3 2 3 23 14 11 8 8 6 5 5 5 4 4 3 2 0 6 7 3 2 6 6 7 8 15 5 2 1 3 4 4 4
30 27 23 26 22 18 19 21 24 27 28 31 32 33 36 42 48 50 27 31 20 4 1 2 8 8 11 12 7 5 2 4 4 3 4 4 4 5 6 5 5 5 4 4 3 8 14 7 4 10 11 7 5 2
27 21 22 18 12 14 18 19 21 21 25 29 34 35 37 40 46 49 27 30 25 4 2 4 18 13 10 7 9 6 2 3 4 2 3 3 3 3 4 3 5 8 7 8 5 5 5 4 5 6 9 6 4 2
15 18 7 7 10 11 13 18 19 15 19 29 36 34 36 39 40 37 25 35 31 8 6 3 6 22 21 23 23 23 7 3 2 0 1 3 3 2 0 2 2 5 4 3 7 7 5 6 7 6 7 4 3 3
15 5 7 10 10 11 8 9 14 10 11 19 30 39 38 40 41 28 5 27 33 7 3 3 3 5 9 14 8 5 4 3 3 3 2 3 4 4 4 4 5 9 11 10 5 15 7 4 6 8 3 4 5 6
15 12 13 16 23 20 22 20 24 17 17 21 25 37 45 44 30 3 5 17 34 20 0 1 2 2 12 5 1 2 3 2 2 1 5 4 2 2 1 3 9 9 13 11 14 9 6 9 4 6 5 6 6 7
14 17 20 24 35 33 38 35 31 34 40 40 41 45 49 36 15 6 14 40 39 7 2 3 1 3 3 3 2 2 3 3 4 3 2 3 2 2 2 10 12 12 14 8 16 12 6 6 5 7 6 6 11 12
18 21 23 26 28 36 38 42 44 44 47 40 44 42 24 5 3 7 26 26 13 3 3 3 4 3 1 2 2 1 2 1 1 2 1 3 3 4 8 10 10 11 10 12 11 7 11 12 10 12 10 12 11 10
35 28 29 28 26 25 22 23 23 22 19 14 11 5 4 4 7 14 9 4 4 4 3 2 0 3 3 1 1 1 2 2 3 4 3 4 3 2 10 9 9 11 11 11 7 9 9 11 11 12 12 9 11 11
40 36 30 26 22 18 14 11 10 7 11 6 3 3 3 6 4 3 3 2 1 3 2 1 2 3 1 3 2 2 2 2 3 2 3 3 2 5 7 9 10 11 10 9 9 10 10 10 8 7 10 12 12 13
24 23 23 23 23 21 19 10 10 15 10 11 14 8 5 3 3 5 2 2 2 2 2 2 2 2 2 1 2 1 3 1 2 2 4 3 4 7 8 10 12 11 12 13 14 13 14 15 13 11 12 12 15 20
15 17 19 21 22 20 16 19 19 13 8 5 5 4 3 4 8 5 2 3 3 3 4 3 2 1 2 1 2 2 3 2 2 4 3 2 5 7 8 7 11 12 13 14 15 19 21 20 22 18 13 19 22 23
12 15 16 19 20 18 16 12 2 3 8 4 4 6 4 5 4 3 2 2 2 2 4 2 1 1 1 1 1 3 4 4 4 3 3 4 7 6 8 9 10 12 12 13 14 17 17 19 19 23 23 22 24 23
16 16 18 19 18 15 15 12 16 12 7 5 5 5 5 2 2 2 3 2 3 2 2 2 0 3 4 3 4 4 4 5 4 2 2 3 7 9 10 10 10 10 10 11 15 14 18 20 21 23 24 25 26 25
10 6 19 21 23 14 8 14 19 8 4 4 6 4 4 3 4 4 3 3 3 4 1 1 3 3 5 3 4 6 4 4 2 2 3 6 10 10 9 10 10 13 15 16 19 21 22 22 22 23 26 27 26 26
9 5 10 17 14 24 10 7 8 6 5 5 3 5 5 2 3 3 3 4 3 2 2 3 5 3 2 3 4 4 3 3 5 6 6 10 11 10 11 13 18 20 20 20 21 22 22 21 22 23 20 23 26 26
4 4 9 16 12 7 13 9 4 5 6 3 3 6 3 3 4 3 5 6 3 2 2 3 3 6 4 3 3 3 5 7 7 7 8 9 12 17 17 15 19 21 21 22 23 23 22 20 18 16 18 19 21 22
3 7 8 11 10 5 4 5 6 5 6 3 5 6 4 4 7 6 5 6 5 5 3 3 5 3 3 3 8 6 6 6 7 7 9 16 17 16 17 20 22 22 22 21 20 18 19 21 18 17 17 17 18 17
3 7 6 10 5 4 5 3 6 5 2 3 4 8 8 6 8 10 10 8 8 4 6 5 4 3 2 5 6 6 5 6 7 8 7 7 15 19 18 16 15 16 17 18 20 18 18 20 20 20 21 19 18 17
6 9 7 7 6 10 4 3 4 3 4 3 4 4 6 10 13 13 12 7 7 4 5 5 6 7 13 15 15 15 13 11 6 6 7 7 13 15 15 16 17 17 16 15 14 16 17 15 14 20 22 22 21 21
5 5 3 6 4 4 4 7 4 4 3 3 3 2 3 3 4 8 8 9 5 6 4 5 5 7 9 10 14 18 18 20 19 18 17 15 6 9 11 12 13 13 14 14 15 15 16 17 18 16 19 19 18 17
2 4 4 6 6 5 2 3 4 3 3 2 3 3 3 3 2 2 3 4 3 5 11 11 16 17 16 19 20 19 17 16 13 13 14 15 16 17 18 17 15 14 11 13 16 16 15 15 15 17 17 17 16 15
4 5 4 3 4 2 3 4 3 3 4 3 3 3 3 2 2 3 3 2 2 7 6 9 11 7 12 15 8 12 12 16 16 15 13 14 12 13 16 16 18 16 13 14 14 16 15 12 13 14 15 16 16 15
6 7 5 5 4 5 5 4 4 4 4 4 4 4 2 3 3 3 2 2 2 3 3 10 11 9 6 4 9 12 12 15 13 11 13 12 15 14 13 15 17 15 13 14 14 14 15 13 11 13 13 11 12 12
6 4 4 1 3 4 1 3 3 3 3 3 2 1 3 3 4 3 2 1 1 2 1 4 6 5 5 8 5 8 10 10 15 14 12 11 9 12 10 8 8 10 11 8 9 12 12 11 11 10 9 8 8 7
5 3 3 4 2 4 4 4 4 4 4 3 1 3 4 4 1 1 2 2 2 7 14 14 14 12 9 11 14 12 10 10 14 16 15 15 14 11 9 10 9 7 8 5 5 6 6 6 6 5 4 5 6 7
3 4 5 5 5 5 4 4 4 3 2 3 3 4 4 5 2 1 2 14 18 17 18 17 17 17 16 13 10 11 13 12 15 16 17 14 12 11 10 9 7 5 4 4 6 8 6 3 4 6 4 2 4 5
4 2 4 6 5 5 5 3 2 2 2 1 4 2 2 2 1 6 14 17 14 16 18 18 17 16 15 12 9 8 7 16 14 3 2 2 3 5 5 3 3 3 2 2 3 4 2 6 5 5 4 5 6 5
2 2 4 4 5 5 4 3 1 2 3 4 4 5 4 5 8 12 16 15 14 13 13 13 13 10 12 10 11 10 9 6 3 6 5 4 6 5 1 2 3 3 1 3 5 3 2 5 5 4 4 6 6 7
3 3 5 4 4 1 2 2 14 12 4 4 4 4 3 2 7 11 12 13 14 15 14 14 10 9 12 10 7 7 4 4 5 5 6 6 6 4 1 2 2 2 3 4 4 3 4 5 6 7 7 8 10 11
3 4 4 5 2 2 2 2 2 3 2 3 2 3 3 3 2 1 2 5 7 8 9 9 10 6 4 3 3 3 2 6 5 3 3 3 3 3 5 5 4 5 6 7 5 4 4 5 6 6 7 9 12 12
4 6 4 4 3 2 3 3 3 3 3 2 1 2 2 3 3 3 2 2 4 12 11 10 6 4 3 4 4 5 4 3 2 2 1 1 1 2 4 3 3 2 3 3 2 4 6 8 9 10 11 11 13 15

GFSWCAN_925_spd_063.txt.gz
Wind_Speed
28 29 29 27 27 28 27 27 29 30 30 31 31 32 34 34 32 29 10 35 17 3 2 3 4 3 12 13 8 6 5 3 3 6 4 4 3 5 6 5 7 7 7 4 2 3 8 4 6 7 13 13 5 6
28 29 30 33 30 31 30 29 29 33 33 34 35 33 33 33 36 35 6 28 25 2 1 6 17 18 11 7 12 9 7 6 5 4 2 3 3 0 4 4 4 6 7 5 9 6 3 6 6 11 11 14 16 6
29 32 31 25 24 25 26 25 23 25 27 30 32 34 37 37 37 38 17 26 17 3 2 1 5 9 14 20 20 4 3 4 4 3 4 3 4 4 4 5 5 5 3 4 2 5 14 14 7 11 16 13 11 10
24 22 20 16 11 14 16 20 23 24 25 28 29 31 33 37 41 42 25 31 20 2 2 4 13 9 17 9 17 11 4 2 4 2 2 3 3 2 4 5 7 6 5 9 14 9 10 8 10 15 11 11 12 9
26 16 10 14 14 14 15 18 21 27 26 29 31 31 32 34 37 36 31 28 33 6 4 3 4 14 22 17 14 15 6 2 1 2 2 3 2 3 3 3 2 3 1 2 4 3 3 11 9 7 5 2 6 4
14 10 12 12 12 10 4 2 5 11 25 28 30 34 34 32 35 23 4 23 35 18 1 1 2 6 21 17 14 6 4 3 3 2 3 3 4 2 3 7 3 2 4 1 3 14 14 18 9 9 5 7 9 9
13 18 20 19 16 12 10 10 9 7 11 28 35 32 36 35 37 6 5 19 40 23 1 2 2 1 12 6 2 2 3 3 3 3 3 2 2 5 2 2 4 7 9 10 7 11 3 7 6 11 8 10 9 9
18 22 27 28 28 26 24 18 12 13 24 38 37 34 36 34 21 4 3 45 36 6 1 2 2 3 4 3 3 2 2 2 2 3 2 2 1 1 2 6 9 9 10 4 13 8 7 5 10 14 12 11 14 13
19 19 19 27 27 36 35 33 38 40 49 48 48 39 21 6 3 3 31 36 19 5 1 1 3 3 3 2 3 1 3 1 2 3 3 4 1 4 5 7 9 10 9 11 13 5 7 10 10 11 12 12 12 11
20 19 20 21 23 25 28 29 33 35 41 37 20 4 2 5 32 29 7 2 1 3 2 1 1 3 2 1 0 3 2 2 2 3 4 3 3 5 7 7 7 9 9 10 9 5 9 9 8 11 12 10 10 9
24 20 19 20 13 12 9 11 16 20 19 1 2 3 17 16 4 2 4 4 3 2 2 1 2 3 1 3 2 2 2 3 4 3 3 2 2 2 6 8 9 9 8 9 8 8 10 10 8 8 11 11 11 14
23 24 24 22 22 24 22 21 12 12 5 10 12 8 5 3 3 5 2 2 3 2 2 2 2 2 1 1 2 2 2 2 2 3 3 3 2 7 8 9 10 9 9 10 11 11 12 12 13 12 12 13 16 19
20 22 23 23 20 17 13 15 21 22 11 6 6 5 4 5 10 5 3 3 3 3 4 3 2 1 2 2 1 1 2 2 3 4 3 3 5 6 7 7 10 10 12 11 13 17 20 20 20 18 15 19 21 23
19 20 22 21 19 19 18 12 7 6 10 4 5 7 4 5 4 3 2 2 2 2 3 2 1 2 1 2 2 3 3 4 4 3 2 2 4 6 6 7 9 11 11 13 12 15 17 18 20 23 23 22 24 24
14 21 25 27 18 15 17 15 18 14 7 5 5 5 4 2 2 2 3 1 2 3 2 1 3 3 4 3 4 4 4 4 3 1 2 3 7 8 9 9 9 10 10 11 15 14 18 21 22 24 25 26 27 27
9 6 23 21 22 8 5 15 22 8 4 4 6 4 3 3 4 4 3 2 3 4 1 2 3 4 5 3 4 5 3 3 2 2 3 6 10 10 10 9 9 12 14 16 19 21 21 21 20 22 25 27 28 27
7 6 17 20 16 17 8 7 8 6 4 4 3 4 2 1 2 3 3 4 3 2 3 3 5 3 2 3 4 4 3 4 5 5 5 8 9 8 8 10 13 15 17 19 20 20 19 19 20 22 20 22 25 26
6 10 13 15 7 7 17 9 5 5 7 4 3 5 3 2 3 3 4 5 2 2 2 4 3 6 4 3 2 2 4 5 6 6 6 7 9 13 14 13 16 18 18 18 19 19 19 18 17 16 18 19 21 21
8 12 11 11 7 5 4 6 6 5 6 2 3 4 2 1 5 3 3 4 6 5 4 3 5 3 2 2 6 5 4 4 5 5 7 14 15 14 15 17 19 19 19 18 18 16 16 17 16 16 16 17 17 16
7 10 12 12 5 4 5 3 6 5 3 2 1 7 4 4 4 4 7 7 5 4 6 5 3 2 2 5 4 6 5 5 5 7 6 7 13 16 16 14 13 14 15 16 17 15 16 18 20 21 21 21 20 18
7 11 10 8 7 11 4 3 4 3 4 3 5 5 5 7 10 7 6 6 6 4 4 3 5 6 13 14 14 14 12 11 6 5 5 5 11 13 14 14 14 15 14 13 13 15 18 15 16 20 22 22 20 19
7 7 5 7 5 5 4 8 4 4 3 2 2 3 3 3 4 6 4 6 4 4 3 4 6 7 9 10 13 15 16 18 16 16 15 12 5 8 10 12 13 12 14 14 17 17 15 13 15 16 17 17 16 16
4 4 5 7 6 5 0 1 4 3 3 2 3 4 3 3 2 3 3 4 3 5 9 10 16 19 16 16 17 17 15 16 13 13 14 14 14 16 16 16 15 15 11 12 14 16 15 12 12 14 13 13 14 15
5 5 4 4 4 2 2 4 3 3 4 3 3 3 3 2 2 4 3 2 2 5 6 8 10 6 10 13 8 10 11 15 15 14 14 14 12 11 13 13 13 12 11 11 11 11 12 12 11 12 11 11 10 10
6 7 4 5 3 5 5 4 4 4 3 2 3 2 1 2 3 3 2 1 1 2 2 8 10 8 4 2 6 9 8 11 11 10 9 13 15 13 12 13 12 9 7 9 11 10 10 10 10 10 9 9 8 8
6 4 4 1 3 4 1 3 2 3 3 3 2 2 3 3 4 3 2 2 1 1 2 5 6 4 3 5 4 6 7 10 13 11 6 5 6 10 9 7 5 6 7 5 6 8 8 7 6 6 6 5 5 4
5 4 3 4 2 4 4 4 3 4 4 3 1 3 3 4 1 1 2 2 2 3 9 11 12 10 9 10 11 9 7 7 11 15 13 12 9 6 4 9 9 6 5 4 4 3 3 3 3 2 2 3 2 3
3 4 4 5 5 4 4 4 4 3 1 2 3 4 4 5 2 1 2 10 17 17 16 15 16 18 17 15 15 16 16 16 17 16 15 12 10 8 7 6 5 3 3 3 4 6 5 3 2 3 2 1 2 3
3 2 4 6 5 5 5 3 2 2 3 2 4 2 2 2 1 4 10 16 17 19 19 19 17 15 14 11 8 8 13 12 12 3 2 1 2 3 3 2 1 1 1 0 0 2 1 3 3 3 3 4 5 5
2 2 4 4 5 5 3 2 1 2 3 3 3 4 3 5 8 13 16 13 13 15 16 16 16 12 14 11 11 8 6 9 13 10 4 5 6 6 3 1 1 1 0 2 3 3 4 3 2 3 3 4 5 7
2 3 4 4 4 2 3 1 7 9 4 4 4 4 3 2 6 8 8 9 11 13 14 13 9 7 7 7 4 5 3 2 3 3 3 4 6 4 1 2 3 3 4 5 5 5 4 4 5 5 6 6 8 10
3 4 4 5 2 1 2 2 2 3 3 3 3 2 4 3 2 3 3 7 10 10 9 10 9 6 4 2 2 1 2 5 4 3 3 2 1 2 4 4 4 6 7 7 6 6 6 6 6 7 8 10 11 11
4 4 4 4 3 1 3 4 4 3 4 3 2 1 1 4 3 3 2 2 5 7 8 7 5 6 6 6 5 6 6 5 4 3 2 1 1 3 5 4 3 3 4 4 3 4 6 8 9 9 9 10 11 12

GFSWCAN_925_spd_066.txt.gz
Wind_Speed
34 31 29 29 31 31 31 31 28 28 28 27 25 24 25 31 45 40 28 34 20 2 2 10 11 6 7 11 7 6 4 3 2 6 3 3 3 5 5 5 4 5 6 4 3 3 8 6 3 1 6 5 7 5
33 30 31 32 34 34 33 32 31 31 29 29 28 28 29 28 26 35 3 33 31 3 1 7 5 13 11 17 6 11 8 6 6 4 3 3 3 1 5 3 4 4 6 5 8 7 5 5 7 6 7 7 7 4
33 34 32 26 25 26 27 28 27 29 30 29 32 33 30 31 31 28 10 25 19 3 1 2 5 19 16 10 8 4 3 5 5 5 4 4 4 4 4 5 4 3 3 4 2 7 12 9 7 7 7 14 11 8
31 31 23 21 21 20 19 18 26 26 28 30 31 35 34 31 33 33 18 24 11 4 2 3 11 9 27 16 16 14 6 2 2 2 3 3 3 4 3 3 4 4 5 6 10 11 8 11 4 8 15 13 13 12
22 16 15 17 19 20 20 20 21 22 24 23 25 29 32 33 31 34 21 25 15 3 3 3 3 17 24 25 15 15 11 7 1 2 2 3 2 2 2 2 3 2 3 3 9 4 4 8 9 16 12 12 13 7
12 14 17 20 15 11 6 7 12 22 26 27 27 27 29 32 37 23 2 17 28 11 3 1 3 4 20 24 15 8 8 7 4 4 2 2 4 4 2 2 5 5 5 6 5 11 11 14 5 10 9 10 12 13
14 19 22 28 15 10 4 2 2 8 21 33 30 31 30 32 26 4 4 9 32 16 2 2 2 3 12 6 3 2 2 2 3 3 4 2 2 4 2 3 5 6 7 10 6 11 5 5 5 8 9 9 12 12
11 22 23 26 28 28 1 9 6 12 23 29 33 31 30 32 13 5 5 29 33 7 1 1 2 3 8 4 3 3 3 3 1 2 2 3 2 2 1 5 7 9 12 8 8 11 9 6 6 11 9 8 16 13
15 21 21 24 34 38 27 22 20 30 30 36 38 38 28 6 2 6 22 34 12 4 3 1 2 2 3 2 2 2 2 2 2 3 3 4 2 2 3 6 8 9 8 12 13 13 6 5 8 12 8 10 13 11
18 18 19 20 28 34 37 42 47 44 43 42 28 5 3 4 36 35 7 2 2 1 0 1 2 2 3 2 2 3 2 3 3 3 4 3 2 5 6 6 7 9 10 9 9 5 8 7 8 10 12 11 10 11
23 21 16 19 23 19 23 28 35 28 19 6 3 3 19 18 7 2 3 3 2 2 2 2 2 3 1 3 3 2 3 3 3 2 2 2 2 3 6 8 8 8 8 9 7 7 8 7 7 8 10 11 11 14
23 23 22 20 18 18 17 20 15 10 9 11 16 9 5 5 3 4 3 2 1 2 2 1 2 2 1 1 3 2 1 2 3 2 3 2 2 5 6 8 9 9 9 11 12 10 11 11 12 10 11 11 16 18
23 22 21 22 22 21 25 20 15 16 9 7 4 4 4 4 9 4 2 2 2 4 4 3 2 2 2 3 2 1 3 3 2 3 3 2 4 6 7 7 9 9 13 11 13 16 20 19 19 18 14 19 20 21
24 24 24 20 22 18 12 10 12 7 9 4 5 7 4 5 4 2 2 1 2 2 4 2 2 3 2 3 3 3 3 3 3 3 2 2 4 6 6 7 9 9 10 11 11 15 16 18 19 22 23 21 23 22
9 24 23 26 10 19 17 18 17 13 7 5 5 5 4 2 2 2 3 1 3 3 2 1 3 3 4 3 3 3 4 4 3 1 1 3 6 6 7 8 8 8 8 9 12 13 16 18 20 21 23 23 23 22
5 7 24 22 12 7 8 17 23 8 4 4 6 4 3 2 5 4 4 2 3 4 1 3 3 3 4 3 4 5 3 3 1 2 3 4 7 7 8 9 9 12 12 13 16 18 19 19 19 21 24 25 25 24
9 6 13 14 24 17 10 9 9 7 5 4 3 3 1 1 2 3 3 4 3 2 3 3 5 4 3 3 3 4 2 2 3 4 5 7 7 7 8 10 13 14 15 16 17 18 18 18 19 20 18 20 23 23
7 12 10 6 3 10 18 9 5 5 7 4 3 3 2 1 2 3 3 4 2 2 2 3 3 5 4 3 1 1 3 5 6 6 6 7 9 13 14 12 15 15 15 15 16 16 16 16 16 15 17 16 18 17
9 12 10 6 5 6 4 5 6 5 5 1 2 2 1 2 2 3 4 4 5 5 4 3 5 3 2 2 3 3 3 2 4 5 7 14 14 14 14 15 15 16 16 16 15 14 15 17 16 15 14 15 14 14
6 13 13 8 3 4 5 3 7 5 3 2 2 4 2 2 4 3 6 6 4 3 6 5 3 2 2 3 4 4 4 4 5 6 6 6 12 14 14 12 12 12 13 14 16 16 16 18 20 18 18 18 19 16
6 11 11 8 6 12 4 3 4 3 4 3 3 2 3 5 7 6 6 6 6 4 4 4 4 6 12 13 12 12 11 10 5 3 3 4 10 12 13 14 14 16 14 13 12 14 17 14 15 17 19 19 17 16
7 7 5 7 5 5 4 7 5 4 3 3 2 3 3 3 3 5 3 7 4 4 3 3 5 6 8 9 12 14 13 17 15 15 14 10 4 6 9 11 12 12 14 14 14 13 13 12 13 15 16 16 15 15
4 5 5 7 6 5 1 1 4 2 4 2 2 3 3 3 2 2 3 3 3 5 6 7 11 15 14 15 16 15 13 14 12 11 12 13 15 15 15 14 13 14 12 10 11 11 10 9 10 12 12 12 12 13
6 5 5 4 5 2 2 4 3 3 3 3 3 3 3 1 1 3 3 2 1 3 4 7 8 5 8 11 6 10 10 15 14 14 13 13 10 9 11 11 10 9 9 9 9 10 10 9 8 8 7 7 7 7
6 7 5 5 4 5 5 4 4 4 4 3 4 3 2 2 3 3 2 1 1 1 1 6 8 6 3 2 5 8 8 10 10 8 7 9 13 11 10 9 8 7 5 6 8 7 9 7 7 7 7 6 5 4
7 4 4 2 3 4 1 3 2 3 3 3 3 2 3 3 4 2 1 2 1 1 2 3 4 3 3 5 3 4 5 7 9 8 4 3 3 5 7 5 3 4 5 4 3 4 4 3 3 3 3 3 2 2
5 4 3 4 2 4 4 3 3 5 4 2 1 3 3 4 1 1 1 2 2 3 6 7 7 8 8 9 8 7 5 4 5 10 9 8 5 4 2 5 5 4 4 3 2 1 1 2 1 1 2 1 1 2
3 4 4 4 5 4 4 3 3 2 1 2 3 4 4 5 3 1 1 4 15 15 13 12 12 14 14 12 13 14 15 15 15 14 13 11 9 8 7 6 4 3 2 2 3 4 3 1 1 3 3 3 4 5
4 2 4 6 5 5 5 3 2 2 3 2 3 2 2 2 1 2 6 13 15 17 18 17 14 14 14 12 8 6 11 11 8 4 2 2 2 2 3 2 1 1 1 2 2 4 2 3 4 5 5 5 6 6
2 2 4 4 5 5 3 1 1 2 3 3 3 3 3 4 7 10 12 11 11 13 14 14 15 10 10 8 8 7 8 10 10 7 3 4 4 6 3 0 2 3 2 3 4 5 5 6 6 6 6 6 7 8
2 3 4 4 4 1 3 2 3 8 4 4 4 4 2 1 5 6 5 8 11 13 14 12 8 8 5 7 4 5 2 2 2 3 3 4 6 4 1 2 4 3 4 5 6 6 6 6 7 8 8 9 10 12
3 3 4 5 2 2 2 3 2 3 3 3 3 2 4 3 2 3 3 8 10 10 8 8 7 5 4 2 2 1 1 5 5 5 5 3 1 1 3 3 4 5 6 6 5 4 5 6 7 9 10 11 12 12
3 3 4 4 3 1 2 4 4 2 4 3 2 1 1 3 3 3 2 3 6 4 5 6 5 5 5 6 6 6 6 5 5 4 3 2 2 3 4 3 3 3 5 5 4 5 7 8 9 9 9 11 12 13

GFSWCAN_925_spd_069.txt.gz
Wind_Speed
38 40 35 34 32 30 28 27 29 29 28 28 29 25 34 37 41 41 31 32 27 2 5 8 11 10 5 9 6 6 5 4 4 6 4 4 3 4 4 3 6 8 7 4 4 5 9 4 2 2 6 8 6 10
38 37 38 36 35 33 35 29 33 33 32 29 27 27 25 32 38 43 15 33 37 6 1 12 15 18 29 23 10 10 6 5 6 4 4 3 3 2 6 4 2 4 6 5 8 6 2 1 3 6 9 12 14 14
36 40 33 32 29 34 32 28 26 28 32 28 29 27 26 24 28 42 19 32 26 3 2 4 5 11 20 23 16 5 5 5 4 3 3 3 4 5 5 5 5 4 4 4 4 3 12 15 5 8 11 12 15 16
35 33 28 22 22 19 21 22 23 21 27 27 29 29 28 28 27 19 20 32 15 3 3 3 10 8 17 15 18 13 0 3 4 2 1 2 3 4 4 1 5 4 3 5 10 11 11 11 9 15 16 13 14 14
29 15 16 22 23 21 19 20 21 21 24 28 28 27 33 29 29 25 18 18 18 4 2 2 5 15 19 23 15 11 7 5 3 3 3 3 1 3 1 1 3 3 4 4 7 2 4 7 12 12 12 13 12 11
14 18 17 19 18 18 15 14 18 21 21 21 26 28 35 31 30 19 3 23 16 10 3 3 1 3 17 21 20 7 4 1 2 2 3 3 3 2 3 3 3 3 3 4 3 8 8 9 6 8 7 10 10 10
15 13 19 28 20 16 12 8 9 16 24 23 23 23 35 35 33 5 4 15 27 10 2 1 2 3 17 9 3 5 5 3 3 3 2 1 1 3 3 5 3 4 8 8 7 7 4 4 3 6 6 6 6 9
11 18 25 30 24 11 8 13 8 14 26 27 26 27 29 34 21 3 4 25 32 4 1 2 2 3 9 4 4 4 4 3 4 3 4 3 3 2 2 6 6 7 10 4 10 9 9 11 4 7 7 5 6 10
14 20 22 27 33 23 11 14 13 18 35 33 33 41 29 7 3 4 31 30 13 3 4 2 3 3 5 3 3 2 1 2 1 4 3 3 2 2 4 5 6 7 7 11 12 10 7 7 8 9 9 8 6 11
17 18 18 21 28 38 36 28 30 35 45 42 22 4 3 7 39 25 7 3 2 1 1 1 1 1 3 2 3 3 2 3 3 3 3 3 2 7 8 7 7 8 9 10 10 8 10 7 7 8 8 8 8 8
16 17 16 18 19 28 32 34 39 36 24 6 3 3 27 22 5 2 3 3 3 2 2 1 2 4 1 3 2 0 2 3 4 2 3 2 2 3 6 8 8 8 8 8 7 6 7 8 8 8 9 10 10 12
17 20 16 14 19 20 24 18 15 17 12 11 15 9 6 5 3 3 2 2 2 2 2 1 2 3 2 3 2 3 2 3 2 2 3 2 2 6 7 8 9 8 9 10 11 10 12 12 14 12 11 12 16 19
18 21 20 18 18 12 12 16 21 16 12 9 6 4 3 4 7 4 2 2 2 4 4 3 3 2 1 3 3 1 2 3 2 3 2 2 4 5 6 6 8 10 11 12 12 16 16 18 20 19 16 17 21 22
19 20 18 18 16 14 13 14 7 6 8 4 4 6 4 4 3 3 2 1 2 2 4 2 3 3 2 3 2 4 2 3 3 2 2 2 5 5 6 6 8 9 10 12 12 14 15 17 18 20 20 19 21 22
14 22 17 11 14 15 14 12 9 10 6 4 4 5 4 2 2 2 2 1 3 4 2 2 3 3 4 4 3 2 3 4 3 2 2 3 6 6 7 8 9 10 10 11 14 14 16 18 20 21 22 22 22 22
4 6 21 9 6 7 7 15 17 6 4 4 7 4 3 2 4 3 4 3 4 4 1 2 3 4 5 3 4 4 2 2 2 2 3 5 8 8 8 9 9 13 14 15 16 17 18 18 19 20 22 22 22 22
6 4 6 16 19 13 8 8 8 6 5 5 3 2 1 2 1 3 3 4 4 2 3 3 5 4 3 3 3 3 2 2 4 5 5 7 8 7 7 10 13 14 16 16 17 17 17 17 17 19 19 18 19 20
6 7 4 1 4 9 8 10 4 5 7 4 3 3 2 1 2 2 4 4 2 2 2 3 3 4 3 2 2 2 3 5 6 6 6 6 9 11 12 12 13 14 14 15 15 15 14 14 15 14 15 14 15 15
9 10 6 8 6 7 4 5 5 4 4 1 1 1 1 1 1 3 4 5 6 6 4 3 5 3 3 3 5 6 4 3 5 5 7 13 13 13 13 14 14 15 15 14 12 12 14 15 13 12 11 12 13 11
8 17 12 7 5 4 5 3 5 4 3 2 2 4 2 2 4 3 7 6 5 3 6 5 4 2 2 4 4 5 6 6 6 7 6 6 10 12 12 10 10 10 12 12 13 12 13 14 13 12 12 12 12 11
5 7 10 15 7 10 4 3 4 3 5 3 2 1 2 3 4 5 5 6 5 4 4 4 4 6 11 12 11 11 9 7 3 3 4 4 7 9 10 10 11 11 11 10 11 11 13 12 10 13 15 15 14 12
5 5 3 4 4 4 4 7 5 4 3 4 3 3 3 2 3 4 2 7 4 4 3 3 5 6 7 8 10 11 11 13 13 14 12 9 4 6 8 7 10 11 11 9 10 10 10 9 11 13 14 14 14 13
3 4 5 7 6 5 2 1 4 3 4 2 2 3 3 2 2 2 3 4 3 5 6 7 10 13 13 12 13 13 11 12 12 12 12 13 12 11 11 10 9 9 9 8 7 8 9 9 9 10 10 9 10 10
6 6 5 4 5 3 2 4 3 3 3 3 3 3 3 2 1 3 4 2 2 4 5 7 9 7 9 10 7 10 10 12 14 12 9 10 9 8 8 8 9 9 7 7 8 9 8 7 6 5 5 5 5 5
6 7 5 6 4 5 5 4 4 4 3 2 3 3 2 1 3 3 2 2 1 1 2 4 6 6 4 4 6 7 7 7 9 9 5 7 9 8 7 6 6 6 5 5 7 7 7 7 6 5 4 4 3 2
7 4 4 2 2 4 2 3 2 3 3 3 2 1 2 3 4 3 1 2 1 2 2 3 4 4 4 4 4 4 5 7 7 7 4 3 3 3 4 3 2 3 4 4 3 3 3 3 3 2 2 1 1 0
5 4 3 4 2 4 4 3 3 4 4 3 1 2 3 5 1 0 1 1 1 4 7 6 5 7 8 8 9 8 7 5 6 9 8 7 5 3 2 2 3 3 3 2 1 0 1 1 0 1 2 2 2 3
3 4 4 4 5 4 4 3 4 3 2 2 3 4 4 4 2 1 1 4 13 14 14 13 13 13 12 12 13 14 14 14 14 13 11 9 8 7 7 6 5 4 2 2 2 3 2 1 1 3 4 4 5 5
4 2 3 6 5 5 6 3 2 2 3 2 3 2 2 2 2 2 4 11 13 15 17 16 14 14 14 11 6 7 11 10 3 3 2 2 2 2 3 2 2 1 0 0 1 3 3 2 3 5 5 5 5 6
2 2 4 4 5 5 2 2 1 2 3 2 2 3 3 3 7 9 10 10 9 11 12 13 13 7 7 4 6 6 5 6 6 4 2 2 3 5 4 2 0 1 0 1 2 3 3 5 7 7 7 7 7 8
2 3 4 4 4 2 1 2 1 4 3 4 4 4 3 2 5 8 6 7 11 13 14 11 7 7 5 5 2 2 1 1 1 1 1 3 6 4 1 2 3 3 3 4 5 5 5 5 5 6 7 8 9 11
3 3 4 5 2 2 2 2 2 3 3 3 3 2 3 3 2 3 2 6 9 9 7 6 3 1 3 2 0 1 1 4 3 3 4 3 1 2 3 3 4 4 4 4 4 3 4 5 7 8 9 9 9 10
3 3 4 4 3 1 2 4 4 2 4 3 3 0 1 3 4 2 3 4 5 2 4 6 5 5 5 6 6 6 5 4 3 3 2 1 2 3 3 2 2 3 4 5 5 5 6 8 8 9 10 10 11 12

GFSWCAN_925_spd_072.txt.gz
Wind_Speed
39 38 36 36 34 35 33 30 28 26 26 29 30 31 31 32 37 45 30 39 29 7 14 17 20 17 13 13 9 5 4 3 3 7 5 4 5 7 6 3 7 8 9 7 9 8 9 3 3 7 7 9 12 13
37 38 38 37 37 35 32 33 34 28 25 28 29 29 30 32 28 43 13 33 40 10 3 19 31 23 20 16 7 10 5 5 6 7 6 4 4 3 8 7 13 6 7 5 8 8 4 3 3 8 8 9 11 11
36 37 39 38 32 30 25 25 24 28 27 28 31 28 27 29 26 42 21 32 24 5 6 13 11 24 11 18 12 4 4 5 6 5 2 3 5 7 7 11 10 11 9 7 9 8 12 5 4 8 11 10 11 12
37 39 38 27 21 22 27 24 20 25 26 26 29 29 27 28 26 43 25 30 31 2 4 5 24 24 19 19 26 23 9 9 7 5 4 4 4 5 7 9 9 8 4 10 13 12 10 13 6 10 12 9 10 11
39 32 22 22 22 25 23 19 21 23 23 23 26 27 27 25 21 35 25 32 37 7 4 6 8 24 17 19 20 24 15 9 5 3 3 4 5 4 4 4 8 8 11 8 8 7 4 9 10 10 12 12 11 12
19 16 20 26 22 27 22 22 20 21 22 23 27 30 29 27 29 17 2 13 35 17 3 4 3 12 22 20 16 13 11 6 3 2 2 2 3 4 4 7 7 4 4 6 4 8 7 10 12 6 10 13 10 9
11 16 22 23 28 22 18 17 16 19 24 23 28 29 32 32 30 3 3 16 28 19 1 3 4 3 20 15 7 7 6 2 1 3 3 2 5 6 2 7 6 4 7 7 7 10 8 5 7 10 10 11 9 7
12 14 19 23 30 7 11 14 14 19 24 24 25 31 35 36 19 4 16 38 25 8 3 3 3 3 10 4 3 6 2 4 5 2 3 4 3 2 4 4 4 7 8 3 8 7 7 8 6 8 8 8 7 8
9 14 17 27 14 13 13 9 15 27 27 27 30 43 31 8 3 3 34 20 11 3 3 2 5 4 7 4 3 5 4 4 3 3 3 6 3 2 6 6 7 9 7 10 12 6 5 5 6 7 8 9 7 8
11 11 21 31 21 16 10 18 32 36 40 45 28 5 3 9 36 28 5 2 2 1 1 2 1 2 7 5 3 3 3 2 3 2 3 2 3 8 7 6 6 7 7 8 9 4 8 5 5 8 9 7 7 8
11 9 21 28 35 35 42 44 47 41 29 6 2 3 29 28 6 2 2 3 3 3 2 1 2 4 0 4 4 1 2 4 4 2 2 3 3 3 6 6 6 6 5 5 3 3 4 4 5 7 10 8 12 14
10 8 13 21 19 21 19 20 16 7 5 10 17 12 6 4 2 3 3 3 2 3 2 2 2 1 2 1 2 3 2 2 2 2 2 3 3 5 5 5 6 6 6 6 7 7 8 10 11 11 11 12 15 18
12 15 13 8 17 21 24 29 28 33 30 12 6 4 3 4 4 2 5 3 4 2 2 1 2 2 3 0 2 1 2 3 2 2 2 3 4 5 5 5 7 8 8 10 10 13 15 17 16 16 16 16 17 18
12 13 11 9 11 12 7 10 9 9 10 5 4 6 5 4 4 3 2 3 2 2 2 2 3 2 2 3 2 3 2 2 2 3 3 3 5 5 5 6 7 9 9 11 12 16 17 17 19 19 18 17 19 19
13 13 12 15 12 9 7 2 5 11 6 5 5 5 4 2 2 3 2 1 3 4 1 3 4 2 3 4 3 3 2 3 3 3 2 4 6 6 7 8 8 9 8 10 13 14 15 17 19 20 18 19 19 18
1 8 9 4 6 10 12 14 11 6 4 4 6 3 2 1 4 3 5 4 5 4 1 2 3 3 5 3 3 4 1 2 3 3 4 5 7 7 8 9 10 12 13 14 14 15 16 17 18 19 19 19 19 18
5 4 9 14 13 9 6 7 6 6 4 4 4 4 3 3 4 4 4 5 6 3 3 3 4 4 2 3 3 3 3 4 4 4 5 7 7 7 7 10 11 12 13 14 14 15 16 15 15 16 17 16 17 17
4 1 4 6 5 7 7 9 5 5 7 5 5 5 7 5 4 5 5 6 3 2 2 4 2 4 4 3 3 3 4 6 6 6 6 6 9 10 10 11 11 11 12 12 13 13 12 12 13 12 13 12 13 13
7 9 8 8 5 6 4 5 5 5 5 4 4 4 4 4 6 5 6 6 8 7 4 3 5 3 3 3 7 7 6 5 6 6 6 10 10 10 10 11 11 12 12 11 11 12 13 13 12 10 9 8 9 9
15 13 9 8 5 5 5 4 4 5 3 3 3 5 3 3 4 5 8 7 7 4 5 4 4 4 5 5 5 6 6 6 6 6 5 5 7 8 9 8 9 9 11 11 11 10 10 12 12 11 9 8 8 9
12 15 16 13 6 10 4 3 4 4 5 4 4 3 4 6 6 5 5 5 5 4 4 4 6 6 10 10 9 9 7 3 3 2 5 5 6 7 8 8 8 8 8 8 9 9 10 10 9 8 9 9 9 9
3 5 4 5 4 4 4 6 5 5 3 5 3 3 3 3 4 5 3 7 4 5 3 5 5 6 7 8 10 10 9 11 12 12 12 8 4 6 7 7 7 8 8 7 7 7 7 7 7 7 8 8 8 7
5 3 4 4 5 4 5 2 3 2 3 3 2 3 3 3 3 2 4 4 3 5 7 8 9 12 12 11 12 12 10 10 10 10 9 9 9 8 7 7 7 6 6 6 5 5 6 6 6 6 6 6 6 6
4 5 4 4 4 4 3 3 3 3 3 3 3 3 3 2 2 3 4 3 3 5 5 7 8 7 9 9 7 9 9 9 10 9 7 6 6 6 6 6 6 5 5 5 5 5 5 4 4 4 4 4 4 3
4 7 4 7 3 4 4 3 3 3 4 2 3 3 2 1 3 3 2 3 3 4 3 4 5 5 5 5 7 7 5 4 5 6 5 5 6 5 4 4 4 4 3 3 4 4 4 4 3 3 2 2 1 1
7 7 5 4 3 3 3 3 3 3 3 3 4 2 1 2 3 4 2 4 4 3 3 3 4 4 4 5 5 5 4 4 3 4 4 2 2 0 1 2 2 2 2 2 3 3 3 2 2 1 1 1 0 1
5 5 4 4 2 4 5 4 4 4 4 3 3 2 2 4 3 2 3 3 3 5 6 4 2 4 7 7 7 5 4 3 4 6 5 4 3 3 1 0 1 2 2 2 1 1 2 2 2 1 1 1 2 2
4 5 4 4 5 5 4 4 3 3 3 2 2 4 3 2 3 3 3 5 10 9 8 8 9 8 8 8 8 9 8 9 10 8 7 6 5 5 5 5 5 4 2 2 2 2 2 1 0 2 2 3 4 4
4 3 4 5 5 6 6 4 3 3 3 1 3 3 3 3 3 4 7 9 9 9 10 10 9 9 9 7 5 6 7 4 1 1 2 2 1 2 2 3 2 1 1 1 1 2 3 2 2 2 3 3 4 4
3 3 4 4 5 5 5 4 3 2 3 4 4 5 5 4 7 7 8 7 7 8 8 9 8 5 5 4 5 3 2 2 2 2 3 2 2 3 3 2 2 1 1 1 2 3 2 3 4 6 5 5 5 6
2 3 5 5 5 5 5 3 9 8 4 5 7 8 6 4 4 6 4 5 7 9 9 7 5 4 4 3 1 1 1 1 1 1 1 2 4 3 1 1 2 2 2 3 3 4 4 4 4 5 5 6 7 7
3 3 5 5 5 4 1 2 3 3 3 3 3 2 2 2 3 2 2 4 6 6 5 5 4 2 4 1 1 1 3 4 4 4 4 3 2 1 2 3 3 3 3 3 3 2 2 3 4 5 6 7 7 8
4 5 5 6 4 5 3 3 3 3 3 2 2 2 2 2 3 3 3 5 4 2 3 4 4 5 5 5 5 6 5 5 5 4 4 3 3 3 3 3 3 3 3 3 4 4 5 6 6 7 8 9 9 10

GFSWCAN_925_spd_075.txt.gz
Wind_Speed
37 38 36 34 33 33 33 32 32 29 25 23 24 27 36 40 39 35 32 29 26 5 16 19 19 14 10 10 8 1 4 2 2 5 5 5 5 6 6 3 10 11 9 7 9 6 15 8 5 7 8 4 8 8
38 36 35 35 35 35 35 34 29 26 23 26 26 30 33 36 40 44 16 37 37 9 7 19 30 26 24 7 6 7 5 3 7 6 7 4 4 3 8 8 11 7 8 8 10 8 4 2 7 7 8 8 10 11
37 36 36 35 39 35 28 23 22 23 22 29 27 29 32 34 35 39 26 26 26 7 7 15 17 15 26 27 11 3 2 3 6 7 2 3 5 5 5 9 9 10 5 4 1 5 1 10 2 12 10 10 10 12
37 37 38 38 33 27 24 23 22 21 20 25 30 31 29 31 33 35 21 33 29 4 4 10 22 31 17 22 21 19 12 9 7 4 3 4 4 4 6 7 9 8 6 12 10 11 10 1 12 12 11 12 13 13
39 38 32 24 23 25 28 27 24 22 20 25 28 27 29 31 28 30 26 33 31 10 5 11 14 18 27 29 22 22 19 10 4 2 3 4 6 5 6 6 8 8 8 6 4 10 7 9 12 13 11 13 13 14
20 17 19 23 26 27 27 27 26 24 22 24 24 26 32 27 31 19 3 21 34 28 3 2 9 10 14 23 22 18 12 7 3 2 2 3 4 1 3 7 12 3 10 10 5 9 8 9 11 12 10 12 12 11
18 22 24 26 26 31 33 27 24 24 24 24 24 25 29 30 28 4 3 11 36 24 4 3 3 3 18 14 8 6 7 2 3 0 3 3 6 5 3 5 5 8 9 8 10 11 0 9 7 10 10 10 10 11
18 19 21 25 19 11 4 14 20 23 25 24 27 31 29 31 15 2 3 24 41 9 4 3 2 5 10 3 3 4 2 3 4 2 2 4 4 2 2 8 7 9 8 6 10 8 6 6 6 8 8 8 6 8
16 15 20 11 5 6 8 12 18 24 29 30 36 35 26 5 3 4 26 37 20 4 4 3 4 4 7 4 4 3 3 1 4 3 4 4 4 0 4 5 7 8 7 9 10 6 3 3 4 7 8 8 7 7
11 13 17 17 6 4 10 17 27 32 39 48 35 5 3 6 21 19 7 2 3 2 3 3 3 3 7 6 5 4 3 2 3 5 2 2 3 7 5 5 5 6 7 8 8 6 8 7 6 7 8 7 7 7
6 10 19 31 17 23 30 37 46 52 33 9 2 3 23 29 6 1 3 3 3 4 4 2 2 6 2 6 4 3 2 3 3 3 2 3 3 3 5 6 7 7 6 6 4 4 5 5 5 5 7 7 10 11
4 10 16 20 32 33 35 37 22 4 5 10 17 17 5 1 2 4 3 3 2 3 3 4 3 3 2 2 3 3 2 2 1 3 2 3 4 6 6 6 7 6 7 7 8 7 8 9 10 10 10 11 13 14
12 13 14 22 21 21 19 15 36 37 34 13 5 4 1 3 2 1 5 3 4 2 2 2 3 2 1 1 2 1 3 2 1 1 2 4 6 6 5 5 6 9 9 10 10 11 13 15 15 15 14 14 15 16
14 14 14 11 15 19 17 8 9 5 7 4 3 5 4 3 4 3 4 4 3 2 1 2 3 2 2 2 2 2 2 3 3 4 3 5 7 6 6 6 7 8 9 10 11 14 15 16 16 16 15 14 16 18
9 10 16 13 8 8 6 7 8 10 6 5 5 4 4 2 4 3 1 1 3 3 2 3 4 3 3 3 2 2 2 3 5 4 3 5 6 6 7 7 8 8 8 9 12 13 14 15 16 18 17 17 17 17
8 4 5 4 8 10 10 7 11 6 4 4 7 3 1 4 6 5 5 5 5 4 3 1 3 3 3 2 2 3 1 3 3 4 5 5 6 7 7 8 9 11 12 13 14 14 15 15 17 17 17 18 18 17
6 3 8 6 4 4 5 7 6 6 4 4 4 4 4 5 6 4 5 5 5 3 3 2 3 3 2 3 3 4 3 5 5 5 6 7 7 7 7 10 11 12 13 13 14 14 14 14 13 15 15 14 15 15
4 8 8 3 4 6 6 7 4 4 6 5 5 6 7 5 5 5 5 6 4 2 3 3 2 4 4 2 3 4 5 6 6 6 6 7 9 10 10 10 11 11 12 12 12 12 11 10 11 11 11 11 11 11
9 8 6 9 4 5 3 5 5 5 5 4 4 4 4 5 6 6 6 6 8 7 3 3 5 3 3 4 8 7 6 5 6 6 6 9 9 9 9 10 10 10 10 10 10 10 11 10 9 8 7 6 7 7
17 13 10 8 4 4 4 4 4 5 3 3 3 5 4 4 4 6 7 7 6 4 5 4 4 6 6 6 6 6 6 6 6 6 5 5 7 7 8 7 8 9 9 9 8 7 8 8 8 7 7 6 5 6
14 7 8 7 6 9 4 3 4 5 5 3 4 4 4 6 6 6 5 5 6 4 4 5 6 7 11 11 10 10 8 5 4 3 6 4 5 6 7 6 6 6 6 5 6 6 6 6 5 5 5 6 6 6
6 6 7 6 4 4 4 6 5 4 3 5 3 3 3 4 4 5 5 6 4 5 4 6 6 7 7 8 10 10 9 10 10 11 11 7 4 5 5 4 4 5 5 4 4 4 5 5 4 5 5 5 4 5
7 3 4 3 4 4 4 1 3 2 4 4 3 3 3 3 3 1 4 4 3 5 8 8 10 11 11 11 11 11 9 8 8 8 7 7 7 6 5 5 5 4 4 4 3 3 4 4 4 4 4 3 4 4
4 5 4 3 4 4 4 2 3 3 3 2 3 4 3 3 2 3 4 3 3 6 5 6 7 6 8 8 6 9 8 8 8 8 6 4 5 5 5 5 5 5 4 3 3 3 3 2 2 2 2 2 1 1
3 5 3 5 2 4 4 4 3 3 3 3 3 3 3 1 3 3 3 4 4 4 4 5 4 4 5 5 7 7 5 4 4 5 6 5 4 3 3 3 4 4 2 1 1 2 2 1 1 1 1 0 0 1
5 5 4 3 3 3 3 4 3 4 4 3 4 3 1 2 3 4 3 5 5 5 3 3 4 4 4 5 4 5 6 5 3 4 4 4 4 4 2 1 2 2 2 2 1 1 1 1 0 1 1 1 1 3
4 4 4 4 2 4 5 5 5 5 4 3 3 3 2 3 3 3 3 5 5 7 7 5 3 3 6 7 7 6 5 6 6 6 4 5 5 5 4 4 1 3 1 1 1 1 2 2 2 3 3 3 3 4
4 6 4 4 5 5 4 4 4 3 3 2 2 3 3 3 3 3 3 7 10 9 9 8 8 8 8 8 7 7 7 7 7 6 5 5 5 5 5 4 3 3 2 1 1 1 1 1 2 3 4 5 5 5
5 3 4 7 6 6 7 5 3 3 3 1 3 3 3 3 3 9 10 10 9 9 9 9 9 9 9 7 6 5 4 2 2 1 2 2 0 3 2 2 1 1 1 1 2 1 3 3 3 4 4 5 6 6
3 3 4 6 5 5 4 5 5 4 3 6 6 10 10 9 10 9 10 8 7 7 7 8 7 5 5 4 4 3 2 2 2 3 4 2 3 1 1 1 2 2 2 2 2 3 3 4 4 6 6 6 7 7
3 3 4 5 5 6 8 9 11 10 10 10 9 9 8 5 6 7 7 6 8 8 8 7 6 5 5 3 2 1 2 2 2 2 3 3 3 1 0 1 2 2 3 3 4 4 4 5 5 6 7 8 8 9
3 3 5 5 5 5 2 4 4 6 5 6 5 4 4 4 3 3 3 4 6 6 5 5 5 5 4 4 5 4 5 4 3 4 3 2 1 1 1 2 3 2 2 3 3 3 4 5 6 7 8 9 9 9
8 9 9 6 5 5 4 4 3 4 3 3 3 2 3 2 3 3 3 2 4 6 6 6 5 6 6 6 6 6 5 4 4 3 3 2 1 1 2 2 3 3 4 4 4 5 6 7 8 8 9 10 11 11

GFSWCAN_925_spd_081.txt.gz
Wind_Speed
27 25 28 29 30 32 33 31 28 27 27 24 23 21 21 20 21 35 29 21 23 3 7 7 9 8 6 3 2 5 3 1 1 1 2 4 2 4 3 2 8 7 7 5 4 4 7 7 3 3 3 8 12 14
25 25 30 31 33 36 34 31 30 29 27 28 27 23 21 21 23 32 13 31 22 5 3 10 13 18 16 15 5 1 3 3 1 2 1 3 2 3 3 3 8 3 4 4 7 6 3 10 12 10 9 11 13 13
26 29 31 33 37 36 34 33 31 29 29 25 21 21 20 23 23 27 15 28 18 1 4 6 11 27 21 20 20 4 2 6 1 1 2 3 4 3 3 4 2 4 5 2 2 11 13 15 15 16 12 15 14 11
29 31 33 37 37 38 39 34 31 27 24 21 16 16 17 20 20 29 19 22 19 2 2 5 14 12 28 28 19 20 8 6 4 2 1 2 2 2 2 5 3 4 3 3 3 10 14 11 12 10 13 15 11 12
31 32 35 36 37 31 19 19 21 20 18 16 16 17 18 23 22 28 21 24 27 9 3 3 13 23 24 24 21 19 11 4 2 1 1 2 2 3 3 5 3 6 5 3 4 10 9 6 10 11 13 11 13 12
31 34 34 32 25 22 21 19 20 21 20 17 17 19 17 26 28 20 2 19 31 21 2 3 5 5 10 22 16 7 5 3 3 1 2 2 4 3 2 2 6 13 12 14 3 6 13 13 11 11 9 12 14 14
32 33 30 25 24 23 23 22 23 25 24 22 19 16 20 28 33 5 4 6 35 25 2 3 4 4 13 11 3 3 5 3 2 2 2 3 3 2 2 2 8 12 10 12 11 9 8 10 7 11 12 16 20 19
31 29 25 26 24 23 27 27 26 22 24 24 20 18 25 29 18 9 1 5 35 9 3 3 3 2 4 2 2 2 3 2 2 2 1 3 3 2 3 6 8 12 11 14 14 10 10 12 12 11 13 11 13 11
25 24 27 27 26 27 19 17 21 24 26 28 20 24 18 8 4 9 7 24 21 5 3 3 2 2 3 1 3 2 2 2 3 3 3 3 2 3 3 6 10 11 9 9 9 12 11 10 11 10 10 11 12 10
20 24 23 18 11 5 8 8 13 25 34 30 25 6 3 10 27 22 6 5 2 1 2 3 2 1 2 2 2 3 3 2 3 4 1 3 3 7 9 9 9 9 9 10 6 11 10 9 10 11 10 9 10 10
13 9 12 6 4 8 10 24 32 41 35 8 3 2 21 29 7 2 3 3 3 3 3 3 3 2 2 2 3 2 2 3 2 3 5 2 2 3 8 10 9 8 9 10 10 10 10 9 9 10 11 14 15 16
6 11 11 9 17 24 37 40 27 15 7 10 17 17 8 3 2 4 4 3 4 5 1 4 3 1 2 2 3 2 3 2 3 3 2 2 3 6 8 9 10 9 10 10 14 12 13 15 13 13 13 14 16 16
9 19 28 33 28 22 23 24 27 39 26 11 6 3 2 2 4 5 5 2 3 2 1 2 3 2 1 2 1 2 3 1 2 2 3 3 5 5 6 6 8 11 12 12 12 14 15 16 17 16 15 16 17 17
18 18 20 22 25 31 21 15 13 10 4 3 3 5 4 3 3 2 3 3 2 1 1 4 3 2 1 2 1 1 1 1 2 3 3 2 3 5 5 6 6 6 6 7 9 13 13 14 15 17 17 16 16 15
23 22 22 23 17 16 15 11 5 7 6 4 4 4 3 1 0 1 1 2 2 1 1 3 3 3 2 3 2 2 2 3 3 2 2 2 3 4 3 4 4 4 3 6 11 11 13 14 14 15 17 18 18 18
19 17 15 10 11 9 12 10 10 5 4 3 6 3 1 3 4 4 4 2 3 3 2 1 3 3 3 2 3 4 2 2 1 3 3 3 4 4 4 4 6 10 10 10 10 11 12 12 12 13 16 16 16 16
4 4 15 15 15 12 10 6 7 5 4 4 3 3 3 4 5 3 4 3 2 1 2 3 4 3 1 3 3 3 2 3 4 4 4 5 4 3 4 8 9 10 9 10 11 11 12 14 13 10 10 12 13 14
4 18 13 8 9 7 5 7 4 4 6 4 3 3 4 4 2 3 3 4 3 2 2 2 3 5 3 3 2 2 3 5 5 4 4 4 6 8 10 9 11 11 11 11 11 11 11 11 8 8 10 10 10 11
17 12 10 9 8 6 3 4 5 4 3 2 2 2 2 2 2 2 3 4 6 6 3 3 5 3 2 2 5 5 3 3 5 3 4 10 10 11 12 12 12 10 9 9 9 9 11 11 9 5 4 7 10 10
14 15 11 8 5 4 4 3 4 4 3 2 2 2 2 2 0 3 6 5 5 3 5 4 3 3 3 5 4 4 3 5 5 5 4 2 9 8 7 9 10 9 9 9 7 5 7 7 7 10 12 13 13 12
14 9 7 6 5 10 4 3 3 3 4 3 3 2 3 2 3 3 3 4 4 3 3 3 4 6 13 13 14 13 13 9 2 3 3 3 8 8 7 6 6 7 8 8 8 10 13 14 11 10 8 9 8 6
3 6 4 7 5 4 4 6 4 3 3 3 3 2 3 2 2 3 2 5 3 4 2 3 3 5 6 6 11 16 16 17 18 16 13 9 2 5 8 7 8 10 13 12 11 14 11 8 8 6 7 8 5 5
4 5 4 4 5 4 0 2 3 2 3 3 2 3 2 2 1 3 3 3 2 4 9 9 11 14 11 13 13 12 12 13 11 12 13 13 11 11 12 14 15 13 11 11 10 8 6 6 4 3 1 3 3 7
3 4 3 3 4 3 2 1 2 3 3 2 2 3 2 2 2 3 3 2 1 6 3 7 10 4 8 11 4 10 10 14 14 14 10 12 12 10 10 11 9 8 8 6 7 8 6 3 2 2 2 4 3 5
5 6 4 3 2 4 3 2 2 3 3 2 3 2 1 0 3 3 2 3 2 2 2 7 6 6 5 3 9 10 14 11 14 10 12 11 5 6 9 8 7 6 5 9 5 6 3 4 3 4 5 5 3 3
5 3 4 2 1 4 3 4 3 3 3 3 2 2 1 2 3 3 2 4 4 3 2 2 4 6 5 9 5 9 8 7 13 14 10 9 11 11 9 5 9 8 4 3 6 7 4 3 3 1 3 5 1 3
4 2 2 3 2 3 3 3 4 4 3 3 3 3 3 4 3 1 3 5 4 11 15 13 11 14 11 14 15 11 8 11 12 12 8 6 6 6 6 9 8 6 2 1 3 6 9 4 1 1 2 4 5 2
2 4 4 3 4 5 3 3 3 3 2 2 3 3 3 3 2 2 2 14 22 21 21 21 21 20 19 15 11 10 11 10 10 9 9 9 10 9 9 10 7 4 6 6 3 3 2 3 5 5 5 3 5 6
3 2 4 5 5 5 5 4 2 2 3 1 3 3 2 2 4 10 16 20 18 18 17 17 16 17 17 15 13 11 9 5 5 2 1 3 7 3 4 4 4 4 4 7 4 4 5 6 5 6 7 8 9 8
1 2 4 4 5 4 3 3 2 2 3 4 5 9 8 7 14 15 15 15 14 15 15 15 15 14 14 13 12 8 6 4 5 9 4 3 5 5 5 4 4 5 5 5 4 5 5 4 5 7 11 8 7 5
2 3 4 4 3 1 7 8 13 10 6 7 5 6 4 3 9 19 17 17 17 15 14 14 13 11 12 10 10 12 5 5 6 8 8 6 4 2 2 3 5 2 3 5 4 4 7 6 6 9 9 9 9 9
3 3 4 4 2 1 2 2 2 4 3 3 2 2 1 3 3 2 5 4 7 10 11 14 14 11 7 8 8 7 8 9 7 6 5 4 2 1 4 5 4 4 6 2 4 5 6 7 7 8 9 10 12 12
5 6 6 4 3 3 3 3 3 3 2 2 2 2 3 3 3 2 3 8 7 17 18 16 13 11 9 7 7 6 5 5 5 4 3 1 1 2 2 1 3 4 4 4 4 6 7 8 9 10 11 11 12 13

GFSWCAN_925_spd_084.txt.gz
Wind_Speed
23 23 24 23 21 21 22 23 23 25 24 23 21 21 18 17 15 24 16 25 20 3 6 4 2 2 2 2 2 4 4 2 2 1 2 3 2 3 2 4 3 4 5 4 4 4 9 11 9 4 4 9 10 11
24 25 24 21 21 23 23 24 26 26 24 23 23 22 21 20 20 21 8 25 32 3 3 2 12 19 18 11 2 1 1 1 3 2 1 1 2 3 2 3 2 4 5 3 5 5 6 10 11 9 7 9 8 10
24 25 21 22 24 24 24 28 29 28 27 25 24 24 23 21 21 22 13 26 13 2 4 8 12 24 24 22 17 4 3 4 2 4 2 1 3 2 2 2 4 4 5 2 2 7 12 13 15 15 11 11 11 10
23 22 22 24 26 27 29 31 30 31 27 25 23 20 18 17 20 23 15 22 19 2 2 5 7 9 19 25 22 22 8 4 3 3 1 1 3 2 2 3 2 4 0 4 3 8 10 13 13 12 13 12 15 13
22 22 24 25 25 29 28 30 22 16 19 20 19 17 13 13 14 23 20 23 27 4 3 3 12 22 21 15 24 18 9 4 3 2 1 3 3 2 2 2 4 6 5 3 1 7 7 7 8 10 9 12 13 11
22 24 23 25 29 28 26 18 15 13 13 14 14 13 13 15 22 14 2 13 27 8 2 3 4 4 8 18 14 11 9 3 2 2 2 2 3 1 3 2 4 9 10 12 4 8 9 7 12 11 11 11 12 12
23 23 26 29 28 27 20 20 18 17 18 17 16 13 16 20 28 5 4 5 30 16 2 3 3 4 4 6 3 2 5 2 2 2 2 2 3 3 1 3 7 8 10 14 6 5 9 10 7 10 13 13 17 14
22 26 29 29 28 23 24 24 22 19 19 18 19 16 16 25 18 7 1 7 31 7 2 2 4 2 1 3 2 1 3 2 1 2 2 2 2 2 3 6 9 10 7 13 12 12 11 9 11 10 10 9 9 8
27 27 29 26 27 29 28 27 28 27 26 23 20 18 18 6 4 10 4 29 17 4 4 2 2 2 1 2 2 2 2 2 3 3 3 2 2 3 4 7 8 9 6 6 6 9 8 10 9 8 7 7 8 8
24 26 26 27 24 23 21 21 21 24 26 29 26 5 3 11 31 26 6 2 2 2 2 3 2 2 1 2 2 3 2 2 3 4 2 3 2 7 7 7 5 6 7 7 3 7 4 7 7 7 7 6 7 7
20 22 20 18 14 12 14 18 25 27 31 7 3 3 14 35 6 1 3 4 3 3 3 4 4 3 2 3 3 2 3 3 2 3 3 2 2 3 6 8 8 8 9 9 9 9 9 7 7 7 8 9 10 11
13 10 4 10 11 10 14 26 35 20 11 12 15 18 8 4 2 4 4 4 4 5 3 3 2 2 2 0 2 2 2 2 3 2 3 2 3 6 6 7 7 7 9 9 10 8 10 10 10 11 11 11 11 12
11 20 26 31 33 32 30 29 36 41 35 18 5 3 3 1 3 5 6 3 4 4 3 3 2 2 2 2 2 2 4 3 1 3 2 2 5 5 5 5 6 8 9 10 10 11 11 13 13 12 11 13 15 15
18 19 24 27 27 37 44 34 24 16 5 3 3 4 2 2 0 2 1 2 1 1 5 4 3 2 1 2 1 2 2 1 2 2 2 1 3 3 4 5 7 4 6 7 9 13 13 13 14 15 15 14 15 14
21 27 28 25 25 20 18 14 10 7 5 3 3 3 1 3 2 1 0 2 2 1 1 2 3 3 2 3 2 2 3 2 2 3 2 1 2 4 3 4 5 5 3 6 12 11 13 14 13 14 15 15 15 14
30 18 15 18 19 17 14 10 10 5 4 3 5 3 2 3 4 3 3 2 2 1 1 3 3 3 2 2 4 1 1 3 2 2 3 3 3 3 3 4 7 11 12 11 11 11 12 12 11 12 14 14 13 13
9 5 13 13 12 11 3 5 5 5 4 4 3 2 2 3 2 2 2 3 3 2 2 2 4 0 1 3 2 2 3 3 4 4 2 3 4 4 5 10 11 11 12 12 12 12 12 13 13 10 9 11 11 12
5 23 20 21 20 12 6 8 4 4 6 4 4 3 2 2 1 2 3 3 2 2 2 2 3 5 2 3 2 1 3 4 4 4 2 2 6 10 11 10 10 10 10 10 10 10 10 9 7 7 9 9 9 10
23 17 13 11 7 4 3 4 4 4 3 2 1 2 2 2 3 1 2 3 3 4 3 3 5 2 1 1 4 4 4 3 4 2 2 10 13 12 11 10 9 8 8 8 9 8 9 8 5 4 8 9 9 10
16 13 9 7 4 4 4 3 5 4 3 1 2 2 2 2 0 3 6 6 4 3 5 4 2 0 2 2 2 3 4 5 6 4 2 2 8 10 10 9 9 8 8 7 6 7 8 9 8 8 8 9 10 9
15 9 8 5 6 9 4 2 3 3 3 3 2 2 2 2 3 3 3 4 4 3 2 2 3 5 11 12 14 14 9 9 3 3 3 2 8 11 8 4 8 9 7 8 10 11 11 10 8 6 6 6 5 6
6 7 4 7 5 4 4 4 4 3 3 3 3 2 3 2 2 3 2 5 3 3 2 3 3 5 6 6 10 15 14 16 16 15 13 11 2 5 8 8 12 11 10 11 13 12 9 6 7 5 4 5 5 10
6 4 5 5 5 4 1 1 3 2 4 3 2 3 2 2 2 2 3 3 2 3 7 6 9 13 13 14 15 14 15 15 10 13 15 16 16 16 16 13 11 13 12 10 9 6 5 4 4 3 2 3 1 5
4 4 3 3 4 2 2 1 2 3 3 2 2 3 1 2 2 3 3 1 2 2 3 8 11 7 10 12 5 8 13 19 16 12 15 16 13 11 9 10 10 8 6 7 6 5 4 3 2 2 2 3 3 3
6 5 4 4 2 4 3 2 2 3 2 2 3 1 1 1 3 3 2 3 2 2 2 9 8 6 4 2 8 13 11 13 14 10 10 7 9 12 13 12 10 8 5 6 8 6 5 5 4 3 2 3 2 2
6 4 3 2 1 4 3 3 3 4 3 3 1 1 2 3 3 2 3 3 3 3 3 5 6 5 2 6 3 6 7 12 13 11 7 6 5 6 8 9 6 5 5 3 1 4 5 4 2 1 1 2 0 3
4 2 2 3 2 3 3 3 3 4 3 4 3 2 3 4 2 2 2 2 3 6 12 19 17 12 10 13 12 8 8 12 6 10 8 8 8 6 3 11 7 4 2 3 2 2 4 3 3 2 1 3 2 1
2 4 4 4 4 4 4 3 3 2 1 2 3 4 4 6 3 1 2 12 23 22 21 20 18 19 18 15 14 16 15 13 13 12 11 10 8 9 8 7 6 3 3 4 4 3 2 1 1 1 1 1 3 4
2 1 4 6 5 5 4 2 1 1 2 1 4 2 2 2 1 6 13 22 24 26 21 21 21 21 20 17 13 11 9 9 10 3 2 2 3 2 3 4 4 1 1 2 0 1 4 5 6 4 4 5 5 5
1 2 4 4 4 4 3 1 0 3 2 3 4 6 5 5 12 21 21 18 19 19 21 23 22 20 18 15 12 9 6 4 2 4 5 4 6 7 5 2 1 2 2 2 2 2 2 3 5 3 4 3 3 4
3 3 4 4 3 2 4 5 12 10 4 5 4 4 3 3 10 17 13 16 18 18 18 15 13 12 11 11 9 8 5 4 4 3 4 6 7 4 1 2 2 1 2 3 1 2 4 5 6 5 6 7 7 9
3 3 4 4 2 2 1 2 3 3 2 4 3 3 3 3 3 4 6 9 16 18 17 16 16 11 8 7 6 4 3 8 7 5 4 3 2 1 1 1 1 3 3 1 2 3 4 6 7 8 9 11 11 10
4 3 4 4 3 1 3 3 3 3 3 2 1 2 1 3 3 3 2 1 12 16 16 12 10 10 8 7 6 7 6 4 4 3 2 1 1 2 3 3 5 6 6 5 5 5 6 8 9 9 10 12 13 13

GFSWCAN_925_spd_090.txt.gz
Wind_Speed
18 17 16 19 18 18 18 19 17 11 13 15 16 15 15 13 12 9 5 20 12 3 4 5 4 5 1 1 1 4 3 4 4 5 2 2 1 3 3 2 2 3 3 3 2 3 7 9 3 3 3 7 10 11
18 18 17 19 19 19 20 20 17 14 15 17 17 17 16 15 14 11 6 20 24 3 3 3 14 21 12 5 3 3 2 2 2 2 3 3 2 3 3 2 4 3 1 1 4 3 6 7 10 10 10 10 11 13
21 19 20 20 20 20 20 19 15 16 17 17 18 18 17 17 16 14 9 14 10 3 4 3 8 23 17 27 20 3 2 2 1 0 0 2 2 2 2 2 4 4 5 2 2 8 11 11 11 12 11 11 12 14
21 20 21 20 21 21 22 19 17 18 18 18 20 21 20 19 17 17 15 20 15 2 1 5 4 6 11 23 18 17 4 3 4 1 1 1 2 1 1 3 2 3 7 6 2 4 5 11 12 8 10 11 13 14
22 21 20 19 21 22 18 17 18 18 18 21 24 23 23 22 19 18 19 26 25 5 3 3 9 9 12 15 23 17 9 2 1 2 3 3 2 2 1 1 2 3 3 2 2 6 3 5 9 10 11 11 11 9
22 20 19 20 22 19 18 19 19 20 21 22 23 16 22 20 16 14 0 13 29 13 0 2 3 3 1 11 12 9 8 3 2 2 2 2 2 1 1 1 2 3 3 7 2 2 4 5 7 8 12 12 11 11
21 20 20 22 23 21 19 19 19 19 19 15 8 11 15 14 24 3 3 4 29 15 2 3 4 1 7 6 2 2 5 2 2 2 2 1 2 1 2 2 2 4 6 8 9 4 3 11 6 9 11 13 15 16
20 21 22 23 22 20 21 20 19 18 15 12 9 11 14 23 14 4 0 13 26 5 2 1 3 2 3 2 2 2 3 2 1 1 2 2 1 1 2 4 3 6 4 8 8 8 7 7 9 9 10 9 9 10
21 23 23 22 21 21 21 21 20 18 15 12 9 12 15 4 4 4 17 25 11 2 3 1 2 3 2 2 2 1 2 2 1 3 2 3 1 3 2 3 3 6 4 6 4 5 6 7 7 8 8 8 8 8
23 25 26 25 23 25 24 23 20 17 16 12 10 4 2 6 22 29 4 3 2 1 2 3 1 2 3 3 2 3 0 3 2 4 3 2 1 4 5 4 4 4 5 7 4 2 7 3 6 8 9 7 8 8
23 24 24 25 25 27 27 25 22 19 16 8 2 2 9 27 6 1 3 3 3 3 3 3 4 3 2 2 3 1 2 2 2 3 4 3 2 3 4 5 5 6 7 6 7 6 7 7 6 7 7 8 10 10
23 24 25 27 29 29 29 29 27 25 11 12 10 11 8 2 2 4 3 3 4 5 3 3 5 3 2 1 2 3 3 3 4 2 2 2 1 7 5 5 5 7 7 7 9 8 10 10 11 10 8 8 10 11
22 24 30 32 37 38 36 32 29 28 29 16 3 4 4 2 3 6 7 3 4 4 3 3 3 3 2 1 2 2 3 3 2 2 1 1 5 6 5 5 6 7 6 7 9 11 11 10 10 10 11 12 13 14
26 33 36 21 19 25 34 31 35 40 12 2 3 6 4 3 4 4 4 4 2 3 5 3 2 2 1 2 1 3 2 2 2 1 3 1 5 5 4 5 5 3 6 7 7 8 8 10 11 10 10 11 13 12
13 27 22 15 21 31 39 45 30 17 5 3 3 4 3 2 1 2 3 3 1 2 3 4 2 2 1 3 1 2 1 3 3 3 2 2 4 5 4 4 5 4 5 6 9 10 10 11 12 11 9 9 9 9
33 31 26 39 42 42 42 28 13 4 4 2 5 4 2 3 2 2 1 2 2 2 1 3 2 3 1 3 2 3 4 4 2 2 2 2 3 3 3 3 8 9 9 9 9 10 10 11 11 11 9 8 7 5
17 6 23 30 29 22 16 6 7 4 3 4 2 3 3 2 3 1 1 1 3 2 2 3 3 4 2 3 1 1 3 2 3 2 2 3 5 5 6 8 9 10 9 9 9 8 10 10 10 9 8 6 6 5
13 22 27 23 22 19 7 7 4 4 6 3 3 2 2 2 1 2 2 1 0 2 2 2 3 3 4 4 3 2 1 1 1 2 2 2 6 9 10 10 10 9 9 8 8 9 10 8 4 4 6 6 4 4
26 26 19 11 7 6 3 4 4 4 3 2 2 2 2 2 2 1 2 2 3 4 4 3 4 2 2 2 3 2 3 2 4 1 2 5 8 9 9 9 9 8 8 9 8 7 5 2 1 4 7 8 9 9
24 19 12 7 6 4 4 3 4 4 3 2 2 2 2 2 0 2 4 4 3 2 5 3 2 2 2 2 2 3 3 5 5 4 2 1 6 10 9 8 7 8 8 8 8 7 5 3 3 3 3 2 6 11
13 7 6 6 6 10 3 2 3 2 3 3 2 2 2 2 2 3 3 3 4 2 2 1 0 2 4 6 13 14 10 11 3 3 3 3 3 8 6 6 7 8 7 7 6 4 3 2 2 2 3 3 2 3
10 6 4 5 4 3 4 5 4 3 3 3 2 2 2 2 2 2 1 4 2 0 1 2 2 2 5 4 6 13 14 11 11 14 12 13 2 4 4 6 6 4 4 3 3 4 2 0 2 2 3 3 2 3
6 4 5 4 4 4 1 1 4 2 4 3 2 3 2 2 1 1 3 2 1 1 4 4 8 13 13 14 15 12 10 14 10 12 11 11 10 9 8 7 5 5 4 3 3 2 0 2 2 4 4 4 4 5
6 5 4 3 3 3 2 2 2 3 3 2 3 3 1 2 1 3 2 0 0 2 3 7 11 6 10 9 4 8 10 15 15 12 11 13 11 8 8 8 5 3 2 2 3 3 2 3 3 4 5 7 8 9
5 5 4 4 3 4 4 3 2 3 2 2 3 1 2 2 2 2 3 2 1 2 2 9 8 6 4 2 5 8 10 14 14 9 5 5 11 10 7 5 4 4 1 2 4 4 5 5 4 4 4 5 6 6
5 4 3 0 2 4 3 3 2 4 3 2 1 1 2 3 3 2 2 4 3 3 3 6 5 3 2 5 4 5 6 9 11 9 6 4 6 4 7 5 3 1 1 2 3 4 6 8 8 6 6 6 7 7
4 2 2 3 2 3 4 3 2 4 3 3 2 2 3 3 1 2 0 1 3 8 19 18 17 12 10 11 11 10 11 7 4 9 9 7 6 3 1 4 5 2 1 3 4 4 4 4 4 6 7 7 6 7
2 3 4 3 4 4 4 3 3 2 0 2 3 3 4 5 3 1 0 4 19 19 16 13 12 14 15 12 12 14 14 13 13 12 10 9 8 8 8 6 4 3 2 3 4 3 4 4 4 5 6 8 8 9
3 2 3 5 4 4 4 2 1 2 2 1 4 2 2 2 3 1 5 15 20 21 21 21 19 19 18 16 13 11 13 11 8 3 2 2 2 2 2 3 3 3 4 4 4 4 5 6 6 7 8 9 10 10
1 2 4 3 4 3 2 1 2 2 2 1 2 2 3 3 9 10 14 15 18 18 19 21 22 18 19 17 14 9 6 5 5 4 3 3 3 5 3 1 3 5 5 5 5 6 6 7 8 8 8 9 9 10
1 3 4 4 3 1 3 2 4 4 3 3 3 4 2 2 6 14 9 11 17 20 22 18 15 14 14 13 10 8 4 3 4 4 5 6 6 3 1 2 3 4 5 7 6 6 7 8 9 10 11 12 12 13
3 2 4 4 1 2 2 2 2 3 3 4 4 3 3 3 3 6 4 7 14 16 16 16 16 11 8 6 4 2 2 8 7 6 5 4 2 2 2 3 4 6 7 8 8 9 10 11 12 14 15 16 16 17
3 2 3 3 3 1 2 4 3 2 3 2 2 1 1 3 3 2 2 6 7 12 13 10 9 10 9 8 8 9 8 7 6 4 3 2 2 2 3 4 5 7 8 8 9 10 11 13 15 16 16 17 18 18

GFSWCAN_925_spd_093.txt.gz
Wind_Speed
14 16 23 19 13 15 14 15 16 17 17 15 13 10 13 11 8 8 5 17 9 3 4 6 4 4 2 1 2 4 3 3 4 5 4 3 3 3 2 2 3 2 1 1 2 3 3 13 5 4 2 10 8 9
17 18 21 16 15 16 15 17 16 19 16 12 12 12 14 12 10 9 5 11 20 2 3 4 10 19 14 7 2 2 1 2 3 2 3 2 1 3 4 2 4 2 4 2 3 3 7 8 8 11 12 9 11 10
18 22 20 18 17 16 16 17 18 17 16 14 14 13 14 13 11 11 6 8 7 1 5 5 8 19 21 24 21 1 1 2 1 0 1 2 2 3 2 2 4 3 5 2 2 5 7 9 9 11 12 12 12 11
19 20 19 18 18 16 17 19 19 16 15 14 15 15 15 14 12 13 14 13 10 1 2 5 4 8 6 15 21 18 6 1 2 1 1 2 2 1 1 3 1 2 6 4 1 4 3 12 10 9 11 10 11 12
22 22 20 19 19 19 19 19 20 18 16 14 15 16 17 16 15 14 16 18 18 4 2 3 8 5 8 10 16 15 10 3 1 2 2 2 1 1 1 0 1 3 3 2 3 5 3 4 8 9 10 11 11 9
23 23 23 20 19 18 18 19 17 17 15 15 16 20 19 18 16 10 1 16 27 20 2 2 3 2 3 6 12 9 6 2 1 2 2 1 3 1 1 1 2 3 4 6 3 3 8 8 8 8 9 9 10 11
21 24 22 20 18 19 19 16 16 16 15 16 18 21 14 21 24 6 3 2 24 20 2 2 3 0 5 4 2 2 4 2 2 2 2 2 2 2 2 2 5 4 6 7 8 5 8 9 5 6 8 10 11 12
19 20 22 22 20 18 21 19 16 15 14 15 13 6 11 18 18 6 3 13 23 6 2 1 2 1 7 2 2 2 3 1 2 1 1 2 1 0 2 4 4 4 2 8 8 9 8 8 8 8 6 7 8 9
18 23 21 21 22 22 20 18 15 14 14 12 7 9 17 6 5 6 14 19 6 1 3 2 2 2 3 1 2 2 1 2 1 2 3 3 1 4 1 5 5 6 3 4 2 7 7 8 7 7 7 7 7 7
18 23 21 20 21 20 19 16 16 14 14 7 6 3 2 7 22 27 4 2 1 1 2 3 1 2 2 1 2 2 0 2 3 4 3 3 1 5 6 7 6 5 6 7 2 2 5 6 6 7 8 7 8 8
19 20 21 22 21 20 17 18 17 13 10 7 3 2 9 30 6 1 3 3 3 3 3 3 4 3 2 2 3 2 2 2 2 3 4 3 2 3 6 7 6 6 7 7 7 6 8 6 5 6 7 9 9 9
20 21 21 22 23 22 20 20 17 14 8 11 10 8 7 3 2 4 3 3 4 4 3 4 4 2 2 1 2 2 3 3 4 3 3 2 2 7 7 6 6 6 7 8 8 7 8 8 7 8 8 10 9 10
20 21 22 23 22 22 21 20 20 16 17 11 3 4 3 2 3 6 7 3 4 4 4 3 3 3 2 1 1 2 3 3 1 1 2 1 6 6 6 5 5 6 7 9 9 9 10 11 10 11 12 12 11 12
21 22 23 24 25 26 26 24 21 21 3 2 3 6 4 4 4 4 4 4 2 3 5 5 4 2 1 2 1 4 1 1 1 2 3 3 7 6 5 4 5 4 7 9 8 10 12 13 15 15 14 12 13 11
23 27 30 31 32 33 33 29 25 17 3 2 2 4 5 2 0 3 2 4 1 4 3 3 3 2 1 1 1 2 2 3 3 2 2 5 7 6 6 5 5 5 5 7 8 10 12 12 12 11 9 9 10 11
23 8 18 20 25 27 34 36 21 5 3 2 2 3 1 3 4 3 5 4 1 2 2 2 3 2 2 2 3 5 4 4 1 2 3 6 5 4 4 5 7 8 8 8 7 7 8 8 8 8 7 7 6 5
15 6 50 49 46 47 43 20 5 3 3 2 2 2 1 2 2 2 2 2 1 2 2 2 4 4 3 1 2 2 1 1 3 4 3 3 5 6 6 8 9 9 8 7 7 6 6 7 6 4 4 3 3 3
29 32 42 41 42 29 9 6 4 3 4 2 3 1 1 0 1 2 2 1 1 2 2 2 3 2 3 3 2 3 2 2 2 3 3 3 6 9 9 9 8 7 7 6 6 7 7 6 3 3 4 5 4 4
26 25 23 17 10 9 3 4 3 4 2 2 3 2 2 2 3 2 1 3 4 3 4 2 4 1 2 1 2 2 5 3 5 3 3 6 9 10 9 8 7 7 8 8 6 4 4 4 3 3 5 6 7 6
24 19 15 11 10 5 4 2 3 4 3 2 2 2 3 2 1 2 5 4 3 2 4 3 1 1 1 1 2 5 4 6 7 6 4 3 5 7 7 6 6 7 5 4 4 5 4 2 2 3 3 3 2 4
21 16 11 10 5 7 3 2 3 2 4 3 3 2 3 2 3 3 3 3 3 2 2 1 2 2 3 5 10 12 11 10 4 3 4 4 4 6 6 6 6 5 4 5 5 3 2 1 1 2 2 3 3 3
7 5 5 6 4 3 3 5 4 3 3 3 2 2 3 2 2 2 1 4 2 1 1 2 5 5 6 6 7 13 14 11 10 12 11 12 4 4 4 4 5 4 3 3 3 4 3 1 1 1 2 3 3 3
7 5 5 4 4 4 1 0 3 2 3 3 2 3 2 2 1 1 3 2 1 1 3 5 8 12 14 14 15 12 10 13 10 10 10 11 10 9 8 7 5 5 3 3 3 3 1 0 1 2 3 3 4 4
4 5 4 3 4 2 1 2 2 3 3 2 2 3 2 2 1 2 3 0 0 2 3 9 12 7 10 9 5 6 8 13 13 11 10 11 8 6 7 7 5 4 2 2 3 2 1 2 3 4 3 4 5 6
5 6 4 4 3 4 4 3 2 3 2 2 3 1 2 2 2 1 3 3 2 4 4 7 8 7 5 4 6 8 11 13 12 9 5 6 9 8 5 4 3 3 2 1 2 3 4 5 4 4 4 4 5 6
6 4 4 1 2 4 3 3 2 4 3 2 2 2 2 3 3 2 2 4 3 3 3 6 5 4 4 5 5 6 7 10 11 8 4 5 5 2 3 3 2 1 1 2 3 4 5 6 6 6 6 6 6 7
4 3 3 3 2 3 3 3 3 4 3 3 3 2 3 3 2 2 1 2 2 7 16 16 16 11 9 11 11 11 11 8 5 8 9 7 5 3 1 1 3 2 0 2 3 4 4 4 4 4 5 7 7 7
3 4 4 3 4 4 4 3 3 2 1 1 2 3 4 4 3 0 0 2 15 20 17 13 11 15 17 15 15 16 15 14 15 13 12 9 8 7 7 6 5 3 2 2 3 2 3 5 5 5 6 7 8 8
3 2 3 5 4 4 4 2 1 2 2 1 3 2 2 2 2 1 3 14 22 23 20 19 17 18 19 17 13 11 15 13 7 3 2 0 1 3 3 3 3 2 3 3 3 4 5 6 6 7 9 9 10 10
1 2 4 3 4 3 2 0 1 1 2 2 2 3 2 3 7 7 10 14 17 17 18 20 22 19 19 18 16 11 8 2 1 2 2 2 2 6 4 1 3 4 4 4 4 4 4 5 7 8 9 10 11 11
2 3 4 3 3 1 2 2 2 2 3 3 2 3 2 2 5 13 9 10 16 20 23 18 14 14 16 15 11 9 5 3 3 4 5 7 7 5 2 2 3 3 5 6 6 6 7 8 9 10 12 13 14 15
3 3 4 4 1 1 2 2 2 3 3 3 3 2 3 3 3 4 4 8 15 15 15 16 17 13 11 9 7 5 5 10 9 8 6 5 4 3 3 3 4 5 6 7 7 8 9 10 12 13 15 16 17 17
3 2 3 3 3 1 2 3 3 2 3 2 2 1 1 2 3 1 3 4 5 11 16 14 13 12 10 10 11 12 10 8 7 6 5 5 4 4 4 4 5 7 8 9 10 11 12 13 14 15 16 17 18 19

GFSWCAN_925_spd_096.txt.gz
Wind_Speed
23 24 23 24 21 21 18 16 15 14 13 13 11 12 9 12 9 7 3 16 9 3 6 6 6 7 6 5 4 8 4 3 5 5 4 4 3 5 2 5 4 4 3 2 1 1 2 17 7 6 6 10 9 10
20 18 19 20 24 19 16 17 16 15 14 14 14 14 10 12 11 8 4 12 17 3 4 6 13 17 15 10 6 2 2 4 4 4 5 3 2 3 4 1 6 2 4 4 5 3 4 8 8 7 9 8 8 8
23 19 18 21 22 17 19 16 16 15 15 13 14 13 10 12 13 11 6 7 7 1 6 6 6 7 12 18 14 3 2 2 2 1 3 2 4 3 2 3 4 3 4 1 3 5 7 9 9 9 10 10 10 9
23 22 22 21 22 20 19 19 14 14 16 14 15 13 12 13 13 12 11 11 6 0 3 2 2 6 3 8 17 18 9 5 4 2 2 2 3 1 2 4 3 4 6 4 5 7 5 11 11 9 9 8 8 9
23 21 21 23 20 21 19 19 17 16 14 13 12 13 13 12 12 11 13 12 14 4 2 4 13 4 3 5 10 14 12 7 4 3 2 2 2 2 2 3 1 4 3 3 3 3 5 5 7 8 9 9 8 7
24 23 22 22 22 23 21 18 17 17 15 16 12 13 14 14 13 8 2 15 19 13 2 3 2 1 2 4 7 11 9 5 3 3 2 3 4 3 3 2 4 4 5 6 3 5 9 8 6 6 7 7 7 7
25 24 23 24 22 20 20 17 16 15 16 14 14 14 18 19 17 5 2 2 14 19 2 3 3 3 4 6 3 4 6 3 3 2 3 3 3 3 2 2 6 6 5 6 5 7 5 1 3 4 6 7 8 9
24 22 23 24 21 21 17 17 14 15 13 12 14 17 21 24 23 14 12 1 19 6 2 2 2 3 7 3 4 3 3 3 4 3 1 3 2 2 2 5 5 3 5 5 5 5 7 6 5 4 3 3 5 6
23 22 23 24 23 22 18 17 17 14 11 11 12 11 14 6 5 7 11 13 8 3 2 2 3 1 4 2 2 3 4 3 1 3 3 3 2 3 3 6 5 3 2 2 4 4 4 4 5 5 4 5 5 6
21 21 23 23 24 23 19 17 17 13 10 10 6 3 3 8 22 22 8 3 2 2 3 3 2 3 4 3 3 4 2 3 3 4 2 3 3 4 4 6 5 4 4 4 5 2 2 2 3 5 5 6 7 8
18 18 23 23 20 18 18 19 15 12 11 5 4 2 14 33 7 2 3 4 4 3 4 4 6 4 3 3 3 3 2 2 2 3 3 3 3 4 6 5 5 5 6 7 7 5 4 3 3 4 5 6 7 7
19 19 22 21 18 18 19 17 16 16 6 7 7 9 8 3 2 4 5 4 5 4 5 4 5 4 3 1 2 3 2 2 3 4 3 3 3 7 6 6 5 5 6 6 5 5 6 6 5 6 6 7 8 8
21 20 20 20 21 21 19 17 20 19 10 9 3 4 3 2 5 7 8 4 4 5 6 6 5 4 2 2 1 3 4 2 1 3 2 3 7 6 6 6 6 6 7 7 8 8 8 9 9 9 10 8 8 8
19 19 19 21 21 22 22 19 21 15 7 3 4 6 4 5 6 4 7 4 2 4 8 7 4 3 2 3 1 3 2 2 3 3 1 4 8 7 6 5 7 7 9 10 9 9 10 10 10 8 8 7 8 8
19 20 21 21 22 23 22 20 19 11 2 2 3 4 5 2 2 2 3 4 2 8 7 5 3 2 2 2 1 1 3 3 3 1 3 6 9 7 6 7 7 7 8 9 9 9 9 9 9 8 6 7 7 7
18 18 22 25 26 25 20 18 8 3 1 1 2 3 3 4 3 4 3 3 3 7 3 2 3 3 3 2 3 4 2 2 3 3 5 8 8 7 7 7 9 9 10 10 9 10 10 9 9 9 7 6 5 5
19 14 27 37 33 29 27 9 3 2 1 2 2 1 2 3 4 3 1 2 0 5 2 2 4 2 3 2 3 2 1 2 5 6 6 7 8 8 9 9 9 9 9 8 8 7 7 6 5 4 3 3 3 3
13 24 25 34 48 33 6 3 3 2 2 2 2 4 2 2 4 3 2 1 1 2 2 1 2 3 2 2 2 3 3 5 6 6 6 7 10 10 9 9 8 7 7 6 5 5 4 3 1 1 1 1 1 2
28 44 45 49 38 17 3 3 2 3 3 3 4 4 3 3 4 3 3 4 4 3 3 1 1 1 1 1 3 5 8 6 7 6 6 8 9 9 9 9 8 7 7 6 5 3 2 1 3 4 3 4 6 6
28 29 24 24 14 6 5 3 2 3 3 3 3 4 3 3 3 3 4 2 2 2 2 1 1 2 1 2 3 7 7 8 8 8 6 6 8 8 7 6 5 6 5 4 3 2 2 2 2 1 3 4 7 7
18 13 17 16 7 9 4 3 3 3 4 3 5 3 4 3 3 2 2 2 2 2 2 1 3 3 3 7 11 13 13 10 5 4 6 6 7 7 6 5 5 4 4 4 4 3 3 4 2 3 4 4 4 4
7 10 6 8 5 4 3 3 4 4 3 4 3 3 4 3 3 2 1 2 2 2 1 4 5 6 8 9 11 12 12 10 9 12 11 12 6 5 4 4 4 3 3 3 4 4 3 2 2 3 4 4 4 3
9 7 6 5 4 3 4 1 3 2 4 4 3 4 2 2 2 2 2 2 2 2 6 8 10 11 15 16 15 12 10 11 10 10 9 7 7 5 5 4 2 2 3 2 2 3 3 2 2 2 4 4 5 5
6 4 3 3 3 4 3 2 3 4 3 3 3 4 3 3 3 1 3 3 3 9 7 12 14 10 13 12 8 10 8 9 11 9 8 7 6 5 3 3 2 2 1 0 1 2 2 3 3 5 4 5 5 5
3 5 3 4 2 4 4 4 3 3 3 3 4 3 4 3 3 3 4 4 7 7 7 12 11 9 7 6 8 8 6 7 8 8 5 4 6 5 4 2 1 1 1 2 3 4 5 5 5 6 6 6 6 6
6 5 4 2 2 2 3 4 4 4 4 3 2 3 3 3 4 3 3 7 8 8 8 9 8 7 6 10 8 9 7 6 7 7 4 3 2 2 3 4 4 2 1 1 3 5 5 5 5 6 6 6 6 6
4 3 3 3 1 3 4 3 3 3 3 4 5 5 4 4 3 2 3 3 5 12 11 10 10 10 11 12 10 9 8 6 5 6 7 5 3 2 2 2 1 0 1 1 2 3 3 3 4 4 4 5 6 6
3 4 3 3 4 4 3 3 2 2 2 1 4 2 4 1 2 2 2 4 12 15 13 12 11 13 14 12 12 12 10 11 12 11 9 7 5 5 5 4 3 2 1 2 2 2 2 4 5 5 6 7 8 7
3 2 2 4 4 4 5 3 2 2 2 0 2 2 2 2 3 1 4 10 13 15 15 14 12 13 15 14 11 8 10 8 6 3 2 1 2 1 2 2 2 2 3 2 4 4 5 6 5 6 7 8 8 9
2 2 3 3 3 3 3 2 2 2 3 3 3 3 3 3 5 5 8 10 11 12 11 12 13 11 12 11 11 8 7 3 2 1 0 1 2 4 3 1 1 2 2 3 3 4 5 5 6 7 8 9 9 10
1 2 3 3 3 4 4 2 3 3 2 3 3 5 5 3 5 10 8 6 9 12 14 13 10 9 10 11 9 8 5 2 4 4 5 6 6 4 2 1 1 2 3 4 5 5 6 6 7 8 9 11 11 11
3 3 3 4 3 3 0 1 2 3 2 3 3 2 2 3 3 3 4 4 8 10 9 10 11 8 10 9 8 6 5 11 9 8 6 5 4 3 2 1 2 4 5 6 6 7 8 8 9 10 12 12 13 13
3 2 3 4 4 4 3 2 2 3 2 2 2 2 2 2 3 2 3 5 4 9 11 11 13 14 11 10 11 13 11 9 8 7 6 5 5 4 3 3 4 5 7 7 7 8 9 9 10 11 11 12 13 13

GFSWCAN_925_spd_099.txt.gz
Wind_Speed
20 26 27 25 25 24 24 18 17 16 14 12 13 15 10 10 10 6 2 12 5 3 9 8 8 7 8 6 7 11 7 6 6 6 5 5 4 6 4 5 6 7 6 5 3 2 4 19 7 7 6 8 10 10
21 24 29 23 23 22 23 20 18 17 14 14 11 13 11 10 11 7 3 5 12 5 6 12 16 19 17 14 8 4 2 5 4 4 6 3 3 2 6 1 9 2 5 3 6 3 4 8 9 7 6 7 8 8
23 26 25 24 25 23 23 21 18 19 15 15 15 15 13 10 12 11 7 6 4 1 7 12 6 1 6 12 13 5 1 5 3 3 2 2 4 4 3 4 4 3 7 3 4 5 7 7 8 9 8 8 7 7
23 24 23 21 23 26 21 21 18 18 16 16 14 16 12 9 12 13 12 7 5 4 3 0 2 2 2 5 11 15 10 6 7 4 2 2 3 4 3 4 2 4 7 5 4 7 8 9 9 8 8 8 8 8
22 25 23 22 23 26 23 23 21 17 16 16 13 15 11 10 11 12 11 12 11 5 3 5 15 4 2 5 8 11 12 7 3 4 3 4 4 4 4 3 3 4 4 4 3 3 4 5 6 7 8 7 8 7
22 25 25 22 25 27 24 22 22 18 17 15 14 12 10 12 10 7 2 12 17 11 3 3 1 4 1 4 8 8 9 6 2 3 4 3 5 3 3 2 3 4 5 6 2 7 9 7 4 4 5 7 7 7
22 25 23 22 25 25 23 20 19 17 17 15 14 11 11 12 12 5 1 5 15 13 2 3 2 3 1 3 3 4 3 1 4 2 4 5 5 2 2 2 6 4 4 6 5 5 5 5 3 3 4 4 5 7
25 26 26 22 23 23 23 22 19 17 16 14 13 11 11 13 10 12 15 3 15 7 2 3 2 4 8 3 3 4 3 3 4 3 3 5 4 2 1 5 6 5 4 5 4 4 6 4 3 4 3 3 3 5
26 25 25 23 24 22 21 20 18 16 15 13 9 8 8 8 6 6 10 6 9 3 2 2 3 0 5 3 2 4 3 4 4 3 3 3 3 1 3 3 5 4 1 3 3 3 4 4 4 5 6 6 6 6
24 26 25 25 25 23 23 20 19 15 12 9 8 5 3 7 22 24 6 2 2 3 4 3 4 3 4 4 4 3 3 3 3 4 3 2 1 6 6 7 5 2 2 3 4 2 3 1 3 5 6 6 6 6
24 26 26 26 25 25 23 19 20 17 12 7 5 3 10 31 5 3 3 4 4 3 4 4 8 5 5 4 4 4 2 2 3 4 3 3 2 4 5 5 4 3 4 6 6 6 4 3 2 3 4 5 6 6
25 24 24 24 26 24 21 20 23 20 9 8 5 5 7 3 3 5 6 4 5 5 6 5 5 2 2 1 2 2 2 2 3 4 2 3 4 7 6 5 4 4 5 6 6 6 6 6 5 6 6 8 8 7
22 21 24 26 23 20 21 23 22 16 12 4 3 4 3 3 5 6 8 4 5 4 5 6 5 3 2 2 1 2 3 2 1 2 2 3 7 6 6 5 5 7 6 7 8 8 9 9 8 8 9 7 6 7
23 22 23 23 21 20 20 21 21 14 3 3 5 6 5 5 6 4 5 4 3 4 7 6 4 2 2 3 1 3 2 2 3 3 1 4 7 7 6 5 6 6 8 8 8 9 9 9 10 9 8 6 6 6
22 21 20 20 22 25 23 20 19 13 3 3 3 5 4 2 3 3 4 4 3 7 8 5 3 3 3 2 2 0 3 4 3 2 2 6 9 7 6 6 7 7 7 7 7 8 8 8 7 7 6 5 5 4
22 17 18 22 22 23 22 20 15 8 3 2 2 3 3 4 3 3 3 3 4 6 6 2 3 3 3 2 3 4 3 2 3 3 5 7 8 7 7 7 8 8 7 7 7 7 6 5 5 5 4 3 3 3
22 10 20 24 23 22 22 10 5 4 2 2 2 2 3 3 3 3 1 3 2 3 2 2 4 2 3 2 3 2 2 3 5 6 5 8 8 8 9 10 9 8 8 7 7 7 6 5 5 5 6 5 4 2
14 19 26 27 28 22 8 2 2 1 2 1 1 3 2 2 4 3 2 4 4 2 1 1 1 3 3 2 2 3 3 5 6 6 6 7 10 11 10 9 8 7 7 6 6 6 5 3 3 2 1 2 4 5
23 23 29 35 24 8 3 3 3 2 2 3 3 2 3 3 3 4 3 2 3 1 2 1 0 2 1 2 3 5 7 7 7 7 6 10 10 9 9 8 7 6 6 6 4 2 1 1 4 5 6 6 8 8
35 35 36 41 30 4 4 3 3 2 3 3 3 4 3 4 3 4 4 2 2 1 1 1 1 2 2 3 3 7 6 8 8 8 7 7 9 9 8 7 5 6 4 3 2 2 2 3 3 4 6 8 9 11
35 43 53 45 4 3 2 3 3 2 3 3 6 4 3 4 3 2 3 1 1 2 3 2 3 4 4 7 11 12 12 11 6 5 7 6 9 8 7 5 4 3 3 2 3 2 3 6 5 6 7 8 8 9
21 30 19 10 3 4 3 0 5 5 3 4 4 3 3 3 3 3 3 2 2 2 2 3 5 7 8 8 11 12 12 11 10 12 13 12 6 6 5 4 3 2 3 2 4 5 5 4 5 6 7 8 7 8
15 12 9 7 3 3 3 1 3 3 4 5 4 4 3 3 3 4 2 1 2 1 5 8 11 11 13 14 14 12 11 11 10 10 9 7 7 5 4 3 1 1 3 2 3 4 4 3 5 5 8 8 8 9
7 5 4 3 4 4 4 3 3 4 3 4 4 4 5 3 4 3 3 3 3 7 6 11 13 10 13 13 8 10 9 9 10 9 7 7 6 5 3 3 2 2 2 3 3 4 5 6 5 8 8 9 10 9
4 4 2 4 2 5 4 6 4 4 3 4 4 3 4 4 4 5 4 5 7 7 8 13 12 10 8 7 11 9 7 8 8 8 5 4 6 5 3 2 2 2 3 4 5 5 7 6 8 9 9 10 10 10
4 1 1 2 4 4 5 5 6 6 5 4 3 4 4 4 4 3 2 6 7 8 8 9 8 7 7 10 8 10 8 7 8 8 6 4 2 1 1 2 3 3 2 3 5 6 6 6 7 7 8 8 6 7
4 3 2 2 1 4 4 3 4 3 3 4 5 6 5 4 4 3 2 3 6 13 13 11 11 11 11 13 13 12 10 9 8 9 8 6 6 5 3 3 2 3 3 3 3 4 4 5 6 6 7 8 8 9
4 3 3 2 3 3 3 3 2 2 3 1 5 4 4 1 3 2 3 1 13 14 14 12 12 14 15 14 14 13 12 11 11 10 10 8 7 6 5 4 3 2 2 3 2 3 4 5 7 8 9 9 10 10
3 2 3 4 4 4 4 3 2 3 2 2 3 3 3 3 2 3 6 10 15 16 15 16 15 16 16 14 12 11 10 8 6 4 2 2 3 3 2 3 2 2 3 3 6 4 5 6 7 8 9 10 11 12
3 2 3 3 3 3 3 3 4 3 3 4 4 4 6 5 5 3 6 9 12 12 13 14 15 13 14 13 12 10 7 5 4 2 0 2 4 4 3 2 2 3 3 4 5 6 7 7 8 9 10 11 12 13
1 2 3 3 3 5 5 5 7 6 3 4 4 7 6 4 5 9 10 10 13 14 15 14 12 11 11 11 10 9 6 3 5 6 7 7 6 4 3 2 2 3 4 5 5 6 8 9 9 11 12 13 14 14
2 2 3 3 3 4 3 2 2 3 3 4 4 4 4 4 3 3 4 3 9 10 11 12 13 12 10 9 8 8 9 11 9 8 7 6 5 4 3 2 3 4 5 6 7 8 9 10 11 12 13 14 14 14
3 4 5 4 4 5 3 3 3 3 3 3 3 2 3 3 4 3 3 6 5 12 13 13 13 13 12 11 11 12 11 9 8 7 7 6 5 4 4 3 4 5 7 7 8 9 10 11 11 12 12 13 14 14

GFSWCAN_925_spd_102.txt.gz
Wind_Speed
30 25 27 24 23 23 19 17 15 14 14 13 14 12 8 5 7 4 1 2 1 3 8 9 6 7 7 8 7 12 7 5 5 7 5 5 4 5 5 13 10 8 6 5 6 6 4 22 7 7 3 5 8 10
22 22 23 27 23 24 22 19 16 14 13 14 12 14 11 7 9 7 1 2 1 2 6 14 15 17 16 14 8 8 6 6 5 4 5 4 3 4 7 3 10 4 5 3 5 3 3 9 9 7 6 6 5 7
20 21 27 29 23 22 21 22 16 15 14 16 12 10 11 7 9 10 2 6 3 1 7 10 7 5 7 8 8 5 4 5 3 2 2 2 4 4 5 4 3 4 8 3 5 6 7 8 8 8 7 5 6 8
21 21 28 26 21 20 21 21 16 15 15 14 15 10 13 8 7 11 8 5 3 3 3 2 1 2 2 4 6 11 11 10 7 3 3 1 3 5 4 5 5 5 5 4 5 8 9 8 7 7 7 7 7 8
21 22 25 24 20 23 24 21 18 15 15 15 15 12 11 8 7 8 10 10 10 4 3 6 13 12 3 5 6 7 8 7 6 3 2 3 3 4 4 2 5 6 3 2 2 3 3 4 4 6 6 7 8 9
20 21 22 21 23 21 26 21 19 15 12 15 14 12 12 7 8 6 2 11 14 8 3 3 0 6 5 3 6 6 5 4 4 3 4 3 4 3 3 2 3 4 7 4 3 5 7 5 3 1 7 8 9 10
21 22 22 20 20 24 26 21 19 16 14 14 12 11 7 9 11 5 1 4 3 12 2 4 2 3 0 2 1 1 2 0 2 3 3 6 6 2 2 2 5 4 7 8 4 6 5 4 4 5 5 5 6 11
21 22 23 20 19 24 23 20 19 16 15 14 11 8 6 7 7 8 10 1 12 5 3 3 3 4 7 3 2 3 2 1 2 3 3 5 4 2 1 8 7 5 6 5 4 5 6 4 4 6 6 7 5 9
20 22 24 23 20 23 22 20 19 16 17 15 11 7 5 3 3 3 6 6 4 3 2 3 3 2 3 3 2 3 3 3 4 4 3 2 2 2 4 2 8 6 3 5 3 4 6 6 6 8 9 9 9 9
22 23 24 22 21 21 21 21 19 18 19 15 9 4 3 8 9 14 6 3 2 3 3 3 4 4 4 4 2 3 2 3 3 6 2 2 3 8 6 7 7 4 4 6 3 3 2 3 5 7 8 9 9 8
23 26 23 23 23 23 21 21 21 22 18 9 4 3 6 20 8 3 3 3 4 3 4 4 8 6 4 4 4 4 3 3 2 3 2 3 3 3 4 6 6 6 6 7 8 8 9 8 5 6 7 9 10 11
22 26 26 25 25 23 24 23 24 18 9 10 3 3 6 3 3 5 6 4 5 4 5 5 4 4 1 1 3 2 1 2 2 3 1 2 3 7 7 7 7 9 9 9 10 10 10 10 9 10 11 11 10 8
25 28 28 26 26 26 25 21 23 17 9 2 1 3 3 4 6 6 8 4 5 3 4 4 3 2 3 2 1 1 2 2 2 1 1 3 7 7 7 7 9 9 8 10 11 12 12 13 13 11 10 8 8 7
27 28 27 27 27 26 24 21 24 13 4 2 3 5 5 5 5 4 5 4 3 4 5 5 3 2 2 2 0 2 1 2 2 3 3 4 9 8 8 7 7 6 9 11 10 11 10 10 11 10 9 7 6 6
25 25 27 28 26 23 22 23 23 6 1 3 3 5 6 2 5 4 4 4 3 5 6 5 2 1 2 2 3 2 2 3 2 3 3 6 9 8 7 7 7 7 6 8 9 9 8 7 7 7 6 6 4 4
26 25 24 27 24 23 24 21 10 5 3 3 4 2 3 4 2 1 5 3 0 5 5 1 3 2 2 2 3 3 3 1 3 3 5 7 8 8 8 7 8 8 8 9 8 7 7 5 3 5 3 2 1 0
25 13 23 24 24 24 23 9 4 5 3 3 1 2 3 4 4 2 3 2 2 4 2 2 2 2 3 3 3 1 2 3 6 5 5 8 7 8 9 9 8 8 8 8 7 6 4 2 3 5 7 7 6 8
15 15 23 25 28 26 5 4 3 3 4 1 2 2 2 3 4 3 2 2 2 1 1 1 1 2 3 2 2 3 4 6 6 6 6 7 12 11 11 11 8 7 7 6 5 5 5 6 8 7 3 5 6 9
15 20 30 32 27 12 4 3 3 2 1 2 2 2 2 2 3 4 2 0 2 4 1 1 1 2 2 2 3 6 6 6 6 6 6 10 11 10 10 9 7 7 7 6 6 5 5 1 4 5 6 7 9 10
17 23 30 28 22 5 3 3 5 2 2 3 3 3 2 2 2 2 1 2 2 2 2 1 2 2 2 2 3 6 6 8 7 7 7 7 9 9 9 9 8 8 6 5 4 3 4 5 4 2 3 5 7 8
19 20 29 21 5 2 1 3 3 2 3 2 4 3 2 3 3 3 3 2 1 1 2 2 4 4 5 9 12 12 11 11 6 6 7 7 11 9 7 5 4 4 3 3 2 2 3 5 5 4 6 7 6 7
16 26 11 9 2 3 2 2 4 5 2 4 4 3 3 3 3 2 4 2 1 2 1 4 6 6 6 7 10 12 11 14 16 17 16 14 6 7 7 6 5 4 2 2 2 4 5 6 5 5 8 6 7 10
34 16 10 4 3 2 2 5 2 6 4 5 4 3 2 2 3 4 3 1 2 2 4 8 12 12 13 13 13 11 11 12 11 11 10 10 9 8 6 4 1 0 2 1 1 3 3 4 5 2 6 10 9 11
29 5 6 5 3 4 3 5 3 3 4 4 5 4 4 3 4 3 3 3 3 7 7 11 14 9 13 13 8 11 10 11 12 10 9 9 8 6 5 5 3 3 3 4 3 4 5 5 4 7 9 10 11 10
6 2 3 5 4 6 4 5 4 3 4 4 4 3 4 4 4 5 3 5 7 6 6 11 12 10 8 7 11 10 8 10 11 10 6 7 9 6 5 4 3 2 2 4 4 6 7 6 6 8 10 11 12 12
4 2 1 3 5 5 6 5 6 5 5 4 4 4 3 4 5 3 2 5 6 7 7 7 7 7 7 13 8 10 8 9 12 10 7 6 3 1 1 1 2 7 5 4 5 6 7 5 6 7 8 10 9 7
2 2 2 1 1 4 3 2 5 4 5 5 5 7 5 4 4 3 2 3 5 11 11 10 10 10 10 14 17 15 10 9 11 12 10 8 7 6 6 5 6 5 4 3 3 4 5 5 6 7 9 10 10 11
2 0 5 3 3 2 2 3 3 4 3 1 7 6 5 2 3 2 3 3 12 12 10 9 12 19 20 18 16 14 12 15 16 15 14 11 8 7 7 6 6 4 3 4 3 3 4 5 7 8 10 11 13 13
3 3 4 5 3 3 2 1 2 2 3 2 2 3 3 3 3 3 4 11 16 17 16 16 16 20 20 16 13 12 12 11 10 6 4 5 8 5 4 4 3 3 3 3 5 6 4 8 7 9 10 10 12 14
3 0 3 3 2 2 2 4 3 2 2 4 4 4 5 5 5 6 5 10 11 13 14 14 15 15 15 15 13 11 8 6 7 4 2 4 7 7 4 3 3 3 4 4 5 6 6 8 10 11 12 13 14 15
2 2 3 3 3 4 4 5 5 4 2 3 5 7 6 4 4 9 13 11 18 18 16 15 13 13 13 13 13 12 9 6 9 9 10 11 9 7 5 4 2 3 4 5 6 7 9 11 12 13 14 15 16 15
2 2 4 3 3 4 4 3 2 3 4 4 3 5 6 5 4 3 5 6 9 10 13 14 14 13 13 13 12 11 12 14 12 11 10 9 8 6 5 4 5 4 5 7 7 8 10 11 12 13 14 14 15 15
3 4 5 4 4 6 3 4 3 3 3 4 4 2 2 2 4 3 2 9 6 13 15 17 15 14 14 14 15 16 14 13 11 11 10 9 8 8 5 2 4 5 6 7 8 9 10 10 11 12 13 14 13 13

GFSWCAN_925_spd_105.txt.gz
Wind_Speed
24 24 21 21 18 21 22 21 20 16 16 15 12 11 9 8 7 4 6 4 2 2 5 5 6 4 5 4 2 5 5 5 5 6 4 3 3 4 2 4 4 4 4 4 4 4 3 20 7 6 2 5 8 9
24 27 25 24 22 23 19 19 19 15 16 13 14 14 8 6 9 6 3 3 3 3 4 9 18 19 13 5 1 4 0 4 3 3 3 3 3 4 5 3 7 4 3 2 5 4 4 9 10 8 6 4 3 4
27 28 28 24 24 23 21 19 16 15 13 14 14 13 10 5 8 6 5 4 5 2 4 1 5 3 8 12 8 2 2 4 3 4 2 2 2 3 3 2 3 4 4 3 2 5 8 9 9 8 6 6 4 6
22 23 23 28 23 23 20 19 16 14 13 14 13 12 11 6 7 8 2 2 2 1 1 3 7 1 5 6 8 9 5 4 3 1 1 1 1 2 2 2 3 3 4 4 4 8 8 8 8 7 7 7 6 9
19 21 25 29 24 21 20 20 16 15 15 13 13 8 12 8 4 7 6 5 6 2 2 4 15 12 9 13 5 5 3 2 1 3 1 2 2 3 3 3 3 4 3 1 2 4 4 3 3 3 6 7 9 10
20 20 25 27 23 23 21 22 19 15 14 13 14 12 11 7 6 5 2 6 12 6 2 3 5 3 5 3 4 5 5 2 1 0 2 3 2 2 1 2 3 3 5 4 3 5 7 5 3 4 7 6 12 12
20 22 22 25 21 21 25 21 19 14 13 15 15 11 10 6 10 1 1 3 4 9 0 3 3 5 5 4 2 2 3 1 2 1 2 2 3 2 1 2 4 6 7 7 6 7 5 5 4 6 6 9 18 18
20 21 22 21 22 20 25 21 19 15 14 15 15 12 8 6 5 4 5 4 10 3 1 2 3 1 2 1 1 2 2 2 1 2 3 2 3 1 2 7 7 6 8 6 5 5 6 8 13 13 18 17 13 11
22 22 22 20 20 24 24 21 18 15 16 16 14 10 7 3 2 2 3 2 2 1 1 2 2 1 2 2 2 1 2 1 2 2 3 2 2 3 3 5 8 7 5 5 5 8 8 9 11 11 9 9 9 8
21 23 25 22 21 24 22 21 19 18 18 18 11 3 1 5 8 13 3 1 1 2 2 3 2 2 3 1 1 2 1 2 1 4 1 3 2 3 8 7 6 7 9 9 3 5 5 8 8 8 7 9 11 11
20 22 23 23 22 24 23 22 19 19 20 6 3 3 3 14 7 2 2 3 3 3 4 4 5 3 1 2 2 3 2 2 1 1 3 2 3 2 8 9 9 12 11 12 14 12 13 8 8 8 9 13 13 12
20 22 25 24 23 23 23 22 22 19 9 9 7 3 8 3 2 4 4 2 4 4 3 4 3 3 1 1 2 2 2 2 2 1 2 1 3 7 9 9 8 12 14 15 17 16 17 17 16 15 12 12 12 10
22 25 24 25 25 23 23 25 28 12 11 5 1 2 3 3 5 5 7 3 4 2 2 2 1 3 3 2 1 1 1 3 1 1 2 2 7 7 8 8 9 14 17 17 15 15 15 15 14 14 14 12 11 9
25 26 26 26 26 25 25 27 25 8 4 1 3 4 3 4 4 4 4 4 4 4 4 3 2 3 2 2 1 2 3 2 1 1 2 4 8 8 8 7 8 5 12 13 13 14 13 13 13 11 10 8 6 5
25 26 26 27 27 27 24 19 19 8 2 1 2 4 5 3 1 2 1 3 1 3 3 3 2 3 1 2 2 1 1 2 3 2 2 5 8 8 8 7 6 5 11 11 12 11 10 10 10 9 7 5 5 4
28 28 22 30 28 25 22 21 10 3 1 2 3 3 2 3 0 2 2 3 1 2 2 2 2 2 2 2 2 4 1 1 2 2 4 7 7 7 6 8 12 10 11 13 11 10 8 7 7 8 4 1 1 2
23 7 27 30 26 25 27 13 3 2 2 3 2 2 3 1 2 1 3 1 1 3 2 2 3 4 2 1 2 2 1 2 5 5 5 8 7 6 11 11 11 11 12 12 11 9 6 3 4 4 6 7 6 7
14 28 32 30 31 23 8 3 3 4 5 2 2 1 2 2 2 1 0 2 2 1 1 2 2 2 3 3 1 3 3 4 5 6 6 6 12 16 15 13 11 12 12 10 10 7 5 5 7 11 10 8 9 10
26 31 31 33 28 9 4 3 3 2 1 1 1 1 1 1 2 2 2 3 3 2 1 2 2 1 2 2 3 5 6 3 5 4 5 14 16 14 14 12 11 12 11 8 7 8 10 8 5 3 4 7 7 9
25 31 34 33 23 3 3 2 6 1 2 2 1 1 1 2 1 1 2 2 1 1 1 1 2 2 1 1 2 6 6 9 7 6 6 6 12 13 13 14 12 12 9 8 6 4 4 6 3 3 4 5 4 4
25 26 31 25 3 2 1 3 3 2 3 2 3 1 2 1 1 1 1 2 2 1 1 2 3 3 9 10 14 16 15 15 6 4 6 5 14 14 12 10 14 12 11 12 9 11 5 6 10 7 5 3 3 6
12 20 6 6 1 1 2 3 4 4 2 2 2 2 1 1 2 2 2 1 2 1 2 3 4 4 3 4 10 14 14 14 17 19 18 17 5 10 11 11 9 6 3 4 6 8 8 5 3 2 5 5 8 8
17 9 4 3 2 2 3 3 2 4 3 3 2 2 1 1 1 2 2 1 1 1 5 8 14 13 12 18 19 16 17 18 14 16 17 13 14 15 13 10 8 7 11 10 7 7 6 3 2 3 5 7 9 10
11 3 3 3 4 3 2 2 2 3 2 3 3 3 3 2 1 1 3 2 2 2 4 8 14 8 11 11 3 9 15 22 19 20 18 18 14 14 14 11 8 6 6 5 4 3 3 4 3 3 5 7 9 11
5 5 3 4 2 4 4 4 3 2 3 4 3 2 2 2 2 3 3 3 2 2 4 11 10 8 5 2 9 17 20 22 17 12 11 16 17 13 12 10 9 6 3 3 6 6 7 4 4 7 9 9 12 10
4 5 5 7 4 4 4 4 5 5 3 3 3 2 3 3 4 4 1 2 2 4 6 7 4 4 4 13 6 12 15 22 22 17 13 12 10 9 12 12 10 7 2 1 1 3 6 6 6 7 7 9 11 11
5 4 3 1 2 2 2 1 3 3 4 4 3 4 5 5 5 1 1 4 2 11 15 14 16 12 12 15 20 18 17 18 19 17 13 10 8 6 7 14 14 7 2 2 1 1 3 5 6 7 9 10 10 12
1 1 4 3 2 2 2 2 4 4 3 0 5 5 5 2 2 2 1 3 15 17 19 18 21 27 26 24 24 24 24 22 19 16 16 15 11 10 9 9 8 5 5 6 5 2 2 4 5 7 9 13 12 12
1 2 3 4 3 3 3 3 2 2 2 2 1 3 2 2 5 6 4 13 21 23 20 19 19 25 23 20 18 19 18 18 19 5 4 3 7 8 6 5 4 5 5 4 5 6 8 7 9 12 14 14 14 11
2 2 3 2 2 2 1 2 2 0 1 3 4 2 2 3 8 15 7 12 13 14 16 18 19 19 18 18 17 17 13 10 8 5 6 6 11 11 8 6 5 5 2 1 2 3 4 8 8 9 11 12 15 15
2 2 3 3 2 2 2 1 1 1 2 3 4 3 3 2 3 12 15 9 20 20 19 15 16 17 18 18 17 15 11 8 9 10 14 16 14 11 8 5 4 3 1 2 3 5 7 9 8 10 13 13 12 14
0 1 3 3 2 1 2 2 2 2 1 2 2 2 1 2 2 4 8 10 14 14 13 15 17 16 16 15 13 8 10 18 15 13 13 12 12 10 8 7 3 1 3 3 4 6 7 7 10 11 10 11 14 14
2 3 3 3 2 3 3 2 2 2 2 2 2 3 2 3 3 1 6 7 9 20 23 21 20 19 17 17 18 20 19 17 14 13 13 12 11 9 5 2 2 3 4 5 4 5 6 9 8 9 11 12 12 13

GFSWCAN_925_spd_108.txt.gz
Wind_Speed
24 26 28 26 24 23 24 26 24 21 19 16 14 13 12 12 11 8 7 7 3 2 4 3 3 2 2 2 2 4 4 4 4 5 3 3 2 3 2 4 3 4 4 4 3 4 3 18 5 5 4 4 5 6
25 26 25 22 23 23 28 26 22 20 18 17 17 14 13 14 12 8 5 7 4 5 4 3 10 14 8 6 4 2 3 2 1 3 2 2 2 3 4 2 6 4 3 3 5 3 3 5 8 8 5 5 5 6
30 28 25 25 27 26 24 25 20 19 18 16 18 15 12 13 11 8 8 4 4 2 3 3 2 5 5 12 9 3 2 2 2 4 3 2 1 2 3 2 2 5 4 3 3 4 7 7 7 8 5 3 5 8
32 31 26 27 26 25 23 22 19 17 17 19 15 15 11 11 12 10 6 5 4 2 3 4 8 0 3 8 12 10 4 0 1 1 1 1 0 1 2 1 3 1 4 3 4 6 7 7 6 5 7 8 13 14
32 32 29 28 26 24 22 20 18 17 18 18 17 14 12 9 10 10 5 2 3 3 1 4 13 5 7 11 10 9 5 1 1 2 2 1 2 2 2 2 3 4 2 1 2 5 3 4 2 3 7 8 9 10
28 28 32 26 25 23 21 19 18 18 17 17 14 13 12 9 11 8 3 2 4 1 1 2 4 4 4 9 6 5 4 1 2 2 2 3 3 2 2 2 2 3 6 2 3 2 4 4 4 1 6 10 14 14
22 25 30 27 26 22 22 21 19 17 15 17 16 13 10 8 9 3 2 1 4 6 1 3 4 4 2 4 3 2 3 1 2 0 1 1 3 2 2 2 3 6 7 8 5 7 5 3 6 7 16 18 19 17
24 25 27 26 25 26 23 21 18 17 17 17 14 12 8 7 5 2 3 5 10 5 2 1 2 2 3 1 1 0 1 3 2 1 2 1 3 2 2 7 8 7 7 6 4 8 12 11 14 14 15 15 11 9
23 25 26 23 24 28 24 22 18 18 19 20 16 13 9 3 3 2 7 9 5 4 1 1 1 2 2 0 1 2 2 1 1 1 2 2 2 3 2 4 6 6 3 6 9 11 10 11 8 8 8 9 9 8
24 26 26 27 25 27 25 22 20 21 22 21 12 3 2 3 8 12 3 2 1 1 1 2 1 2 3 1 1 1 1 2 1 3 1 3 2 4 7 7 6 6 7 4 6 7 6 6 7 7 8 9 10 8
24 26 25 25 26 27 25 23 22 23 20 3 3 1 4 15 5 3 2 1 1 2 3 3 4 3 1 2 3 2 2 1 0 1 3 2 3 3 7 10 8 11 14 13 12 9 9 9 9 9 9 10 9 7
25 26 25 25 28 26 26 24 25 19 9 6 9 6 7 2 2 3 3 1 4 4 3 4 4 4 1 2 2 1 1 2 2 1 2 0 1 8 8 9 9 12 14 13 13 13 14 14 13 12 10 9 9 8
26 27 26 27 29 26 26 25 24 14 13 6 2 2 2 2 4 5 5 3 2 3 3 2 2 3 2 3 1 2 3 3 1 1 2 2 6 7 8 8 8 12 14 14 12 12 12 12 10 12 13 11 9 7
24 27 26 26 27 26 25 24 20 14 3 2 2 3 3 3 4 4 4 4 4 3 4 3 2 2 1 2 1 1 3 2 1 1 4 3 8 8 6 6 8 4 10 11 12 13 14 15 14 12 10 7 5 4
24 25 25 27 25 25 26 24 14 6 3 1 2 3 5 4 2 1 1 0 1 3 4 3 3 3 1 3 2 1 1 2 4 3 3 4 8 8 7 7 7 5 10 11 13 14 13 12 12 10 7 5 5 6
25 25 21 28 26 26 27 18 9 2 2 0 2 2 3 1 0 1 1 1 1 3 2 2 2 3 2 2 2 4 3 4 3 2 3 7 7 5 6 8 13 15 14 14 13 12 10 10 10 8 6 5 4 5
24 7 27 29 29 27 23 8 3 2 1 2 3 2 3 3 1 0 0 1 2 3 2 2 3 5 2 0 3 2 2 1 4 4 3 5 7 7 12 15 13 15 14 13 12 11 10 8 7 8 9 7 8 7
12 32 33 33 31 21 6 3 3 2 3 3 0 1 2 2 1 1 1 1 2 2 2 2 3 2 4 4 3 3 2 3 3 4 3 5 14 18 18 15 13 13 14 13 12 10 8 8 8 10 11 10 4 3
33 37 35 33 26 9 4 3 3 3 3 1 1 1 1 2 1 1 1 4 1 1 2 2 3 2 3 2 2 2 5 3 3 2 3 15 19 19 18 14 12 14 13 13 11 10 9 8 8 7 4 6 6 4
34 34 30 29 14 2 3 0 5 2 2 3 1 1 1 1 2 2 2 2 2 1 2 1 1 1 2 2 1 3 4 8 7 6 4 4 16 16 16 14 14 14 12 10 9 8 8 10 11 7 6 2 1 3
26 25 27 20 1 3 1 3 2 2 2 2 2 2 1 2 1 2 1 1 2 1 2 1 1 2 5 7 13 15 14 15 6 4 6 6 13 16 16 15 12 13 12 11 9 9 2 5 9 5 1 2 2 5
13 19 9 7 2 2 1 4 3 2 2 1 2 2 1 1 2 2 1 1 2 2 3 3 3 3 3 3 8 14 18 16 14 15 17 18 6 8 11 16 15 14 14 13 11 9 11 9 5 2 1 3 5 5
18 8 3 1 2 2 3 2 3 2 3 3 2 2 0 1 1 1 1 2 2 2 3 3 7 13 10 12 14 14 18 18 12 13 17 18 17 16 13 11 10 13 14 9 7 9 7 4 2 0 1 2 4 5
11 4 3 3 4 3 1 1 1 2 2 2 2 2 2 1 1 1 2 2 2 2 2 6 13 6 8 10 3 10 14 18 18 17 20 18 12 14 17 16 13 11 9 9 7 6 4 4 2 0 4 7 7 7
5 4 4 6 2 3 1 2 1 2 3 4 3 2 3 2 1 2 3 3 1 2 4 10 8 7 3 2 6 14 18 24 17 12 14 21 21 19 16 14 11 8 4 4 4 4 5 3 1 3 5 6 8 8
2 5 7 4 2 4 4 3 4 5 3 2 3 2 2 2 1 5 2 2 2 3 5 8 5 3 2 9 6 11 15 21 24 15 9 18 20 20 15 12 10 5 2 1 1 3 4 3 2 3 5 6 7 9
4 5 3 1 1 1 2 1 2 4 3 4 3 3 3 4 5 2 2 3 1 4 15 18 18 14 11 14 17 19 21 21 19 18 15 12 9 6 13 18 14 7 3 1 1 1 0 2 4 5 7 9 10 11
2 2 4 3 1 0 4 2 4 5 4 1 4 4 5 4 3 2 2 5 11 17 16 14 18 23 26 24 25 24 22 22 22 20 17 15 12 9 9 10 9 7 5 5 5 4 4 4 6 7 8 10 11 7
2 0 2 2 2 2 1 2 3 0 1 1 4 3 2 1 3 5 4 7 16 21 19 17 17 24 25 23 21 21 24 24 20 6 5 3 5 7 8 7 7 7 6 5 3 4 3 5 6 5 6 6 6 8
3 2 3 1 2 2 2 0 1 2 2 3 4 2 2 2 7 6 9 10 13 14 15 17 21 23 19 21 19 15 11 12 9 11 7 6 9 13 9 7 8 5 2 1 1 2 2 4 5 6 8 9 9 10
3 2 3 2 1 0 2 1 2 3 2 2 2 3 3 2 1 11 9 10 15 19 19 15 15 18 21 20 19 17 11 7 7 8 9 14 16 13 10 6 4 2 0 1 0 2 3 3 5 7 8 8 10 10
1 3 3 3 1 2 2 1 1 2 1 2 0 2 3 3 2 5 10 10 18 16 15 17 18 16 17 18 15 8 9 15 14 14 15 16 14 12 9 6 3 1 1 0 1 2 3 4 5 5 7 8 9 10
2 3 3 3 2 0 2 2 1 2 2 2 1 3 2 4 3 2 4 6 13 18 20 20 20 19 17 16 15 17 18 18 16 15 14 13 11 9 6 3 1 1 1 1 1 2 3 3 4 6 7 8 9 9

GFSWCAN_925_spd_111.txt.gz
Wind_Speed
27 29 31 32 32 31 29 29 30 26 22 21 21 21 19 16 15 13 12 10 5 3 1 2 1 4 2 3 3 3 3 4 4 4 2 2 2 2 2 2 3 4 3 3 2 3 2 14 4 3 4 4 6 7
30 29 29 29 29 32 30 30 27 24 22 22 19 19 18 16 14 14 7 10 9 5 3 0 1 4 3 7 4 1 3 1 2 3 1 1 2 3 3 1 4 3 3 2 4 3 3 5 9 8 6 6 4 7
29 29 27 28 29 32 31 27 25 23 21 22 19 18 18 14 12 14 13 8 7 3 3 3 3 5 7 11 5 3 2 2 1 3 3 2 1 1 3 2 1 3 4 3 2 4 7 7 7 6 5 8 9 5
28 27 27 27 30 31 29 26 25 24 24 22 19 17 18 16 16 14 14 11 8 5 3 2 6 3 1 10 11 5 3 2 3 2 1 2 1 0 2 2 2 2 5 3 4 6 6 6 4 5 10 11 12 13
31 29 29 29 29 29 25 24 24 22 24 20 19 16 17 17 16 17 16 12 10 4 3 1 6 5 3 9 9 7 3 2 2 2 2 1 2 2 1 2 2 3 3 1 1 4 3 3 1 5 7 7 8 9
31 31 29 29 28 28 26 25 25 26 22 22 19 16 15 15 14 6 3 7 4 5 3 2 3 4 3 9 7 4 4 2 2 2 2 2 3 2 2 1 2 3 6 2 2 4 5 5 2 7 8 8 11 11
34 32 29 28 26 26 24 24 25 25 22 19 20 16 14 14 11 7 3 3 4 6 3 2 3 3 2 4 2 2 3 2 2 1 1 1 2 2 1 1 5 6 8 7 7 6 6 5 3 12 14 13 15 14
36 33 29 27 26 25 24 24 23 23 23 21 19 16 15 14 12 7 7 6 9 6 4 2 0 1 3 2 1 1 2 2 3 1 1 1 2 2 2 5 8 8 8 6 5 8 8 10 11 11 11 10 8 7
34 32 30 27 26 26 24 23 22 23 23 21 18 17 12 5 4 5 11 10 5 4 2 2 3 2 2 2 1 2 2 2 1 0 2 2 1 2 2 4 6 4 3 10 9 12 10 10 8 6 6 5 7 5
30 28 29 29 28 26 24 22 25 25 25 22 11 4 3 3 13 9 4 3 2 2 1 0 0 1 3 1 1 1 1 1 0 3 2 2 2 4 4 5 6 5 5 8 8 5 5 5 7 6 6 7 7 6
28 27 27 30 29 27 24 24 26 27 19 3 3 2 5 13 3 3 2 1 1 1 2 2 3 2 1 3 2 1 2 0 0 2 3 2 3 2 4 6 5 8 10 9 7 5 6 8 8 8 7 9 8 8
29 29 28 30 29 26 24 26 27 11 5 6 13 8 5 2 2 2 2 0 2 3 3 4 4 3 1 2 3 1 1 2 2 0 1 2 2 5 6 8 7 8 11 11 11 11 12 12 11 11 9 9 8 8
29 29 27 29 28 25 24 26 18 15 17 6 5 3 2 1 2 5 5 3 2 3 3 2 2 3 2 3 2 1 3 3 1 2 3 3 5 6 7 8 7 10 12 11 11 12 12 11 9 10 12 10 9 7
26 26 27 29 27 25 24 22 17 12 4 3 2 4 2 3 3 4 3 3 4 3 3 3 2 2 1 3 2 3 3 1 1 0 4 3 6 8 7 6 6 4 9 10 10 12 12 13 13 11 9 7 4 2
26 25 27 28 26 25 24 19 14 4 4 2 2 2 4 3 3 2 2 1 1 2 3 3 3 2 1 3 1 1 0 3 4 4 3 3 7 8 7 5 6 6 9 10 12 13 13 12 10 8 5 2 0 1
26 24 18 26 25 24 22 15 8 3 3 1 0 1 2 2 1 1 1 1 1 2 2 3 2 3 1 4 2 4 2 5 3 2 2 6 7 5 5 6 11 14 14 13 13 12 10 8 6 3 2 0 2 4
23 6 24 26 29 25 18 5 2 4 2 1 1 1 2 3 3 1 1 1 1 3 2 2 3 5 1 1 2 3 4 3 2 2 2 4 9 7 10 14 16 15 14 14 12 10 7 5 3 4 6 5 6 7
10 28 30 32 29 18 8 3 3 2 1 2 2 3 2 1 2 1 0 1 2 2 3 2 3 2 4 4 3 3 2 2 2 2 2 3 12 17 18 17 16 15 14 13 10 8 7 6 6 8 9 10 8 7
32 35 32 32 20 6 3 1 1 1 4 1 1 2 1 1 1 2 1 3 1 2 3 2 3 2 3 3 3 3 2 2 3 2 2 9 18 19 18 17 16 14 13 11 9 9 9 8 8 7 7 6 8 6
33 33 32 23 9 3 2 1 3 2 2 3 1 0 1 1 2 2 2 3 2 2 2 0 2 3 3 3 3 3 2 5 6 4 2 1 14 18 18 15 14 13 11 10 9 7 6 6 7 10 8 5 3 6
28 26 25 11 3 3 1 2 2 2 2 2 2 1 1 2 1 2 1 2 2 1 2 2 1 2 1 2 4 11 11 13 5 4 4 4 14 18 17 12 11 11 10 9 9 7 7 5 5 6 4 4 5 6
14 17 5 2 3 2 2 4 2 2 2 1 2 0 2 1 1 2 1 1 2 2 3 3 3 2 2 3 4 9 14 13 12 13 14 19 7 8 13 14 11 10 9 9 10 10 8 6 6 3 3 3 5 6
17 9 3 2 1 2 2 4 2 2 2 3 2 2 1 0 1 1 1 2 3 3 4 3 5 6 8 9 10 12 14 16 10 13 16 16 16 14 13 12 13 9 6 5 4 6 9 7 5 4 4 3 5 7
10 5 4 4 4 3 1 1 2 2 2 2 2 3 2 2 1 1 2 3 2 1 2 5 12 4 6 8 3 8 11 15 15 14 17 18 13 9 10 9 9 10 9 10 8 7 6 6 3 2 3 4 4 4
4 3 4 3 2 2 1 1 2 3 1 2 2 1 2 1 2 2 3 3 2 1 0 8 7 4 3 2 5 9 12 18 16 10 12 17 18 16 15 13 11 9 7 7 7 6 6 5 2 1 2 4 4 5
3 4 6 4 2 3 4 3 3 5 3 2 3 1 2 3 1 5 3 2 2 2 3 5 4 3 2 5 4 8 11 16 21 15 10 16 22 22 16 13 10 5 5 3 3 4 6 4 1 1 2 4 6 7
2 4 3 2 1 1 2 2 2 3 3 5 3 2 3 3 5 3 2 3 2 3 10 15 15 12 10 13 14 15 16 17 17 15 14 13 12 11 12 16 14 8 6 3 2 2 3 2 1 2 3 4 7 7
3 2 4 3 1 1 4 1 3 5 3 2 4 3 7 6 4 2 2 7 3 6 13 12 10 14 19 21 22 22 21 21 22 21 19 16 12 10 9 10 10 9 6 5 6 6 5 4 4 5 6 5 4 5
2 1 2 2 1 1 2 4 3 1 1 1 4 3 3 0 1 3 3 3 3 10 15 16 15 19 21 21 20 21 25 24 20 5 4 2 5 8 10 9 9 8 7 6 5 3 3 4 5 5 5 5 5 6
4 2 3 2 4 4 1 2 2 2 1 2 3 2 2 2 5 4 0 2 4 7 12 15 18 21 18 21 18 16 15 12 6 9 7 5 11 15 11 9 9 7 5 4 4 4 2 1 2 3 4 5 6 8
4 3 3 2 2 1 1 2 1 2 2 2 2 3 2 1 2 8 5 4 8 12 15 15 14 17 20 19 17 14 8 8 6 5 6 14 18 15 11 9 6 4 2 2 1 0 0 2 3 5 6 7 8 9
2 2 3 3 2 0 1 1 1 1 1 2 1 2 2 3 1 4 7 6 12 13 13 16 18 15 15 15 14 9 7 13 13 15 16 18 17 13 9 7 4 2 1 1 2 1 2 3 3 4 6 7 7 8
3 2 2 2 2 3 2 1 2 1 2 1 2 3 2 3 4 2 2 3 10 14 16 15 15 16 16 15 13 16 19 19 19 17 16 14 13 11 8 5 3 2 2 2 2 3 3 3 4 4 5 6 6 7

GFSWCAN_925_spd_114.txt.gz
Wind_Speed
30 32 30 29 31 31 32 33 32 30 31 30 28 24 23 21 19 15 13 11 6 3 2 2 2 5 3 3 3 3 3 4 3 3 1 1 1 2 1 2 2 3 3 3 2 3 1 12 3 3 5 5 6 7
30 31 31 30 32 32 32 31 28 27 28 27 25 24 22 19 18 22 10 17 15 5 4 3 7 8 5 7 5 1 4 2 2 3 1 1 2 2 3 1 3 3 3 2 5 2 4 6 10 9 5 5 3 5
28 30 30 29 28 32 31 28 27 27 26 27 25 23 22 18 14 15 18 11 10 4 4 4 4 6 8 6 4 4 1 2 2 3 3 1 1 0 2 2 2 2 3 3 1 3 5 6 7 7 6 5 4 6
27 26 26 29 30 30 29 28 26 26 25 25 24 23 23 22 19 20 14 10 9 3 4 1 5 5 4 9 7 9 7 5 4 2 2 2 1 1 1 2 3 2 2 3 3 5 6 6 5 6 7 9 10 11
27 27 28 31 30 28 28 27 28 27 25 25 25 24 24 23 24 27 25 18 10 5 4 3 2 6 5 9 8 8 7 3 2 2 2 1 1 1 1 1 2 2 2 0 1 5 2 4 3 5 6 6 6 7
28 27 31 31 29 26 27 26 27 26 25 25 24 23 24 23 18 8 4 9 11 5 4 3 2 4 4 7 9 6 4 2 2 2 1 2 2 2 2 2 2 3 3 1 3 4 7 8 6 7 8 7 10 11
31 31 30 30 29 28 27 26 26 26 25 24 22 20 17 12 9 8 4 4 6 5 3 3 2 3 5 5 3 3 4 2 2 1 1 0 1 2 1 2 6 6 8 9 9 9 5 2 4 9 13 12 13 13
32 31 31 30 29 27 28 28 28 27 26 24 26 25 24 20 14 10 10 10 7 7 3 3 1 2 3 2 2 2 2 2 3 1 1 0 1 1 2 6 8 8 9 5 4 7 7 12 11 8 11 10 7 6
32 29 29 28 29 28 27 25 24 28 25 24 25 21 15 8 4 5 12 9 12 6 3 2 4 3 2 2 1 2 2 2 2 1 1 2 1 1 0 5 8 9 4 8 7 9 9 9 7 6 6 5 6 5
31 30 28 27 27 26 25 26 26 25 24 24 6 7 3 3 17 7 3 3 4 3 3 2 1 3 3 1 1 2 1 1 1 1 1 1 1 2 2 4 5 4 7 10 9 5 6 6 6 5 5 6 7 6
32 30 29 27 26 25 25 27 26 23 15 3 4 2 6 10 2 2 2 3 1 3 1 1 1 3 1 3 2 0 2 0 1 2 2 1 2 4 5 6 4 7 9 7 6 6 5 8 8 8 7 8 8 8
30 30 31 27 24 25 27 28 23 7 4 7 15 7 4 2 2 4 2 1 1 2 1 3 2 2 2 3 3 1 2 2 1 1 1 2 2 5 7 7 7 9 10 10 11 12 13 12 11 12 10 10 9 8
27 28 31 27 25 26 28 22 14 23 19 6 5 3 2 3 4 3 4 1 1 2 3 2 2 2 2 3 2 1 2 3 1 2 3 3 3 6 7 7 7 9 12 12 11 13 14 14 11 12 12 11 9 7
28 28 28 26 25 27 23 18 16 6 4 3 3 4 3 1 2 3 3 3 3 3 4 3 3 2 1 2 2 4 3 1 1 1 4 2 5 7 6 6 7 4 9 11 11 12 12 14 14 12 11 9 5 3
27 27 26 25 24 23 18 14 6 6 4 3 3 3 1 2 2 1 3 1 1 2 2 3 3 2 1 3 1 1 2 1 4 4 3 2 8 8 8 6 7 6 9 11 13 14 15 14 13 11 8 5 3 2
27 24 21 25 24 21 17 12 7 4 4 2 2 2 2 1 2 1 1 1 2 2 2 3 3 3 1 3 3 4 3 4 4 3 2 3 6 6 6 5 11 15 15 15 14 15 14 12 11 8 6 4 2 0
19 8 24 25 22 17 11 4 4 4 3 2 2 1 1 0 2 2 1 2 2 1 2 3 3 5 1 2 1 3 4 3 2 1 2 2 7 7 10 13 16 16 16 16 15 12 11 9 6 3 1 1 3 5
18 29 28 27 24 16 8 5 3 3 4 1 2 2 2 1 2 1 1 1 2 2 2 3 3 2 4 4 3 3 2 2 2 1 2 2 10 15 17 17 17 17 17 15 13 12 9 7 4 2 2 5 6 6
32 30 27 22 13 4 3 2 3 2 0 1 1 1 1 1 1 1 1 3 0 1 4 2 3 2 3 3 3 2 2 2 3 1 2 5 15 18 17 18 17 15 15 14 12 10 8 5 3 3 4 5 5 3
28 26 25 14 2 3 3 2 2 2 1 2 0 0 1 1 1 0 1 1 1 2 2 1 3 3 3 3 3 3 3 4 5 3 2 1 11 17 18 18 17 15 14 11 8 6 4 3 5 5 6 3 1 5
25 19 13 4 5 8 2 2 1 1 2 1 1 1 1 2 2 2 2 1 2 1 2 2 3 2 1 0 2 7 10 12 3 3 4 4 12 17 15 15 14 13 11 10 8 5 4 4 3 1 2 2 4 5
12 16 5 4 4 3 1 3 2 2 2 1 2 1 1 0 1 1 1 1 2 3 3 3 2 3 2 1 2 6 13 12 10 11 12 18 6 8 12 13 14 12 9 7 6 5 5 4 5 4 1 2 4 6
14 6 4 2 3 3 3 3 2 1 2 2 2 1 2 1 1 2 1 2 3 1 3 2 5 7 8 8 11 11 11 13 10 12 14 15 16 16 15 13 11 10 6 4 4 4 6 7 4 2 2 3 6 8
8 3 3 2 2 1 1 0 1 2 1 2 2 1 0 1 2 1 3 2 2 3 1 2 10 5 7 7 2 7 9 12 15 14 17 19 14 10 11 10 9 6 4 6 7 7 6 5 3 2 2 4 5 5
5 4 4 1 2 1 3 3 3 2 1 2 2 1 1 1 2 1 3 3 3 2 2 4 6 4 3 1 4 8 11 18 16 11 13 18 18 15 13 12 10 9 8 7 7 6 6 5 3 1 1 3 3 5
2 3 4 4 2 2 3 2 3 4 2 2 1 1 2 2 1 4 2 1 2 2 2 4 3 2 2 4 4 5 10 13 19 15 13 18 20 20 15 12 9 6 7 5 6 6 6 5 3 1 1 3 5 6
2 3 2 2 1 2 2 0 1 2 3 4 3 3 3 2 4 3 1 3 2 4 6 7 8 6 8 11 12 12 14 15 14 14 14 14 12 11 13 15 14 9 8 5 4 4 6 5 3 1 1 3 4 4
4 3 5 4 2 0 4 1 2 4 3 2 4 2 6 7 4 2 2 6 7 2 7 8 7 10 15 16 17 19 19 20 20 20 18 15 10 8 8 8 10 11 8 6 6 6 6 5 4 3 3 3 3 5
2 2 3 2 1 1 4 5 4 2 1 2 4 3 3 1 2 2 2 5 2 4 10 14 13 16 19 19 18 19 24 23 21 6 4 2 5 8 12 12 12 11 10 9 8 7 6 5 5 4 4 4 5 6
4 3 3 3 4 4 2 3 2 2 0 2 3 2 2 2 2 4 3 3 4 5 7 11 17 19 18 20 19 16 15 11 6 7 6 5 11 17 15 12 12 11 8 7 8 7 4 3 3 3 3 3 4 5
3 2 3 2 3 1 1 2 2 2 2 2 2 2 2 2 1 3 2 1 5 10 13 14 13 15 19 17 16 14 9 8 6 5 6 14 20 18 16 12 10 8 7 6 5 3 2 1 1 2 3 4 5 7
2 2 3 3 2 0 1 1 1 1 0 1 1 1 2 2 2 2 4 4 9 10 9 14 17 14 15 15 15 10 8 13 11 13 16 20 19 16 13 10 8 6 5 5 5 3 2 2 3 3 4 6 7 8
2 2 2 2 1 1 1 2 2 1 2 0 2 2 3 3 4 2 2 1 6 9 13 14 16 17 16 15 14 16 18 20 20 19 18 17 15 13 10 8 6 5 4 4 5 4 5 5 5 5 5 6 7 8

GFSWCAN_925_spd_120.txt.gz
Wind_Speed
19 17 20 21 24 26 33 35 39 44 43 42 40 44 39 35 30 27 11 21 8 5 5 5 5 7 7 9 9 9 6 2 4 6 4 3 3 3 4 2 3 4 3 3 3 4 4 8 3 3 8 9 9 9
20 20 24 24 26 28 32 38 37 32 33 36 33 32 31 26 28 31 9 13 17 7 6 14 16 10 5 7 8 6 2 7 4 3 3 3 3 4 6 4 3 3 2 0 3 3 5 5 8 6 9 10 9 9
22 26 27 27 24 27 36 37 36 33 34 27 31 28 23 23 22 32 29 30 34 11 10 8 10 14 15 10 6 4 2 3 3 1 3 2 3 3 4 3 5 3 1 2 5 5 6 7 8 10 9 10 10 9
32 32 30 26 27 30 36 38 34 28 25 25 26 24 24 26 36 34 18 13 14 6 6 5 5 7 9 11 11 9 13 7 6 3 3 3 3 1 2 3 2 1 4 6 5 7 8 7 8 9 11 11 10 9
32 30 30 33 29 28 33 35 33 29 27 25 24 24 29 32 35 36 30 19 12 4 6 6 13 9 10 15 18 15 12 7 4 3 2 3 3 4 3 3 3 1 3 2 2 10 3 9 9 9 10 10 9 9
32 30 28 29 33 28 26 31 33 32 32 32 35 37 36 33 29 20 5 18 23 30 7 5 2 3 8 13 14 11 7 4 2 3 3 3 2 1 3 3 3 3 3 3 5 7 10 11 10 12 11 9 11 11
33 30 30 31 31 27 29 31 34 35 33 29 27 23 18 14 16 8 5 8 15 13 4 5 4 2 4 4 3 4 6 3 2 3 2 3 3 1 2 2 6 5 7 12 15 15 11 13 7 12 14 13 12 12
32 29 32 32 33 29 30 31 32 31 32 35 37 37 34 31 21 13 16 12 10 10 4 4 4 5 2 4 3 2 2 1 3 2 2 3 4 1 2 7 10 11 11 12 7 3 11 15 15 12 12 11 9 9
33 30 31 32 31 29 28 28 29 29 28 28 26 21 16 11 5 4 10 16 17 7 4 2 8 5 4 3 2 2 0 2 1 2 2 3 3 3 7 13 13 12 6 10 10 12 14 13 12 10 9 7 8 8
30 28 30 29 29 29 29 29 27 24 20 14 8 7 3 4 3 4 3 3 4 4 3 3 1 5 6 3 2 3 0 2 2 2 4 2 2 4 6 11 10 9 12 14 13 10 11 11 10 9 7 8 10 10
31 30 28 29 27 27 27 26 19 12 7 5 3 3 5 6 3 3 3 3 2 3 3 3 7 9 1 3 3 1 2 1 3 3 2 3 3 6 8 8 8 10 13 9 4 8 8 10 10 10 10 11 12 11
30 31 28 26 23 22 21 17 5 7 5 7 16 8 3 3 3 5 3 2 2 3 3 7 6 5 3 0 3 2 2 2 2 3 2 2 3 10 12 10 10 11 11 8 7 10 11 13 13 13 13 12 12 11
27 27 27 24 21 20 17 14 25 18 10 5 5 3 2 3 4 2 4 3 4 4 5 6 5 3 3 2 2 2 2 2 3 3 2 1 7 10 12 11 10 11 11 12 12 12 14 14 13 14 14 12 13 12
26 26 24 22 18 17 22 16 8 6 6 4 3 5 4 2 3 2 2 3 3 7 9 7 4 2 2 2 1 3 2 3 3 3 2 3 10 12 11 10 11 9 11 13 13 13 14 14 13 13 14 14 13 10
27 25 23 20 21 16 12 9 9 8 5 4 3 4 3 2 3 3 2 4 4 7 5 5 4 2 2 3 1 3 4 3 3 1 2 3 11 12 11 10 10 10 10 11 12 12 13 14 14 12 12 10 8 9
27 24 17 17 13 9 8 7 10 5 4 3 5 3 2 4 4 3 4 6 2 2 2 2 3 3 2 3 3 3 4 3 2 2 3 6 11 11 10 9 11 12 12 13 11 13 13 13 13 12 10 8 9 8
16 6 11 11 10 8 6 5 5 5 4 3 3 3 4 4 2 2 2 3 2 0 2 2 2 2 3 2 2 1 1 2 3 2 2 5 10 10 11 13 13 13 14 14 14 13 13 12 12 11 9 8 7 6
18 15 12 8 6 8 6 8 4 4 6 4 3 3 2 2 2 3 2 3 1 2 0 2 3 2 2 2 2 2 2 3 3 3 4 6 11 13 14 15 14 14 14 14 14 14 13 12 10 9 7 7 6 5
18 14 10 7 7 5 3 5 5 4 4 2 2 2 2 2 3 2 2 3 3 2 3 1 2 2 2 1 2 2 3 3 3 4 4 5 10 13 14 14 14 14 15 15 15 13 12 11 8 8 7 6 3 3
19 12 10 11 5 4 3 3 3 3 3 2 2 2 2 2 2 2 2 2 1 1 1 1 2 2 2 2 2 3 4 6 7 7 6 5 9 12 13 14 13 15 15 13 12 11 11 10 8 7 6 4 4 3
13 9 10 9 6 9 3 2 4 3 2 3 1 2 2 1 2 1 1 1 1 1 1 1 2 3 4 3 3 4 7 9 5 3 5 7 12 12 13 12 15 15 14 13 12 12 10 8 7 7 7 5 4 3
6 7 6 8 5 4 4 7 3 2 2 2 1 2 2 1 1 1 1 1 1 2 2 1 3 4 4 3 3 4 9 9 8 9 10 18 7 11 12 15 15 13 12 12 11 11 10 8 7 7 7 6 5 3
6 5 5 7 3 4 3 3 2 2 2 2 1 1 1 0 1 2 1 0 2 2 2 2 5 5 8 7 8 9 7 8 7 7 10 9 12 13 13 14 13 13 12 11 10 9 8 8 9 8 7 5 3 2
5 5 4 4 4 3 1 2 1 2 1 1 1 1 0 1 2 1 1 1 2 2 2 3 6 5 7 6 4 6 5 7 9 8 9 12 12 12 12 12 11 10 9 11 9 9 9 9 9 7 6 5 4 3
2 4 3 4 2 2 2 2 2 1 1 1 1 1 1 1 1 2 1 2 2 2 2 2 3 1 3 4 5 6 5 5 7 8 8 9 13 14 12 10 9 7 8 10 10 10 9 8 7 6 5 4 4 4
3 2 2 1 1 0 2 2 1 1 2 2 1 1 0 1 2 2 1 1 1 2 2 1 2 2 3 3 5 6 6 6 9 10 9 10 11 12 12 11 9 6 6 6 10 10 10 8 8 8 7 5 5 4
2 2 1 1 1 1 2 1 1 1 1 2 2 3 2 2 2 1 2 2 2 3 3 2 1 2 3 7 8 8 8 7 7 10 12 10 8 7 8 9 9 9 9 8 8 9 10 10 9 8 7 6 5 4
1 3 3 4 2 0 1 1 2 2 1 1 2 3 2 1 2 2 2 2 3 2 2 3 3 5 7 8 10 11 11 12 15 16 15 12 11 10 10 11 13 14 12 10 10 10 10 9 9 8 7 6 5 4
2 3 4 3 2 3 3 4 2 1 1 2 1 1 0 2 1 1 2 0 2 0 2 4 5 8 10 10 9 8 13 13 14 11 10 6 7 6 10 14 15 13 14 15 14 12 11 10 10 9 8 7 5 4
3 4 3 4 4 5 2 1 1 2 1 1 1 1 1 1 1 1 2 2 2 2 2 3 7 7 9 10 11 9 7 5 4 5 6 6 9 15 14 14 14 13 13 13 14 14 11 9 8 8 7 6 5 4
3 4 2 3 2 1 2 3 2 2 1 1 0 2 1 1 2 1 0 2 2 3 5 6 6 6 8 10 12 12 8 5 6 6 7 15 20 17 15 14 13 12 12 12 10 8 8 7 7 7 6 6 5 4
3 4 3 3 2 1 2 2 1 2 0 2 2 1 1 2 3 3 3 1 3 5 3 5 6 7 7 9 10 8 8 12 11 12 17 20 19 19 18 15 14 12 11 10 9 8 7 8 7 7 6 5 4 4
1 1 1 1 2 2 2 2 1 1 2 2 1 1 1 2 2 2 2 3 0 2 5 7 8 10 12 13 14 16 17 17 18 19 20 20 21 19 16 14 12 11 10 10 10 9 9 8 8 7 6 5 4 4

GFSWCAN_925_spd_126.txt.gz
Wind_Speed
37 36 35 35 35 37 43 40 44 51 52 56 63 71 80 79 80 76 51 54 32 12 11 18 19 14 13 14 8 12 6 4 5 7 7 5 5 6 2 7 11 10 8 7 9 9 10 3 3 3 5 7 8 11
36 33 32 31 31 29 29 32 13 6 8 38 55 64 72 80 85 80 29 54 44 10 1 2 8 15 20 14 6 10 7 13 6 6 5 6 2 1 6 4 8 4 2 2 4 3 4 3 4 6 7 10 9 10
32 29 29 26 22 18 14 10 32 26 26 20 33 39 55 74 83 56 38 50 25 7 5 5 9 8 8 13 13 5 5 10 7 1 3 1 2 4 4 5 5 3 4 4 5 6 8 6 7 8 9 10 9 10
28 22 22 20 16 12 16 27 36 37 32 40 57 55 61 77 70 49 36 40 24 7 4 2 4 8 7 10 13 18 6 4 5 3 1 1 3 3 2 4 1 1 6 8 5 8 8 6 7 9 9 8 8 8
25 22 20 21 12 15 32 31 40 40 38 45 53 59 62 61 54 46 33 25 23 7 4 6 12 11 12 11 10 10 11 7 5 3 1 3 3 2 2 3 3 2 4 4 1 13 5 10 8 11 10 8 7 8
10 26 28 23 20 24 35 38 41 42 43 43 48 52 55 55 51 36 5 9 20 26 6 4 6 11 14 14 14 11 8 6 4 3 3 3 2 1 4 2 3 6 4 4 4 10 12 12 10 13 10 8 9 9
34 32 29 26 25 26 30 34 35 40 40 43 46 46 43 40 31 6 6 25 37 21 5 5 4 6 16 11 5 4 4 1 2 1 2 3 4 1 1 2 8 7 6 13 15 16 12 14 7 12 13 12 12 11
32 31 32 32 29 30 32 35 37 39 38 35 38 33 31 31 26 19 28 24 19 10 4 4 4 7 7 6 5 3 3 2 2 1 0 4 4 2 1 10 10 10 11 13 14 2 13 14 16 14 15 14 10 10
32 35 35 35 35 35 38 42 44 42 41 41 41 34 23 14 6 9 21 17 10 5 3 3 7 5 4 4 3 3 2 2 1 2 3 3 3 2 7 12 12 13 10 13 10 13 15 15 14 13 11 11 10 9
32 36 37 36 36 35 34 31 29 27 21 16 10 7 4 5 20 13 4 3 2 2 3 6 4 5 8 6 3 3 1 3 3 2 3 1 2 4 11 14 12 10 11 12 13 14 14 13 11 10 9 8 11 11
29 29 29 27 25 23 24 21 17 16 13 7 3 3 9 6 2 3 2 2 3 4 3 5 10 11 7 6 5 2 3 2 3 3 3 3 4 5 13 14 12 9 11 13 12 12 13 13 10 9 7 11 13 13
26 26 25 24 22 19 17 16 13 9 4 7 14 9 4 2 2 5 3 1 3 4 5 8 10 8 3 3 3 1 2 1 2 3 2 2 4 12 13 13 9 9 11 8 13 12 13 14 14 13 12 13 13 14
26 25 26 27 25 22 20 22 22 16 16 11 6 5 2 4 4 2 4 4 4 4 4 6 7 3 3 4 2 2 2 2 3 2 2 3 9 11 11 10 7 13 13 13 13 14 16 15 15 16 16 18 18 16
26 24 22 22 22 19 15 13 9 10 8 4 4 5 4 3 4 4 5 5 3 8 10 8 4 3 2 3 1 3 2 3 4 4 2 4 8 10 8 7 11 8 11 13 14 19 18 19 19 19 18 18 18 17
26 23 19 18 19 19 17 16 14 7 5 4 4 5 4 4 5 3 3 6 9 8 7 6 4 3 3 3 1 4 3 3 4 1 3 6 9 9 10 10 10 9 9 11 13 14 16 17 16 15 16 15 15 16
15 19 19 14 13 15 11 11 12 7 3 4 6 3 5 7 5 2 5 7 6 5 3 3 3 3 2 4 2 2 4 2 3 3 3 5 9 9 11 9 9 11 11 12 12 14 15 15 16 16 15 13 15 14
15 7 12 12 14 16 10 6 7 5 4 4 3 3 5 5 4 2 3 4 2 1 2 3 3 3 3 2 2 3 3 3 4 4 4 6 8 10 10 12 13 13 13 14 15 15 15 15 18 15 13 12 12 11
16 12 14 12 9 8 10 9 4 5 6 4 3 4 2 3 3 3 3 3 1 2 2 3 3 2 2 2 3 3 4 4 4 4 4 6 10 13 13 13 14 14 14 15 15 16 17 16 14 12 13 13 12 11
16 15 15 13 10 5 4 6 6 4 5 2 3 4 3 3 3 2 3 5 5 4 3 2 3 3 3 4 4 4 4 3 5 5 5 11 12 12 13 14 14 14 15 16 16 14 14 14 12 13 14 13 11 12
14 18 17 19 10 4 4 4 5 4 3 2 3 4 3 3 1 1 3 4 3 1 3 3 4 3 3 3 4 4 5 7 7 6 6 5 10 13 13 14 13 15 15 14 13 14 13 11 10 11 11 9 6 8
14 15 17 11 7 12 5 3 4 3 3 3 3 3 3 3 3 3 3 4 3 3 3 4 4 4 7 7 8 11 7 8 4 5 8 7 12 12 13 12 15 13 13 12 12 11 12 10 10 11 11 10 12 11
10 13 6 10 6 5 4 9 2 2 3 2 3 3 3 2 2 3 3 2 3 3 2 3 5 6 6 7 8 11 10 11 11 14 16 16 6 8 9 12 12 10 11 11 11 11 9 8 14 13 13 12 11 9
8 8 6 7 4 5 2 5 3 3 3 2 0 2 3 3 2 2 1 3 3 2 5 6 9 14 11 11 12 10 7 8 9 10 11 9 12 11 12 10 10 10 10 9 10 13 9 14 13 13 13 10 9 7
9 5 4 4 5 3 1 3 2 2 2 2 3 2 2 2 2 0 2 3 3 4 4 4 6 5 7 8 6 7 6 9 10 9 11 12 9 9 10 9 9 8 10 12 12 15 14 12 12 10 9 8 6 7
3 6 4 6 3 2 3 3 3 3 2 2 2 2 2 1 1 1 2 3 4 4 3 5 4 4 5 5 7 5 3 5 8 7 7 11 12 11 10 10 9 8 13 16 14 12 12 11 10 10 8 8 8 6
5 5 4 3 3 3 2 2 2 3 2 2 2 2 0 0 1 2 3 3 3 3 4 4 4 3 4 7 5 6 6 6 9 10 11 10 10 10 10 9 9 7 5 10 14 13 12 10 11 11 9 10 8 7
4 4 3 3 2 2 2 3 3 1 1 1 3 2 1 2 2 3 3 4 2 4 4 5 8 7 8 11 11 11 9 10 15 15 15 17 16 10 10 11 10 9 8 11 13 13 13 13 13 11 10 8 6 4
3 3 3 2 3 3 2 2 1 0 1 2 2 1 1 5 3 2 2 3 3 4 5 5 7 10 12 12 11 11 11 15 17 17 17 16 13 14 18 21 19 16 14 13 13 14 14 13 13 11 10 9 7 6
2 2 2 2 1 1 0 1 0 3 3 2 2 2 2 3 2 3 4 4 2 4 7 8 7 9 11 11 9 9 12 11 12 9 9 6 9 9 12 14 15 14 15 16 16 15 14 14 13 12 10 10 8 7
2 1 1 1 1 0 3 4 3 3 3 3 1 2 3 3 3 2 2 2 2 3 4 6 9 9 10 10 11 10 7 5 5 3 8 8 12 14 14 14 14 14 14 15 17 17 15 14 14 12 11 9 7 6
2 1 1 1 1 2 3 2 1 1 1 1 2 2 2 3 4 2 4 5 4 1 4 5 5 5 8 10 10 10 7 5 7 10 17 20 21 18 17 16 15 13 14 14 13 12 12 11 11 10 8 7 7 5
2 2 1 2 2 2 0 1 1 2 2 2 2 2 1 2 3 3 4 4 3 4 2 5 8 7 11 13 13 12 15 15 15 17 19 22 21 20 18 16 15 15 14 13 13 13 11 11 10 9 8 7 6 4
1 1 2 2 2 1 2 2 2 1 2 2 1 2 1 3 2 3 3 5 6 10 11 12 14 13 13 14 17 19 18 19 19 20 20 21 20 18 18 16 15 14 14 14 13 13 12 11 10 9 7 6 5 3

GFSWCAN_925_spd_132.txt.gz
Wind_Speed
37 37 37 37 37 37 37 36 37 39 40 42 43 44 44 44 42 35 31 27 25 2 2 13 17 8 2 6 5 3 3 2 2 4 3 4 4 5 5 9 4 8 6 6 4 3 9 2 1 5 1 6 4 5
37 38 39 38 37 37 37 37 38 40 41 43 44 45 46 47 45 38 19 30 26 7 3 20 24 23 21 21 5 2 3 5 5 3 4 4 3 3 4 7 2 6 5 4 3 4 2 2 2 1 4 5 4 8
41 41 40 41 41 40 38 38 39 41 43 44 45 46 49 47 46 45 26 21 26 9 5 14 10 19 19 28 22 6 3 6 5 5 3 1 3 3 2 4 3 4 3 3 4 3 6 5 6 5 6 10 11 10
46 45 44 44 44 44 43 43 43 44 46 48 49 49 49 49 49 45 39 35 33 3 4 2 17 28 34 20 25 28 10 5 5 3 2 2 2 1 3 2 3 4 4 6 2 4 5 6 5 10 11 12 13 11
43 48 50 47 44 43 44 46 47 47 50 52 52 52 52 51 50 46 39 38 38 14 3 2 3 10 13 12 26 25 17 5 3 3 2 3 3 2 2 2 2 2 5 4 5 10 4 8 10 12 11 11 11 11
25 22 25 35 40 40 40 43 47 50 53 54 56 56 54 53 51 40 10 34 42 29 1 3 2 3 3 7 11 9 6 3 3 2 4 3 2 3 3 2 2 2 2 3 4 11 5 12 10 11 10 13 12 11
19 17 16 20 27 32 38 43 50 58 63 63 64 61 60 57 59 30 7 19 48 33 4 2 2 2 10 5 1 3 4 3 3 3 3 3 3 4 2 3 5 5 7 10 14 16 9 10 6 13 14 14 16 15
17 14 13 10 14 15 12 5 26 20 50 74 67 55 64 67 47 43 18 27 48 16 2 2 3 4 5 2 2 2 3 3 3 3 2 3 1 2 2 2 9 8 10 11 10 3 9 11 15 12 15 15 10 11
17 16 16 17 18 11 16 25 39 39 33 55 70 63 59 49 15 25 35 49 36 5 4 3 3 3 4 2 3 1 2 1 1 2 2 3 1 3 5 11 11 12 7 9 8 9 12 13 13 11 9 11 11 10
34 32 31 23 18 22 18 21 25 39 65 79 67 13 5 15 44 49 28 7 6 6 4 4 3 3 6 3 0 3 2 3 2 4 2 2 3 3 8 11 10 9 8 12 12 11 14 14 11 9 9 10 14 13
31 32 32 29 27 20 14 16 18 24 35 23 5 9 48 59 17 3 3 4 5 3 2 3 7 10 0 4 3 2 3 2 2 3 4 2 3 4 7 10 9 7 12 13 10 9 10 11 11 9 8 14 17 19
27 31 31 22 19 20 27 31 26 30 17 20 24 23 11 3 3 6 3 3 3 5 3 9 9 10 3 3 3 1 2 2 4 2 3 3 3 5 10 11 7 7 8 8 17 13 15 16 17 15 15 16 18 20
26 29 30 30 28 28 31 38 40 40 27 9 5 5 4 4 7 5 4 1 3 2 6 9 9 4 2 3 3 3 3 4 1 2 3 3 3 6 8 7 7 9 13 13 12 18 20 18 21 22 19 22 25 24
27 28 28 30 27 25 26 21 16 12 13 5 5 7 4 3 3 2 2 4 3 11 13 9 3 3 2 3 2 4 3 2 1 1 4 2 6 6 6 6 8 6 9 10 12 17 19 21 20 21 25 26 26 25
31 27 25 27 24 20 16 15 19 16 7 5 4 5 4 2 2 2 0 6 8 9 8 4 3 3 2 3 1 3 3 3 5 4 2 3 8 9 8 7 9 8 8 7 15 15 18 20 21 21 23 24 24 25
19 28 27 22 18 15 16 21 21 7 4 4 6 3 2 4 7 6 10 10 2 3 3 3 4 4 2 3 3 5 5 5 3 2 3 6 8 7 7 8 7 11 11 14 17 19 21 21 21 23 21 21 24 25
25 14 17 17 22 18 11 7 8 6 4 5 3 2 2 3 4 3 3 2 1 3 2 3 3 4 3 2 2 2 3 1 3 4 4 6 9 9 8 12 12 14 14 16 19 20 20 21 23 21 16 21 21 21
18 20 16 9 8 15 15 10 4 5 6 4 2 3 2 3 4 3 1 2 3 2 2 3 3 3 2 3 3 2 2 2 4 4 5 6 8 12 14 14 14 15 16 17 19 20 20 20 15 13 17 19 16 17
21 19 15 17 12 6 4 7 6 4 4 2 2 2 2 2 3 3 2 3 2 3 3 3 4 2 1 1 2 3 3 2 3 3 4 7 13 15 15 16 17 14 17 17 16 14 15 15 15 17 19 18 15 17
17 18 19 16 9 5 5 4 5 4 2 2 2 3 2 1 2 2 4 4 3 2 4 3 2 2 1 2 2 4 3 5 5 5 3 4 9 14 14 14 11 14 16 15 13 15 14 12 14 17 19 18 18 19
12 17 15 12 9 12 4 3 4 2 2 2 2 3 2 3 3 4 4 3 4 3 2 2 1 2 6 7 10 10 7 8 3 2 3 4 7 12 12 12 14 14 12 13 12 14 15 14 16 16 18 18 15 15
9 10 6 11 5 5 4 7 3 2 3 1 2 2 3 2 3 3 2 5 3 2 2 2 1 2 4 4 4 8 11 10 9 13 13 15 4 6 8 12 13 12 15 16 16 17 15 13 18 21 20 22 21 21
7 7 7 8 6 5 2 4 4 3 3 1 2 3 3 2 2 3 3 2 2 3 4 4 6 12 8 11 13 12 13 16 9 9 12 10 12 12 13 13 16 17 13 13 16 15 17 20 23 25 26 23 22 21
7 5 4 3 4 1 3 4 2 2 3 3 3 2 2 2 3 3 3 2 1 2 3 3 8 5 7 11 4 5 9 13 12 11 13 13 8 8 13 13 15 15 17 16 18 19 21 23 22 24 23 23 22 23
6 7 5 5 4 5 4 4 5 4 3 2 3 3 2 1 2 2 2 0 1 2 3 4 4 2 3 2 5 7 10 14 10 6 9 13 14 13 11 10 13 16 19 20 19 20 20 21 20 19 20 21 21 20
6 4 4 1 3 3 1 2 2 1 2 3 1 1 2 2 3 2 2 1 1 2 2 2 2 5 3 4 3 4 5 13 15 9 6 12 16 18 11 7 7 7 17 19 24 22 20 19 19 19 18 19 20 20
5 3 2 2 0 2 4 2 2 4 3 2 0 1 3 3 2 1 1 3 1 2 4 5 5 7 7 8 9 10 13 14 14 12 9 11 13 16 19 19 13 11 13 16 18 20 22 22 21 20 19 17 17 15
2 3 3 5 4 2 3 3 3 2 1 3 2 3 3 1 1 1 1 4 6 6 7 9 10 12 13 11 12 16 17 18 18 18 17 15 13 13 13 12 12 14 14 14 15 16 19 21 20 19 17 15 14 13
3 3 3 5 5 4 4 2 2 1 2 1 2 1 2 2 3 2 3 3 3 7 9 10 12 14 12 9 8 12 19 21 19 5 5 2 4 8 15 16 17 17 16 16 15 15 15 15 15 16 15 14 13 12
3 1 3 3 3 2 3 2 2 2 2 1 2 2 2 2 4 4 3 3 4 2 9 10 12 12 11 11 14 10 8 9 9 10 6 4 10 17 17 17 18 18 19 19 20 19 16 16 17 16 17 16 14 13
2 3 3 3 2 2 2 2 0 0 1 1 2 2 2 2 3 6 7 6 4 4 8 10 10 11 12 13 12 10 4 6 8 10 9 12 20 19 17 16 16 17 16 16 18 19 18 18 17 18 16 15 12 10
1 0 2 2 1 1 0 1 1 1 1 1 1 2 2 2 1 4 9 8 2 4 2 4 8 6 14 15 14 11 4 7 8 12 17 20 21 18 17 17 17 17 18 18 18 17 16 18 18 16 15 13 10 8
2 2 2 2 1 1 1 1 1 1 2 1 1 2 2 2 3 2 2 7 7 6 8 11 12 11 11 13 14 13 12 14 15 17 17 17 20 20 19 20 19 18 18 18 17 16 16 16 16 15 13 11 10 8

GFSWCAN_925_spd_135.txt.gz
Wind_Speed
33 34 35 35 36 36 37 37 37 38 38 37 38 39 46 45 34 34 26 22 19 1 4 4 6 5 3 4 4 3 3 1 2 3 3 3 4 5 4 4 5 5 6 3 3 4 8 2 1 5 2 3 1 5
36 36 36 35 36 37 37 37 37 38 39 38 39 40 39 48 44 32 13 25 19 4 3 4 7 16 12 6 4 2 2 2 3 2 2 3 4 2 5 4 5 5 5 2 5 4 0 1 2 2 3 4 2 5
37 38 37 37 37 38 39 39 39 39 38 37 37 39 41 42 44 35 22 23 16 3 3 4 7 15 16 15 14 4 2 3 2 4 3 4 4 3 3 7 3 1 3 3 2 4 4 3 2 2 2 4 6 9
38 39 39 37 37 39 40 40 40 40 38 37 37 38 39 38 39 34 23 22 19 4 4 5 5 21 28 22 14 12 15 7 3 3 2 2 3 3 3 4 4 3 7 6 3 3 2 6 5 6 9 9 11 10
39 40 40 41 41 41 42 42 41 41 40 39 38 39 41 40 38 31 26 23 25 11 2 3 4 12 16 25 31 26 19 6 3 2 3 4 3 2 3 1 3 5 5 5 6 8 4 3 10 11 12 11 11 13
46 45 44 44 44 45 45 46 45 44 43 41 39 39 40 39 36 23 4 27 31 27 2 3 4 3 14 20 16 13 16 5 3 3 3 3 4 3 3 3 4 5 5 5 3 8 3 9 11 9 11 11 10 11
30 37 45 51 50 49 48 48 49 48 46 43 42 41 41 40 39 21 4 3 34 27 3 3 4 3 8 5 2 2 11 2 3 3 2 3 2 5 3 3 4 5 4 4 11 12 6 8 5 8 13 13 16 15
21 22 22 27 39 49 53 52 52 52 51 48 46 44 44 43 34 30 23 4 37 19 4 3 2 2 3 2 2 1 3 3 2 3 2 3 2 2 4 2 5 6 8 8 6 2 7 10 13 11 15 16 11 11
13 12 14 21 25 30 37 46 52 53 52 52 48 44 35 25 13 27 44 18 27 9 4 4 5 4 4 2 3 1 1 2 2 3 3 4 3 5 5 5 8 9 8 10 4 8 11 13 13 13 12 11 12 11
14 10 6 4 6 19 33 50 63 66 60 52 49 13 5 20 27 26 11 3 5 4 2 4 3 2 4 2 2 3 2 2 2 4 2 3 4 4 4 7 10 11 8 13 11 9 11 12 12 12 11 10 13 13
28 20 11 3 6 8 21 26 39 70 80 33 5 5 15 40 18 6 5 5 4 6 5 4 4 5 3 2 3 2 3 3 3 4 4 2 3 5 7 9 8 8 12 10 5 7 10 10 11 11 10 14 16 18
22 24 28 33 25 35 51 70 73 61 25 19 24 38 34 6 4 7 6 4 5 7 5 10 5 4 1 1 3 2 2 1 4 1 2 3 3 4 9 9 9 9 9 9 14 11 13 14 16 15 15 15 18 22
33 36 38 45 55 51 58 63 67 63 56 41 9 4 5 3 6 7 9 3 4 4 5 8 9 4 3 2 2 2 3 4 1 2 3 4 2 4 7 8 7 8 12 11 8 14 17 16 19 18 17 20 23 24
33 37 35 31 39 36 31 25 26 22 11 5 4 5 3 1 3 4 4 5 3 9 15 13 3 3 2 2 2 3 3 2 2 2 5 3 5 6 6 6 8 7 8 10 8 15 17 19 15 17 22 25 26 25
36 32 25 24 23 25 22 19 20 15 6 4 4 4 2 1 1 1 2 5 7 11 11 5 3 3 2 4 2 2 2 4 5 4 3 2 6 8 7 5 8 8 7 8 13 13 16 20 19 18 20 23 24 26
21 32 28 18 17 16 15 20 23 7 4 4 5 3 3 5 5 5 10 12 4 5 3 4 3 3 2 4 3 5 5 5 3 1 0 3 4 5 6 6 6 9 11 12 16 18 19 19 18 20 19 19 21 24
27 13 18 18 24 20 14 9 8 6 4 4 3 2 1 3 5 4 6 5 0 4 3 3 4 5 3 2 2 3 4 1 0 2 2 2 7 8 7 6 11 12 12 13 16 16 16 17 20 20 15 16 19 21
16 19 19 8 7 12 14 11 4 5 7 3 3 3 2 3 4 3 2 2 3 2 2 2 3 3 3 4 3 2 2 2 3 4 4 6 8 10 12 10 12 14 14 14 16 16 18 18 14 11 16 18 17 17
20 18 16 17 12 7 4 7 6 4 3 1 2 2 2 3 3 1 1 3 4 3 3 2 4 2 1 1 1 2 2 1 2 3 3 7 10 12 14 14 15 15 15 15 14 12 13 12 13 16 19 17 15 17
17 20 22 18 8 5 5 4 5 4 3 2 3 4 3 2 1 1 7 5 4 3 4 4 2 2 1 1 1 3 3 4 5 4 3 4 8 11 12 13 11 13 13 12 12 14 14 11 12 16 19 18 18 17
13 18 17 13 9 12 4 3 4 2 2 3 3 3 3 3 4 4 4 3 4 3 2 2 1 2 5 6 8 9 5 5 2 2 3 3 6 10 11 12 13 13 12 12 11 13 14 14 16 17 19 18 17 18
11 11 7 11 6 5 4 7 3 1 3 1 2 3 3 3 3 3 2 4 2 2 2 2 1 2 3 4 4 9 10 12 11 11 11 15 4 4 6 10 10 7 13 15 15 16 15 14 15 15 17 16 15 17
6 7 7 9 6 5 2 4 4 4 3 1 3 3 3 3 1 1 3 2 2 2 3 3 4 10 7 9 13 12 8 11 7 7 9 10 11 11 12 10 11 15 11 12 12 13 15 14 16 18 18 18 18 19
7 5 5 4 4 1 2 5 3 3 3 3 3 2 3 2 2 3 3 2 2 2 3 4 8 5 6 8 3 5 8 10 11 10 11 11 7 7 11 11 10 11 12 13 13 15 14 15 16 20 21 22 21 22
6 8 5 6 3 5 5 4 4 4 3 2 3 3 2 2 3 3 2 1 2 2 2 1 4 3 3 2 3 7 5 9 9 4 6 9 11 10 8 6 9 10 12 14 15 15 16 17 19 22 22 21 20 20
6 4 4 1 3 3 1 2 1 2 3 3 1 1 2 3 4 1 1 0 0 1 2 1 2 3 2 3 2 3 4 9 13 8 5 7 11 15 10 5 5 5 14 15 18 19 19 19 20 21 19 18 20 21
5 3 2 2 1 2 3 2 2 4 3 2 1 2 3 3 1 1 1 2 1 2 4 3 2 5 5 6 7 7 7 8 6 9 7 6 6 7 11 13 11 8 11 12 16 19 20 20 20 19 18 18 18 18
2 3 3 4 3 2 4 3 3 2 1 3 2 3 3 4 2 1 1 3 5 4 6 9 9 10 10 9 9 12 13 13 13 14 14 12 10 9 8 8 9 10 10 10 12 13 15 17 18 18 17 18 17 14
3 3 3 6 4 4 4 3 2 1 3 1 3 1 2 2 2 2 3 4 1 4 8 11 12 13 12 9 6 6 14 16 14 5 4 1 2 6 9 11 13 12 13 13 11 11 13 15 16 16 15 15 15 14
4 1 3 2 3 3 3 2 1 2 2 1 2 2 2 2 4 6 5 6 5 1 6 8 11 8 11 11 10 8 8 7 2 4 4 4 9 13 14 14 15 16 16 17 19 19 16 16 17 17 17 17 16 16
1 3 3 3 2 1 0 0 1 0 1 2 1 3 2 2 3 6 7 6 5 5 8 9 9 9 11 13 12 9 3 6 5 4 3 7 15 17 16 15 15 16 16 17 18 19 19 19 18 18 18 17 14 13
3 2 3 2 1 1 1 1 1 1 1 2 1 2 2 2 1 3 7 7 2 1 1 2 7 9 11 9 10 9 3 6 7 9 10 13 18 18 17 16 15 15 15 17 18 18 17 18 19 18 17 15 13 11
2 1 1 1 3 3 3 3 4 3 3 2 2 1 1 2 3 2 2 6 5 1 2 4 6 6 7 11 13 11 7 6 8 10 13 16 17 18 17 16 16 16 17 18 17 16 17 17 18 16 15 13 11 9

GFSWCAN_925_spd_138.txt.gz
Wind_Speed
26 27 25 27 31 33 33 32 31 30 30 29 29 30 29 30 32 27 20 19 17 2 3 1 5 5 4 4 4 3 3 2 2 4 3 4 3 4 2 4 4 6 5 4 3 5 8 2 2 6 2 1 2 3
27 26 27 28 29 31 32 35 33 31 31 32 30 29 31 30 31 30 6 22 19 2 1 4 8 8 5 11 5 1 2 2 2 2 1 1 2 1 5 3 5 4 7 4 6 5 3 3 4 4 2 1 2 4
28 28 29 29 30 31 31 32 32 34 34 32 31 30 31 30 32 35 14 24 14 2 2 4 7 22 16 10 7 4 1 3 3 3 2 2 4 3 3 5 3 2 2 3 2 4 6 6 3 3 3 3 2 4
30 31 31 30 31 32 33 33 35 35 35 33 31 31 31 30 31 37 12 25 19 4 2 4 7 14 27 22 13 13 5 2 4 2 2 3 3 4 3 4 4 4 4 5 5 4 3 7 7 6 4 7 8 7
31 30 31 33 33 34 34 34 36 36 35 33 32 30 28 28 31 24 21 27 26 9 2 2 7 12 17 19 26 20 13 5 3 1 4 4 2 2 2 1 4 5 6 5 7 4 3 3 10 10 8 6 7 10
35 35 33 33 34 35 36 36 36 35 34 32 29 27 26 28 26 19 3 23 26 14 2 2 1 3 5 20 21 17 15 4 3 4 3 3 5 3 3 4 4 11 7 4 4 4 3 5 9 8 7 8 9 8
36 34 34 36 37 37 36 35 35 34 34 32 30 29 28 29 28 4 2 9 33 17 1 2 3 3 9 8 5 2 8 3 4 3 4 3 3 6 3 8 3 7 6 3 8 10 5 6 5 10 11 14 14 15
40 40 38 40 40 40 40 39 37 36 35 32 31 29 29 29 22 8 5 18 34 10 3 2 3 1 6 2 3 2 4 4 4 4 2 4 2 3 5 7 6 4 6 6 5 1 4 8 12 11 17 18 11 10
35 35 41 44 46 45 46 43 43 40 36 33 31 28 24 15 5 13 12 21 15 4 5 4 3 3 5 2 2 1 1 4 3 5 4 5 3 6 7 8 7 9 8 10 5 7 10 11 12 12 13 13 12 12
22 26 30 35 40 47 53 50 49 46 43 38 30 6 3 13 20 21 5 2 2 4 3 4 3 4 3 3 3 3 3 3 3 4 3 4 5 6 7 7 7 11 9 13 12 8 9 10 13 12 12 10 11 12
15 17 19 28 44 39 48 57 54 50 46 21 4 3 12 34 8 2 3 4 3 5 5 4 6 4 2 3 3 3 2 3 2 3 4 3 4 6 10 8 8 12 13 12 4 7 10 15 13 12 11 13 16 17
12 7 3 14 41 55 51 56 59 53 22 16 16 21 24 4 3 5 4 4 7 7 5 8 5 4 3 2 1 2 2 1 4 2 2 3 4 3 5 8 10 10 10 8 9 10 13 15 17 15 15 14 17 19
34 31 37 23 30 68 64 60 58 42 44 38 8 5 5 4 5 9 8 4 5 5 6 9 6 4 2 2 0 1 4 4 1 1 4 4 2 2 5 8 8 7 12 10 7 12 17 14 16 17 15 19 21 21
35 42 51 52 61 79 69 63 62 44 41 4 5 6 5 5 5 4 6 6 4 4 9 12 5 3 2 2 2 2 3 2 1 3 5 3 3 5 6 6 10 8 8 8 8 14 15 18 16 19 22 24 24 24
29 37 48 59 69 70 68 63 50 38 5 4 4 5 5 4 2 1 3 2 3 8 11 6 4 3 1 2 2 2 2 4 4 4 3 2 1 6 8 7 8 8 7 7 12 12 15 19 18 16 18 22 22 24
15 29 35 39 52 51 50 51 24 6 3 4 3 4 2 5 3 3 3 4 8 9 4 3 4 3 3 3 3 6 4 6 3 2 2 0 2 3 6 6 6 8 11 11 15 17 18 18 17 17 17 17 19 24
19 14 19 22 29 33 29 10 4 4 3 2 2 1 1 3 3 2 4 6 4 7 3 3 5 6 3 2 3 4 4 2 1 0 1 1 4 7 6 6 9 13 13 14 16 16 15 16 19 19 14 14 17 19
13 16 14 6 13 23 10 8 4 4 4 2 3 2 2 3 3 3 2 1 2 2 2 2 4 3 4 5 3 1 2 2 2 3 3 4 6 8 10 8 11 13 14 14 16 17 17 17 13 10 15 17 17 18
20 20 13 15 9 7 4 5 5 4 3 0 1 1 3 3 3 1 3 4 3 3 3 2 3 2 1 1 1 1 2 1 2 2 3 7 9 9 13 14 14 14 15 13 13 11 13 13 14 17 18 18 16 19
16 19 23 18 8 4 5 3 4 4 2 2 2 3 2 2 0 3 4 3 3 2 4 3 2 1 1 1 1 2 3 4 5 5 4 4 9 11 10 10 11 15 14 14 12 14 14 12 12 15 19 20 20 19
12 17 18 11 8 12 4 3 4 2 2 3 2 3 3 2 3 4 3 2 3 2 2 2 2 2 4 5 7 9 5 3 2 2 3 3 6 10 11 13 14 12 9 10 9 11 13 14 16 16 18 19 18 21
10 11 7 11 5 4 4 6 2 1 2 1 2 2 3 2 1 2 2 5 3 2 2 1 1 2 4 4 4 8 9 12 10 11 13 14 4 4 6 9 9 6 8 13 14 15 13 13 14 15 16 16 15 18
6 7 7 9 6 5 1 3 4 3 3 2 2 3 3 3 2 1 3 2 2 2 2 3 4 9 7 9 12 11 9 10 7 7 8 10 11 13 13 10 9 12 10 9 10 14 14 14 15 17 18 18 19 19
7 6 5 4 4 1 2 4 3 3 3 3 3 2 2 1 2 3 3 1 1 1 2 3 6 4 4 5 3 4 7 11 10 10 11 11 7 7 9 8 7 7 9 13 13 14 14 16 17 19 20 20 18 18
6 7 5 5 3 5 5 4 4 4 3 3 3 3 2 2 3 2 2 1 2 1 1 2 3 2 3 2 2 6 5 9 9 5 7 10 14 12 10 9 7 8 12 16 12 13 14 14 16 18 18 19 19 20
6 4 4 1 3 3 1 3 2 3 3 3 0 2 2 3 3 2 1 0 1 1 1 1 2 2 2 3 2 2 4 8 13 7 6 7 9 13 9 5 4 6 12 10 14 16 16 16 16 18 17 19 21 21
5 4 3 3 2 2 3 3 2 4 3 2 1 2 3 3 1 1 1 2 1 3 3 2 3 5 5 7 8 8 8 7 7 10 9 9 8 6 5 8 8 6 10 10 12 15 18 18 18 19 19 17 18 18
2 3 3 4 4 3 4 3 3 3 1 2 2 4 3 5 2 0 1 2 5 5 7 8 9 11 11 9 12 14 14 15 16 17 16 14 12 11 10 9 10 9 9 8 9 12 14 16 19 19 18 18 17 15
3 3 3 6 4 4 4 3 2 2 3 1 3 1 2 2 2 2 3 3 2 5 10 12 13 14 14 12 8 7 16 17 12 4 4 2 2 7 10 12 13 14 15 16 13 12 13 15 16 17 17 18 17 16
4 2 4 2 4 3 2 2 1 2 2 1 2 2 2 2 2 4 4 5 5 3 4 9 11 5 8 9 10 9 9 6 6 4 4 4 8 14 14 14 15 16 16 17 19 19 16 17 18 18 19 19 18 18
2 3 4 3 2 1 0 1 2 1 1 1 2 2 2 2 2 3 4 4 3 4 8 9 7 6 8 10 10 8 3 5 3 3 2 7 15 18 16 16 16 16 16 16 18 19 20 19 19 20 19 19 17 15
3 2 3 2 1 1 0 1 0 0 1 3 1 2 1 2 2 2 5 5 1 1 2 4 7 8 8 5 6 4 3 5 6 6 7 12 17 18 17 16 16 16 17 17 18 18 17 19 20 19 18 17 15 14
2 1 1 2 3 3 3 3 4 4 3 2 2 0 1 2 4 3 0 4 3 0 2 3 4 5 6 9 10 9 6 5 6 8 10 14 17 18 18 18 17 17 17 18 18 17 17 18 19 17 16 15 13 12

GFSWCAN_925_spd_141.txt.gz
Wind_Speed
17 15 15 16 13 14 18 34 38 37 35 32 29 27 26 26 25 15 9 14 11 2 0 3 1 4 3 3 4 4 3 1 2 6 4 4 4 5 2 3 5 7 5 5 5 6 8 5 4 5 1 2 2 0
18 17 16 17 19 20 22 24 28 28 27 26 26 28 28 23 19 19 4 17 13 3 1 2 2 0 0 3 4 2 1 3 4 3 2 1 2 1 5 3 3 4 7 4 8 5 2 6 3 1 3 4 3 3
19 19 18 18 18 23 26 27 25 24 22 22 20 19 18 21 23 24 9 19 13 3 1 2 4 14 6 0 6 2 1 2 3 2 2 1 3 2 3 4 4 4 4 5 3 6 8 7 6 5 6 6 5 5
22 20 21 21 21 20 23 27 26 24 23 23 21 19 19 19 19 23 20 18 11 5 2 4 13 9 25 18 13 4 2 3 5 2 1 3 3 5 3 4 5 5 4 4 6 9 6 9 9 6 4 4 5 8
27 26 22 22 23 22 24 25 26 27 26 23 21 20 19 18 17 17 20 23 21 4 2 1 2 11 15 22 24 17 8 3 2 2 3 3 2 2 3 3 7 6 7 5 11 8 7 5 4 9 10 8 8 11
26 26 26 26 24 24 25 26 25 25 24 22 20 19 19 20 18 15 1 15 31 9 2 1 2 3 7 14 11 13 11 5 3 3 2 3 3 3 4 5 7 12 11 16 13 1 1 3 7 8 8 10 9 9
28 27 26 26 29 29 28 28 28 25 25 25 24 22 20 20 24 8 4 3 35 18 2 2 2 2 9 5 4 3 8 4 4 3 4 4 5 5 4 14 20 12 11 6 6 8 3 7 5 9 9 12 11 12
32 32 32 30 30 32 33 31 29 27 27 25 23 22 20 21 14 7 11 8 29 8 2 3 2 1 7 4 2 4 4 4 5 4 3 4 3 5 6 14 12 12 5 6 10 1 1 8 11 11 15 16 12 11
34 34 34 35 36 34 32 31 31 29 28 27 26 23 20 12 5 5 13 29 9 4 5 4 4 3 4 2 2 2 4 5 4 6 5 6 6 8 12 11 12 12 10 7 9 6 10 12 13 14 14 13 13 12
37 37 36 37 37 37 36 34 32 34 33 29 24 5 3 10 21 15 5 2 1 1 2 3 2 3 4 4 5 3 2 3 3 5 4 5 10 17 10 11 10 9 11 15 10 8 10 12 13 14 14 13 12 14
38 41 43 44 42 41 41 39 36 36 35 9 3 2 13 33 7 1 3 3 2 5 4 4 5 5 2 3 3 4 2 3 3 4 5 3 5 7 14 18 11 9 13 14 3 8 13 12 14 13 12 15 16 17
26 34 41 43 48 49 47 45 43 31 12 11 14 18 11 3 3 4 4 2 4 5 6 6 5 4 4 3 3 3 3 3 4 3 2 4 3 4 2 3 8 12 14 11 7 10 13 14 15 15 15 14 15 15
20 40 42 44 49 56 53 51 49 32 32 24 6 4 4 2 4 8 7 3 3 4 5 4 5 5 3 2 2 2 4 4 3 2 4 4 2 1 3 7 9 9 13 10 9 12 15 15 16 16 14 17 20 20
8 56 52 52 50 59 60 56 50 42 27 3 4 7 5 4 5 4 4 5 3 4 6 7 4 3 3 3 2 3 2 2 3 3 5 1 3 2 5 6 10 9 8 9 9 13 14 15 12 16 20 22 22 20
50 57 57 59 52 64 63 58 52 39 5 4 4 5 5 3 2 3 5 6 4 6 8 4 2 2 1 3 3 2 2 4 5 4 1 2 2 4 7 7 9 8 7 7 10 10 12 16 15 13 16 20 19 20
57 59 57 58 60 62 60 55 37 16 2 2 2 1 1 4 3 3 5 2 4 9 6 2 3 2 3 3 4 7 4 6 3 1 1 1 2 4 6 6 6 8 9 10 11 14 16 16 15 16 16 15 17 21
32 31 55 59 61 60 49 30 10 2 2 3 3 1 3 2 4 3 3 3 6 12 9 3 6 7 3 3 4 4 4 2 1 1 0 1 4 6 6 7 8 12 12 12 14 15 14 15 18 16 13 12 14 17
27 40 49 56 45 33 17 3 3 1 3 2 1 1 1 1 4 3 3 4 7 4 3 3 3 4 4 4 3 2 1 1 2 2 2 3 6 7 9 9 11 13 13 13 15 16 15 16 12 10 13 13 13 13
33 41 42 40 30 11 3 2 5 2 1 0 1 1 2 2 3 2 5 4 4 2 3 2 2 1 1 0 1 1 2 2 2 2 3 7 9 10 12 13 14 13 13 13 13 11 11 10 10 13 14 14 13 14
31 33 44 43 30 3 3 1 2 1 1 1 1 2 2 2 1 3 6 3 2 2 3 2 1 1 1 1 1 1 2 5 6 5 4 4 8 11 10 11 11 15 14 13 11 12 11 9 8 11 13 14 16 16
10 16 24 31 13 6 3 1 1 1 2 2 1 1 2 2 3 3 3 2 3 2 2 1 2 1 1 3 5 5 4 3 2 1 4 5 7 10 10 11 12 11 9 10 10 9 9 8 10 12 15 14 15 15
6 6 4 5 4 3 3 2 2 2 2 2 2 2 2 2 2 2 1 3 2 1 1 2 2 2 4 4 3 6 8 9 8 10 12 14 5 5 7 10 10 7 7 8 9 10 9 11 13 15 16 16 16 18
4 5 6 7 5 4 0 3 3 2 2 2 1 2 2 2 1 0 3 2 2 1 2 3 5 8 7 6 9 9 7 7 6 7 8 8 8 10 11 9 10 10 8 6 10 14 13 15 16 18 18 18 18 17
7 6 5 4 4 1 2 3 2 2 3 2 2 2 2 1 1 2 2 1 1 1 1 4 6 4 4 5 3 4 5 8 9 8 9 10 7 7 8 8 8 8 11 14 14 14 16 17 19 19 20 19 17 15
6 7 5 5 3 4 4 3 3 3 3 2 2 1 1 0 2 2 2 1 1 1 2 2 2 2 3 3 3 4 4 7 8 5 5 10 12 10 9 8 9 10 16 18 13 13 15 18 18 18 18 17 17 16
6 4 3 2 3 3 1 3 2 2 2 2 1 2 2 2 3 2 1 0 1 1 1 2 3 3 2 2 3 3 4 9 12 7 4 8 10 11 8 6 5 5 14 13 18 18 17 17 17 17 16 17 19 20
5 4 2 3 2 2 3 3 2 3 3 2 1 2 2 3 2 1 1 1 1 1 1 1 4 4 4 5 6 7 8 9 6 8 9 8 8 6 8 10 8 8 16 13 14 18 21 19 18 17 17 17 19 20
2 3 3 4 4 2 4 3 3 2 1 1 2 2 3 5 2 1 1 2 3 4 5 5 6 10 10 9 11 14 14 15 16 16 16 13 10 10 9 10 11 13 13 12 12 14 16 18 20 20 21 21 19 16
3 3 2 5 4 4 4 2 2 1 2 0 3 1 1 2 1 1 2 1 3 5 8 9 10 12 13 12 9 7 17 19 12 4 4 3 3 5 10 12 13 14 15 15 13 13 14 17 19 20 19 20 18 17
3 2 3 2 3 3 1 2 1 2 2 1 2 2 1 1 1 2 1 3 4 4 6 9 11 7 8 9 9 10 11 6 5 6 4 5 8 15 14 15 17 18 18 19 20 19 18 19 20 20 21 20 19 19
2 2 3 2 2 1 1 0 1 1 2 2 1 2 2 1 1 0 0 1 1 1 7 10 8 5 8 10 11 8 4 7 4 3 3 9 17 19 18 17 17 17 17 18 20 22 23 22 21 22 21 20 19 18
3 3 3 2 1 1 2 2 1 1 2 2 1 2 1 2 2 1 2 2 3 3 3 7 8 7 6 5 7 6 4 8 8 6 7 15 19 19 19 18 17 17 18 19 20 20 19 21 21 20 20 19 18 16
2 1 1 2 3 2 3 2 4 4 2 1 1 0 1 2 4 2 2 1 2 4 5 4 5 6 8 9 9 8 7 8 8 9 11 15 18 20 19 18 18 18 19 19 19 18 19 19 20 19 19 18 17 15

GFSWCAN_925_spd_144.txt.gz
Wind_Speed
18 17 17 14 14 15 15 47 47 45 44 45 42 38 34 34 31 25 18 20 9 1 3 1 2 5 6 7 5 6 6 3 7 8 5 5 5 7 6 9 11 10 7 6 8 9 11 5 6 5 4 1 4 7
17 15 13 9 12 7 18 27 41 35 36 37 35 36 33 32 27 26 11 14 15 4 2 1 0 2 1 6 5 7 2 8 6 7 6 3 5 3 8 6 12 9 10 6 6 5 3 5 11 7 5 11 12 9
15 14 11 9 8 6 19 31 41 40 40 35 31 33 37 36 30 19 17 21 9 3 2 3 5 7 6 5 3 5 2 2 4 3 2 1 7 2 6 9 10 8 8 7 9 8 15 16 14 11 8 10 8 7
16 13 12 11 8 7 15 24 27 32 32 31 29 27 28 28 28 23 18 21 12 4 3 4 10 11 13 9 5 1 2 3 5 2 4 4 4 4 6 7 8 7 4 8 13 16 17 14 15 12 8 6 5 5
18 16 15 13 13 14 17 25 27 27 29 29 27 25 22 23 24 16 16 16 16 3 2 2 3 13 16 20 16 11 8 5 3 3 4 4 3 5 9 11 12 12 15 11 11 11 13 13 7 5 6 7 7 9
20 18 15 17 16 17 18 22 25 25 25 24 23 23 23 24 25 17 2 8 13 7 4 3 0 6 14 13 20 21 13 7 6 4 4 4 6 5 7 13 14 15 13 14 15 16 9 4 4 6 8 8 9 8
21 22 22 19 18 18 20 22 24 25 25 26 26 24 24 25 22 3 4 6 24 13 3 3 4 3 12 12 8 6 10 5 5 3 4 8 7 5 7 17 14 15 15 18 19 11 9 9 5 8 8 11 11 9
24 23 25 25 24 22 23 23 23 24 24 25 26 25 23 21 11 5 6 14 26 6 2 3 3 5 12 5 5 5 5 5 5 6 6 8 5 6 7 13 15 19 20 19 19 13 12 2 7 10 12 13 11 10
27 26 26 27 27 27 25 26 26 26 26 26 25 22 20 7 4 6 10 24 14 4 5 4 7 5 7 6 4 4 3 4 4 6 9 6 10 10 13 16 18 17 17 16 8 10 9 10 11 12 13 13 11 12
31 30 30 27 27 28 28 28 26 26 27 26 24 5 3 10 18 21 7 3 3 3 3 4 7 5 7 7 6 5 3 4 4 7 5 6 14 23 23 23 21 19 15 8 10 10 11 11 12 14 14 12 11 12
36 35 35 34 32 31 32 32 30 30 31 9 3 2 9 29 8 2 4 6 4 5 5 5 10 7 5 7 5 4 2 3 4 5 6 5 7 14 21 25 23 21 17 15 14 6 12 10 13 14 12 13 14 16
41 39 39 38 38 36 35 35 36 26 17 12 9 16 10 6 3 5 4 4 5 5 7 9 8 6 4 2 3 5 3 3 6 5 4 4 6 11 9 10 13 13 14 15 12 10 12 10 14 14 14 14 15 16
47 45 43 43 40 38 36 37 34 24 23 21 5 4 4 3 5 6 6 4 4 6 7 8 8 7 5 3 2 4 5 5 1 4 4 4 2 2 3 2 2 5 11 12 11 12 12 12 13 16 13 14 17 16
44 49 48 44 42 41 39 41 32 35 20 3 4 5 5 5 4 3 5 6 3 5 9 10 7 5 3 5 3 5 4 2 4 3 5 3 2 4 1 2 6 7 7 9 9 12 13 14 13 13 14 17 18 16
42 51 48 46 45 44 45 45 37 32 5 2 3 5 6 3 5 7 6 7 5 9 9 6 2 3 6 5 4 3 4 5 5 4 1 2 5 2 3 6 8 8 7 8 10 10 12 13 13 12 11 13 14 16
44 48 38 48 48 49 49 45 30 11 2 1 2 3 4 7 6 5 5 6 7 7 6 5 3 4 5 3 6 8 4 6 3 2 1 3 2 3 4 5 5 7 8 10 11 12 13 12 12 13 12 11 13 15
31 14 48 51 50 45 39 25 10 3 3 4 3 3 4 2 3 3 5 7 9 9 5 4 6 6 2 4 5 4 4 1 0 1 2 2 4 5 5 7 7 10 12 12 13 13 13 12 14 14 12 9 11 11
36 44 52 50 48 42 23 9 5 4 6 3 3 2 3 1 3 4 4 7 8 9 9 6 3 5 4 3 3 1 1 1 1 2 1 1 4 6 8 9 10 12 13 12 13 13 13 13 12 10 12 13 13 13
44 51 52 48 36 19 5 6 3 3 5 1 1 1 2 2 2 2 7 10 6 8 5 3 5 4 3 2 2 1 2 3 2 1 2 3 6 8 11 11 12 12 13 13 13 11 11 10 9 12 12 14 12 14
46 50 45 30 25 3 4 2 3 3 2 2 2 3 2 2 2 3 6 4 3 4 4 5 3 2 2 1 2 3 2 3 5 4 4 3 7 9 10 11 10 13 13 11 10 11 11 10 9 10 11 12 13 14
35 24 20 11 2 5 0 2 3 2 2 1 1 1 2 2 2 2 2 1 2 2 3 2 3 3 1 1 0 1 3 4 4 2 4 5 8 10 10 10 12 10 11 11 10 9 9 8 10 11 12 11 11 13
13 20 5 3 4 3 3 2 3 0 1 2 1 0 3 2 2 2 1 2 2 2 2 3 4 4 3 2 2 3 4 4 4 7 7 12 6 6 7 10 11 9 9 9 9 10 9 9 11 11 12 12 14 14
20 11 3 3 1 3 2 1 2 2 1 2 0 2 2 2 2 2 2 2 2 1 4 5 5 6 7 7 6 5 3 4 3 4 7 6 7 8 9 9 7 9 7 6 7 9 10 11 12 13 14 15 15 15
11 4 5 6 5 4 2 2 2 2 1 1 2 3 2 2 2 1 2 2 3 4 4 7 7 5 5 4 3 3 3 3 5 5 5 8 6 7 7 6 5 4 5 10 10 11 12 12 14 14 14 15 15 16
4 2 1 2 1 2 2 2 1 1 2 1 2 2 2 1 2 2 3 3 5 4 5 5 4 4 3 3 3 3 2 3 5 4 5 6 9 9 7 6 6 6 9 12 12 12 12 13 12 13 14 14 15 15
5 3 3 3 3 1 1 2 1 2 2 2 2 2 1 2 3 3 3 3 3 4 4 5 5 4 4 3 4 3 4 4 6 5 4 5 6 6 6 5 4 5 8 9 13 15 15 14 14 14 13 13 15 16
3 3 2 2 2 1 1 2 2 1 2 2 2 3 3 3 3 2 2 1 1 2 2 2 3 4 4 6 4 4 4 5 4 5 6 6 5 4 4 7 7 7 12 10 12 15 17 16 15 14 14 13 13 13
3 4 2 4 3 3 2 2 2 2 2 2 1 2 1 1 1 2 1 2 3 3 3 2 1 3 5 6 6 7 6 7 9 10 9 7 5 4 5 6 7 12 12 10 10 12 13 13 14 15 15 15 14 13
3 4 1 3 2 3 3 2 1 2 3 1 1 1 1 1 1 1 2 1 1 2 4 5 4 6 8 8 6 4 8 10 10 7 7 4 3 3 4 7 9 10 10 12 12 11 12 13 14 15 16 16 15 14
3 3 1 1 1 2 2 2 1 2 2 2 1 1 1 1 1 1 1 2 4 3 3 5 7 6 7 7 6 5 6 7 5 5 4 5 6 9 9 9 10 10 11 13 15 16 17 18 19 19 17 16 15 15
2 1 2 2 1 1 2 2 2 2 2 2 1 1 0 0 2 3 3 3 2 3 6 7 5 3 6 6 7 9 7 8 7 6 5 4 10 12 12 12 11 12 12 14 14 15 17 15 15 16 16 15 15 15
2 2 1 2 2 2 2 2 1 2 1 2 2 1 1 2 3 3 3 5 6 7 7 8 9 7 6 4 6 6 5 6 10 6 5 8 11 13 15 15 15 14 14 14 14 15 15 16 16 15 16 16 15 14
1 1 1 1 2 2 1 2 1 2 2 2 2 1 2 2 4 1 4 6 6 4 5 4 5 7 8 7 6 6 6 8 9 8 8 12 15 17 17 16 16 16 16 16 15 15 15 16 16 16 16 16 16 15